[[{"header":{"parameterUnit":"m.s-1","parameterCategory":1,"la1":31.0,"la2":29.5877,"lo1":-88.7671,"lo2":-86.6584,"dy":0.0162,"dx":0.0185,"nx":115,"ny":88,"refTime":"2024-12-01T18:00:00:Z","depth":0,"parameterNumber":2,"parameterNumberName":"U-component_of_WINDS"},"data":[0.0,0.0,0.0,0.0,0.0,0.0,0.0,0.0,0.0,0.0,0.0,0.0,0.0,0.0,0.0,0.0,0.0,0.0,0.0,0.0,0.0,0.0,0.0,0.0,0.0,0.0,0.0,0.0,0.0,0.0,0.0,0.0,0.0,0.0,0.0,0.0,0.0,0.0,0.0,0.0,0.0,0.0,0.0,0.0,0.0,0.0,0.0,0.0,0.0,0.0,0.0,0.0,0.0,0.0,0.0,0.0,0.0,0.0,0.0,0.0,0.0,0.0,0.0,0.0,0.0,0.0,0.0,0.0,0.0,0.0,0.0,0.0,0.0,0.0,0.0,0.0,0.0,0.0,0.0,0.0,0.0,0.0,0.0,0.0,0.0,0.0,0.0,0.0,0.0,0.0,0.0,0.0,0.0,0.0,0.0,0.0,0.0,0.0,0.0,0.0,0.0,0.0,0.0,0.0,0.0,0.0,0.0,0.0,0.0,0.0,0.0,0.0,0.0,0.0,0.0,0.0,0.0,0.0,0.0,0.0,0.0,0.0,0.0,0.0,0.0,0.0,0.0,0.0,0.0,0.0,0.0,0.0,0.0,0.0,0.0,0.0,0.0,0.0,0.0,0.0,0.0,0.0,0.0,0.0,0.0,0.0,0.0,0.0,0.0,0.0,0.0,0.0,0.0,0.0,0.0,0.0,0.0,0.0,0.0,0.0,0.0,0.0,0.0,0.0,0.0,0.0,0.0,0.0,0.0,0.0,0.0,0.0,0.0,0.0,0.0,0.0,0.0,0.0,0.0,0.0,0.0,0.0,0.0,0.0,0.0,0.0,0.0,0.0,0.0,0.0,0.0,0.0,0.0,0.0,0.0,0.0,0.0,0.0,0.0,0.0,0.0,0.0,0.0,0.0,0.0,0.0,0.0,0.0,0.0,0.0,0.0,0.0,0.0,0.0,0.0,0.0,0.0,0.0,0.0,0.0,0.0,0.0,0.0,0.0,0.0,0.0,0.0,0.0,0.0,0.0,0.0,0.0,0.0,0.0,0.0,0.0,0.0,0.0,0.0,0.0,0.0,0.0,0.0,0.0,0.0,0.0,0.0,0.0,0.0,0.0,0.0,0.0,0.0,0.0,0.0,0.0,0.0,0.0,0.0,0.0,0.0,0.0,0.0,0.0,0.0,0.0,0.0,0.0,0.0,0.0,0.0,0.0,0.0,0.0,0.0,0.0,0.0,0.0,0.0,0.0,0.0,0.0,0.0,0.0,0.0,0.0,0.0,0.0,0.0,0.0,0.0,0.0,0.0,0.0,0.0,0.0,0.0,0.0,0.0,0.0,0.0,0.0,0.0,0.0,0.0,0.0,0.0,0.0,0.0,0.0,0.0,0.0,0.0,0.0,0.0,0.0,0.0,0.0,0.0,0.0,0.0,0.0,0.0,0.0,0.0,0.0,0.0,0.0,0.0,0.0,0.0,0.0,0.0,0.0,0.0,0.0,0.0,0.0,0.0,0.0,0.0,0.0,0.0,0.0,0.0,0.0,0.0,0.0,0.0,0.0,0.0,0.0,0.0,0.0,0.0,0.0,0.0,0.0,0.0,0.0,0.0,0.0,0.0,0.0,0.0,0.0,0.0,0.0,0.0,0.0,0.0,0.0,0.0,0.0,0.0,0.0,0.0,0.0,0.0,0.0,0.0,0.0,0.0,0.0,0.0,0.0,0.0,0.0,0.0,0.0,0.0,0.0,0.0,0.0,0.0,0.0,0.0,0.0,0.0,0.0,0.0,0.0,0.0,0.0,0.0,0.0,0.0,0.0,0.0,0.0,0.0,0.0,0.0,0.0,0.0,0.0,0.0,0.0,0.0,0.0,0.0,0.0,0.0,0.0,0.0,0.0,0.0,0.0,0.0,0.0,0.0,0.0,0.0,0.0,0.0,0.0,0.0,0.0,0.0,0.0,0.0,0.0,0.0,0.0,0.0,0.0,0.0,0.0,0.0,0.0,0.0,0.0,0.0,0.0,0.0,0.0,0.0,0.0,0.0,0.0,0.0,0.0,0.0,0.0,0.0,0.0,0.0,0.0,0.0,0.0,0.0,0.0,0.0,0.0,0.0,0.0,0.0,0.0,0.0,0.0,0.0,0.0,0.0,0.0,0.0,0.0,0.0,0.0,0.0,0.0,0.0,0.0,0.0,0.0,0.0,0.0,0.0,0.0,0.0,0.0,0.0,0.0,0.0,0.0,0.0,0.0,0.0,0.0,0.0,0.0,0.0,0.0,0.0,0.0,0.0,0.0,0.0,0.0,0.0,0.0,0.0,0.0,0.0,0.0,0.0,0.0,0.0,0.0,0.0,0.0,0.0,0.0,0.0,0.0,0.0,0.0,0.0,0.0,0.0,0.0,0.0,0.0,0.0,0.0,0.0,0.0,0.0,0.0,0.0,0.0,0.0,0.0,0.0,0.0,0.0,0.0,0.0,0.0,0.0,0.0,0.0,0.0,0.0,0.0,0.0,0.0,0.0,0.0,0.0,0.0,0.0,0.0,0.0,0.0,0.0,0.0,0.0,0.0,0.0,0.0,0.0,0.0,0.0,0.0,0.0,0.0,0.0,0.0,0.0,0.0,0.0,0.0,0.0,0.0,0.0,0.0,0.0,0.0,0.0,0.0,0.0,0.0,0.0,0.0,0.0,0.0,0.0,0.0,0.0,0.0,0.0,0.0,0.0,0.0,0.0,0.0,0.0,0.0,0.0,0.0,0.0,0.0,0.0,0.0,0.0,0.0,0.0,0.0,0.0,0.0,0.0,0.0,0.0,0.0,0.0,0.0,0.0,0.0,0.0,0.0,0.0,0.0,0.0,0.0,0.0,0.0,0.0,0.0,0.0,0.0,0.0,0.0,0.0,0.0,0.0,0.0,0.0,0.0,0.0,0.0,0.0,0.0,0.0,0.0,0.0,0.0,0.0,0.0,0.0,0.0,0.0,0.0,0.0,0.0,0.0,0.0,0.0,0.0,0.0,0.0,0.0,0.0,0.0,0.0,0.0,0.0,0.0,0.0,0.0,0.0,0.0,0.0,0.0,0.0,0.0,0.0,0.0,0.0,0.0,0.0,0.0,0.0,0.0,0.0,0.0,0.0,0.0,0.0,0.0,0.0,0.0,0.0,0.0,0.0,0.0,0.0,0.0,0.0,0.0,0.0,0.0,0.0,0.0,0.0,0.0,0.0,0.0,0.0,0.0,0.0,0.0,0.0,0.0,0.0,0.0,0.0,0.0,0.0,0.0,0.0,0.0,0.0,0.0,0.0,0.0,0.0,0.0,0.0,0.0,0.0,0.0,0.0,0.0,0.0,0.0,0.0,0.0,0.0,0.0,0.0,0.0,0.0,0.0,0.0,0.0,0.0,0.0,0.0,0.0,0.0,0.0,0.0,0.0,0.0,0.0,0.0,0.0,0.0,0.0,0.0,0.0,0.0,0.0,0.0,0.0,0.0,0.0,0.0,0.0,0.0,0.0,0.0,0.0,0.0,0.0,0.0,0.0,0.0,0.0,0.0,0.0,0.0,0.0,0.0,0.0,0.0,0.0,0.0,0.0,0.0,0.0,0.0,0.0,0.0,0.0,0.0,0.0,0.0,0.0,0.0,0.0,0.0,0.0,0.0,0.0,0.0,0.0,0.0,0.0,0.0,0.0,0.0,0.0,0.0,0.0,0.0,0.0,0.0,0.0,0.0,0.0,0.0,0.0,0.0,0.0,0.0,0.0,0.0,0.0,0.0,0.0,0.0,0.0,0.0,0.0,0.0,0.0,0.0,0.0,0.0,0.0,0.0,0.0,0.0,0.0,0.0,0.0,0.0,0.0,0.0,0.0,0.0,0.0,0.0,0.0,0.0,0.0,0.0,0.0,0.0,0.0,0.0,0.0,0.0,0.0,0.0,0.0,0.0,0.0,0.0,0.0,0.0,0.0,0.0,0.0,0.0,0.0,0.0,0.0,0.0,0.0,0.0,0.0,0.0,0.0,0.0,0.0,0.0,0.0,0.0,0.0,0.0,0.0,0.0,0.0,0.0,0.0,0.0,0.0,0.0,0.0,0.0,0.0,0.0,0.0,0.0,0.0,0.0,0.0,0.0,0.0,0.0,0.0,0.0,0.0,0.0,0.0,0.0,0.0,0.0,0.0,0.0,0.0,0.0,0.0,0.0,0.0,0.0,0.0,0.0,0.0,0.0,0.0,0.0,0.0,0.0,0.0,0.0,0.0,0.0,0.0,0.0,0.0,0.0,0.0,0.0,3.0801,0.0,0.0,0.0,0.0,0.0,0.0,0.0,0.0,0.0,0.0,0.0,0.0,0.0,0.0,0.0,0.0,0.0,0.0,0.0,0.0,0.0,0.0,0.0,0.0,0.0,0.0,0.0,0.0,0.0,0.0,0.0,0.0,0.0,0.0,0.0,0.0,0.0,0.0,0.0,0.0,0.0,0.0,0.0,0.0,0.0,0.0,0.0,0.0,0.0,0.0,0.0,0.0,0.0,0.0,0.0,0.0,0.0,0.0,0.0,0.0,0.0,0.0,0.0,0.0,0.0,0.0,0.0,0.0,0.0,0.0,0.0,0.0,0.0,0.0,0.0,0.0,0.0,0.0,0.0,0.0,0.0,0.0,0.0,0.0,0.0,0.0,0.0,0.0,0.0,0.0,0.0,0.0,0.0,0.0,0.0,0.0,0.0,0.0,0.0,0.0,0.0,0.0,0.0,0.0,0.0,0.0,0.0,0.0,0.0,0.0,3.0801,3.0801,3.0801,3.0801,3.0801,0.0,0.0,0.0,0.0,0.0,0.0,0.0,0.0,0.0,0.0,0.0,0.0,0.0,0.0,0.0,0.0,0.0,0.0,0.0,0.0,0.0,0.0,0.0,0.0,0.0,0.0,0.0,0.0,0.0,0.0,0.0,0.0,0.0,0.0,0.0,0.0,0.0,0.0,0.0,0.0,0.0,0.0,0.0,0.0,0.0,0.0,0.0,0.0,0.0,0.0,0.0,0.0,0.0,0.0,0.0,0.0,0.0,0.0,0.0,0.0,0.0,0.0,0.0,0.0,0.0,0.0,0.0,0.0,0.0,0.0,0.0,0.0,0.0,0.0,0.0,0.0,0.0,0.0,0.0,0.0,0.0,0.0,0.0,0.0,0.0,0.0,0.0,0.0,0.0,0.0,0.0,0.0,0.0,0.0,0.0,0.0,0.0,0.0,0.0,0.0,0.0,0.0,0.0,0.0,0.0,0.0,0.0,0.0,0.0,0.0,0.0,0.0,3.1973,3.1973,3.1973,0.0,0.0,0.0,0.0,0.0,0.0,0.0,0.0,0.0,0.0,0.0,0.0,0.0,0.0,0.0,0.0,0.0,0.0,0.0,0.0,0.0,0.0,0.0,0.0,0.0,0.0,0.0,0.0,0.0,0.0,0.0,0.0,0.0,0.0,0.0,0.0,0.0,0.0,0.0,0.0,0.0,0.0,0.0,0.0,0.0,0.0,0.0,0.0,0.0,0.0,0.0,0.0,0.0,0.0,0.0,0.0,0.0,0.0,0.0,0.0,0.0,0.0,0.0,0.0,0.0,0.0,0.0,0.0,0.0,0.0,0.0,0.0,0.0,0.0,0.0,0.0,0.0,0.0,0.0,0.0,0.0,0.0,0.0,0.0,0.0,0.0,0.0,0.0,0.0,0.0,0.0,0.0,0.0,0.0,0.0,0.0,0.0,0.0,0.0,0.0,0.0,0.0,0.0,0.0,0.0,0.0,0.0,0.0,0.0,0.0,3.2285,3.5408,3.5483,0.0,3.5522,0.0,0.0,0.0,0.0,0.0,0.0,0.0,0.0,0.0,0.0,0.0,0.0,0.0,0.0,0.0,0.0,0.0,0.0,0.0,0.0,0.0,0.0,0.0,0.0,0.0,0.0,0.0,0.0,0.0,0.0,0.0,0.0,0.0,0.0,0.0,0.0,0.0,0.0,0.0,0.0,0.0,0.0,0.0,0.0,0.0,0.0,0.0,0.0,0.0,0.0,0.0,0.0,0.0,0.0,0.0,0.0,0.0,0.0,0.0,0.0,0.0,0.0,0.0,0.0,0.0,0.0,0.0,0.0,0.0,0.0,0.0,0.0,0.0,0.0,0.0,0.0,0.0,0.0,0.0,0.0,0.0,0.0,0.0,0.0,0.0,0.0,0.0,0.0,0.0,0.0,0.0,0.0,0.0,0.0,0.0,0.0,0.0,0.0,0.0,0.0,0.0,0.0,0.0,0.0,0.0,0.0,0.0,0.0,0.0,0.0,3.4549,3.5952,3.603,3.603,0.0,0.0,0.0,0.0,0.0,0.0,0.0,0.0,0.0,0.0,0.0,0.0,0.0,0.0,0.0,0.0,0.0,0.0,0.0,0.0,0.0,0.0,0.0,0.0,0.0,0.0,0.0,0.0,0.0,0.0,0.0,0.0,0.0,0.0,0.0,0.0,0.0,0.0,0.0,0.0,0.0,0.0,0.0,0.0,0.0,0.0,0.0,0.0,0.0,0.0,0.0,0.0,0.0,0.0,0.0,0.0,0.0,0.0,0.0,0.0,0.0,0.0,0.0,0.0,0.0,0.0,0.0,0.0,0.0,0.0,0.0,0.0,0.0,0.0,0.0,0.0,0.0,0.0,0.0,0.0,0.0,0.0,0.0,0.0,0.0,0.0,0.0,0.0,0.0,0.0,0.0,0.0,0.0,0.0,0.0,0.0,0.0,0.0,0.0,0.0,0.0,0.0,0.0,0.0,0.0,0.0,0.0,0.0,0.0,0.0,3.5213,3.6417,3.7308,3.7386,3.6957,3.5981,0.0,0.0,0.0,0.0,0.0,0.0,0.0,0.0,0.0,0.0,0.0,0.0,0.0,0.0,0.0,0.0,0.0,0.0,0.0,0.0,0.0,0.0,0.0,0.0,0.0,0.0,0.0,0.0,0.0,0.0,0.0,0.0,0.0,0.0,0.0,0.0,0.0,0.0,0.0,0.0,0.0,0.0,0.0,0.0,0.0,0.0,0.0,0.0,0.0,0.0,0.0,0.0,0.0,0.0,0.0,0.0,0.0,0.0,0.0,0.0,0.0,0.0,0.0,0.0,0.0,0.0,0.0,0.0,0.0,0.0,0.0,0.0,0.0,0.0,0.0,0.0,0.0,0.0,0.0,0.0,0.0,0.0,0.0,0.0,0.0,0.0,0.0,0.0,0.0,0.0,0.0,0.0,0.0,0.0,0.0,0.0,0.0,0.0,0.0,0.0,0.0,0.0,0.0,0.0,0.0,0.0,0.0,0.0,0.0,3.7516,3.7542,4.0671,4.0749,3.9223,0.0,0.0,0.0,0.0,0.0,0.0,0.0,0.0,0.0,0.0,0.0,0.0,0.0,0.0,0.0,0.0,0.0,0.0,0.0,0.0,0.0,0.0,0.0,0.0,0.0,0.0,0.0,0.0,0.0,0.0,0.0,0.0,0.0,0.0,0.0,0.0,0.0,0.0,0.0,0.0,0.0,0.0,0.0,0.0,0.0,0.0,0.0,0.0,0.0,0.0,0.0,0.0,0.0,0.0,0.0,0.0,0.0,0.0,0.0,0.0,0.0,0.0,0.0,0.0,0.0,0.0,0.0,0.0,0.0,0.0,0.0,0.0,0.0,0.0,0.0,0.0,0.0,0.0,0.0,0.0,0.0,0.0,0.0,0.0,0.0,0.0,0.0,0.0,0.0,0.0,0.0,0.0,0.0,0.0,0.0,0.0,0.0,0.0,0.0,0.0,0.0,0.0,0.0,0.0,0.0,0.0,0.0,0.0,0.0,3.4393,3.5428,3.8605,4.3838,4.007,3.7887,0.0,0.0,0.0,0.0,0.0,0.0,0.0,0.0,0.0,0.0,0.0,0.0,0.0,0.0,0.0,0.0,0.0,0.0,0.0,0.0,0.0,0.0,0.0,0.0,0.0,0.0,0.0,0.0,0.0,0.0,0.0,0.0,0.0,0.0,0.0,0.0,0.0,0.0,0.0,0.0,0.0,0.0,0.0,0.0,0.0,0.0,0.0,0.0,0.0,0.0,0.0,0.0,0.0,0.0,0.0,0.0,0.0,0.0,0.0,0.0,0.0,0.0,0.0,0.0,0.0,0.0,0.0,0.0,0.0,0.0,0.0,0.0,0.0,0.0,0.0,0.0,0.0,0.0,0.0,0.0,0.0,0.0,0.0,0.0,0.0,0.0,0.0,0.0,0.0,0.0,0.0,0.0,0.0,0.0,0.0,0.0,0.0,0.0,0.0,0.0,0.0,0.0,0.0,0.0,0.0,0.0,0.0,0.0,0.0,3.3688,0.0,4.022,0.0,3.9539,3.6988,0.0,0.0,0.0,0.0,0.0,0.0,0.0,0.0,0.0,0.0,0.0,0.0,0.0,0.0,0.0,0.0,0.0,0.0,0.0,0.0,0.0,0.0,0.0,0.0,0.0,0.0,0.0,0.0,0.0,0.0,0.0,0.0,0.0,0.0,0.0,0.0,0.0,0.0,0.0,0.0,0.0,0.0,0.0,0.0,0.0,0.0,0.0,0.0,0.0,0.0,0.0,0.0,0.0,0.0,0.0,0.0,0.0,0.0,0.0,0.0,0.0,0.0,0.0,0.0,0.0,0.0,0.0,0.0,0.0,0.0,0.0,0.0,0.0,0.0,0.0,0.0,0.0,0.0,0.0,0.0,0.0,0.0,0.0,0.0,0.0,0.0,0.0,0.0,0.0,0.0,0.0,0.0,0.0,0.0,0.0,0.0,0.0,0.0,0.0,0.0,0.0,0.0,0.0,0.0,0.0,0.0,0.0,0.0,3.3768,3.939,4.1974,4.2163,3.9848,3.949,3.6681,0.0,0.0,0.0,0.0,0.0,0.0,0.0,0.0,0.0,0.0,0.0,0.0,0.0,0.0,0.0,0.0,0.0,0.0,0.0,0.0,0.0,0.0,0.0,0.0,0.0,0.0,0.0,0.0,0.0,0.0,0.0,0.0,0.0,0.0,0.0,0.0,0.0,0.0,0.0,0.0,0.0,0.0,0.0,0.0,0.0,0.0,0.0,0.0,0.0,0.0,0.0,0.0,0.0,0.0,0.0,0.0,0.0,0.0,0.0,0.0,0.0,0.0,0.0,0.0,0.0,0.0,0.0,0.0,0.0,0.0,0.0,0.0,0.0,0.0,0.0,0.0,0.0,0.0,0.0,0.0,0.0,0.0,0.0,0.0,0.0,0.0,0.0,0.0,0.0,0.0,0.0,0.0,0.0,0.0,0.0,0.0,0.0,0.0,0.0,0.0,0.0,0.0,0.0,0.0,0.0,0.0,0.0,0.0,0.0,3.6345,3.9279,4.1871,4.3713,3.819,3.5873,0.0,0.0,0.0,0.0,0.0,0.0,0.0,0.0,0.0,0.0,0.0,0.0,0.0,0.0,0.0,0.0,0.0,0.0,0.0,0.0,0.0,0.0,0.0,0.0,0.0,0.0,0.0,0.0,0.0,0.0,0.0,0.0,0.0,0.0,0.0,0.0,0.0,0.0,0.0,0.0,0.0,0.0,0.0,0.0,0.0,0.0,0.0,0.0,0.0,0.0,0.0,0.0,0.0,0.0,0.0,0.0,0.0,0.0,0.0,0.0,0.0,0.0,0.0,0.0,0.0,0.0,0.0,0.0,0.0,0.0,0.0,0.0,0.0,0.0,0.0,0.0,0.0,0.0,0.0,0.0,0.0,0.0,0.0,0.0,0.0,0.0,0.0,0.0,0.0,0.0,0.0,0.0,0.0,0.0,0.0,0.0,0.0,0.0,0.0,0.0,0.0,0.0,0.0,0.0,0.0,0.0,0.0,0.0,0.0,3.9624,4.2369,4.4365,4.537,3.948,3.6933,3.8119,0.0,0.0,0.0,0.0,0.0,0.0,0.0,0.0,0.0,0.0,0.0,0.0,0.0,0.0,0.0,0.0,0.0,0.0,0.0,0.0,0.0,0.0,0.0,0.0,0.0,0.0,0.0,0.0,0.0,0.0,0.0,0.0,0.0,0.0,0.0,0.0,0.0,0.0,0.0,0.0,0.0,0.0,0.0,0.0,0.0,0.0,0.0,0.0,0.0,0.0,0.0,0.0,0.0,0.0,0.0,0.0,0.0,0.0,0.0,0.0,0.0,0.0,0.0,0.0,0.0,0.0,0.0,0.0,0.0,0.0,0.0,0.0,0.0,0.0,0.0,0.0,0.0,0.0,0.0,0.0,0.0,0.0,0.0,0.0,0.0,0.0,0.0,0.0,0.0,0.0,0.0,0.0,0.0,0.0,0.0,0.0,0.0,0.0,0.0,0.0,0.0,0.0,0.0,0.0,0.0,0.0,0.0,0.0,4.7553,5.0226,4.9487,4.523,4.296,3.9571,0.0,0.0,0.0,0.0,0.0,0.0,0.0,0.0,0.0,0.0,0.0,0.0,0.0,0.0,0.0,0.0,0.0,0.0,0.0,0.0,0.0,0.0,0.0,0.0,0.0,0.0,0.0,0.0,0.0,0.0,0.0,0.0,0.0,0.0,0.0,0.0,0.0,0.0,0.0,0.0,0.0,0.0,0.0,0.0,0.0,0.0,0.0,0.0,0.0,0.0,0.0,0.0,0.0,0.0,0.0,0.0,0.0,0.0,0.0,0.0,0.0,0.0,0.0,0.0,0.0,0.0,0.0,0.0,0.0,0.0,0.0,0.0,0.0,0.0,0.0,0.0,0.0,0.0,0.0,0.0,0.0,0.0,0.0,0.0,0.0,0.0,0.0,0.0,0.0,0.0,0.0,0.0,0.0,0.0,0.0,0.0,0.0,0.0,0.0,0.0,0.0,0.0,0.0,0.0,0.0,0.0,0.0,0.0,0.0,5.083,5.4634,5.5176,5.2005,4.5291,4.1097,0.0,0.0,0.0,0.0,0.0,0.0,0.0,0.0,0.0,0.0,0.0,0.0,0.0,0.0,0.0,0.0,0.0,0.0,0.0,0.0,0.0,0.0,0.0,0.0,0.0,0.0,0.0,0.0,0.0,0.0,0.0,0.0,0.0,0.0,0.0,0.0,0.0,0.0,0.0,0.0,0.0,0.0,0.0,0.0,0.0,0.0,0.0,0.0,0.0,0.0,0.0,0.0,0.0,0.0,0.0,0.0,0.0,0.0,0.0,0.0,0.0,0.0,0.0,0.0,0.0,0.0,0.0,0.0,0.0,0.0,0.0,0.0,0.0,0.0,0.0,0.0,0.0,0.0,0.0,0.0,0.0,0.0,0.0,0.0,0.0,0.0,0.0,0.0,0.0,0.0,0.0,0.0,0.0,0.0,0.0,0.0,0.0,0.0,0.0,0.0,0.0,0.0,0.0,0.0,0.0,0.0,0.0,0.0,5.0281,5.4585,5.8433,5.9377,5.7174,5.012,4.4863,0.0,0.0,0.0,0.0,0.0,0.0,0.0,0.0,0.0,0.0,0.0,0.0,0.0,0.0,0.0,0.0,0.0,0.0,0.0,0.0,0.0,0.0,0.0,0.0,0.0,0.0,0.0,0.0,0.0,0.0,0.0,0.0,0.0,0.0,0.0,0.0,0.0,0.0,0.0,0.0,0.0,0.0,0.0,0.0,0.0,0.0,0.0,0.0,0.0,0.0,0.0,0.0,0.0,0.0,0.0,0.0,0.0,0.0,0.0,0.0,0.0,0.0,0.0,0.0,0.0,0.0,0.0,0.0,0.0,0.0,0.0,0.0,0.0,0.0,0.0,0.0,0.0,0.0,0.0,0.0,0.0,0.0,0.0,0.0,0.0,0.0,0.0,0.0,0.0,0.0,0.0,0.0,0.0,0.0,0.0,0.0,0.0,0.0,0.0,0.0,0.0,0.0,0.0,0.0,0.0,0.0,0.0,0.0,5.3459,5.8235,6.1428,6.223,6.0556,5.5618,4.9433,0.0,0.0,0.0,0.0,0.0,0.0,0.0,0.0,0.0,0.0,0.0,0.0,0.0,0.0,0.0,0.0,0.0,0.0,0.0,0.0,0.0,0.0,0.0,0.0,0.0,0.0,0.0,0.0,0.0,0.0,0.0,0.0,0.0,0.0,0.0,0.0,0.0,0.0,0.0,0.0,0.0,0.0,0.0,0.0,0.0,0.0,0.0,0.0,0.0,0.0,0.0,0.0,0.0,0.0,0.0,0.0,0.0,0.0,0.0,0.0,0.0,0.0,0.0,0.0,0.0,0.0,0.0,0.0,0.0,0.0,0.0,0.0,0.0,0.0,0.0,0.0,0.0,0.0,0.0,0.0,0.0,0.0,0.0,0.0,0.0,0.0,0.0,0.0,0.0,0.0,0.0,0.0,0.0,0.0,0.0,0.0,0.0,0.0,0.0,0.0,0.0,0.0,0.0,0.0,0.0,0.0,0.0,0.0,5.5045,5.9186,6.1813,6.258,6.1353,5.5811,5.023,0.0,0.0,0.0,0.0,0.0,0.0,0.0,0.0,0.0,0.0,0.0,0.0,0.0,0.0,0.0,0.0,0.0,0.0,0.0,0.0,0.0,0.0,0.0,0.0,0.0,0.0,0.0,0.0,0.0,0.0,0.0,0.0,0.0,0.0,0.0,0.0,0.0,0.0,0.0,0.0,0.0,0.0,0.0,0.0,0.0,0.0,0.0,0.0,2.9018,0.0,0.0,0.0,0.0,0.0,0.0,0.0,0.0,0.0,0.0,0.0,0.0,0.0,0.0,0.0,0.0,0.0,0.0,0.0,0.0,0.0,0.0,0.0,0.0,0.0,0.0,0.0,0.0,0.0,0.0,0.0,0.0,0.0,0.0,0.0,0.0,0.0,0.0,0.0,0.0,0.0,0.0,0.0,0.0,0.0,0.0,0.0,0.0,0.0,0.0,0.0,0.0,0.0,0.0,0.0,0.0,0.0,0.0,0.0,5.7207,6.1164,6.3207,6.3587,6.2128,5.8421,5.3263,0.0,0.0,0.0,0.0,0.0,0.0,0.0,0.0,0.0,0.0,0.0,0.0,0.0,0.0,0.0,0.0,0.0,0.0,0.0,0.0,0.0,0.0,0.0,0.0,0.0,0.0,0.0,0.0,0.0,0.0,0.0,0.0,0.0,0.0,0.0,0.0,0.0,0.0,0.0,0.0,0.0,0.0,0.0,0.0,0.0,0.0,0.0,0.0,0.0,0.0,0.0,0.0,0.0,0.0,0.0,0.0,0.0,0.0,0.0,0.0,0.0,0.0,0.0,0.0,0.0,0.0,0.0,0.0,0.0,0.0,0.0,0.0,0.0,0.0,0.0,0.0,0.0,0.0,0.0,0.0,0.0,0.0,0.0,0.0,0.0,0.0,0.0,0.0,0.0,0.0,0.0,0.0,0.0,0.0,0.0,0.0,0.0,0.0,0.0,0.0,0.0,0.0,0.0,0.0,0.0,0.0,0.0,5.4143,5.9121,6.3207,6.4843,6.4726,6.293,6.1249,5.6511,4.8334,0.0,0.0,0.0,0.0,0.0,0.0,0.0,0.0,0.0,0.0,0.0,0.0,0.0,0.0,0.0,0.0,0.0,0.0,0.0,0.0,0.0,0.0,0.0,0.0,0.0,0.0,0.0,0.0,0.0,0.0,0.0,0.0,0.0,0.0,0.0,0.0,0.0,0.0,2.8111,3.0947,0.0,0.0,0.0,0.0,0.0,0.0,0.0,0.0,3.0535,0.0,0.0,0.0,0.0,0.0,0.0,0.0,0.0,0.0,0.0,0.0,0.0,0.0,0.0,0.0,0.0,0.0,0.0,0.0,0.0,0.0,0.0,0.0,0.0,0.0,0.0,0.0,0.0,0.0,0.0,0.0,0.0,0.0,0.0,0.0,0.0,0.0,0.0,0.0,0.0,0.0,0.0,0.0,0.0,0.0,0.0,0.0,0.0,0.0,0.0,0.0,0.0,0.0,0.0,0.0,0.0,5.4223,5.6154,5.9353,6.4103,6.5724,6.5337,6.3006,6.1287,5.6778,4.9251,0.0,0.0,0.0,0.0,0.0,0.0,0.0,0.0,0.0,0.0,0.0,0.0,0.0,0.0,0.0,0.0,0.0,0.0,0.0,0.0,0.0,0.0,0.0,0.0,0.0,0.0,0.0,0.0,0.0,0.0,0.0,0.0,0.0,0.0,0.0,0.0,0.0,0.0,0.0,3.5582,3.6444,0.0,0.0,0.0,0.0,0.0,0.0,0.0,0.0,3.0801,0.0,0.0,0.0,0.0,0.0,0.0,0.0,0.0,0.0,0.0,0.0,0.0,0.0,0.0,0.0,0.0,0.0,0.0,0.0,0.0,0.0,0.0,0.0,0.0,0.0,0.0,0.0,0.0,0.0,0.0,0.0,0.0,0.0,0.0,0.0,0.0,0.0,0.0,0.0,0.0,0.0,0.0,0.0,0.0,0.0,0.0,0.0,0.0,0.0,0.0,0.0,0.0,0.0,0.0,0.0,5.3551,5.7983,6.1781,6.4987,6.6145,6.549,6.293,5.9988,5.5288,0.0,0.0,0.0,0.0,0.0,0.0,0.0,0.0,0.0,0.0,0.0,0.0,0.0,0.0,0.0,0.0,0.0,0.0,0.0,0.0,0.0,0.0,0.0,0.0,0.0,0.0,0.0,0.0,0.0,0.0,0.0,0.0,0.0,0.0,0.0,0.0,0.0,0.0,0.0,0.0,3.6992,3.7577,3.8473,0.0,0.0,0.0,0.0,0.0,0.0,3.2949,3.1973,0.0,0.0,0.0,0.0,0.0,0.0,0.0,0.0,0.0,0.0,0.0,0.0,0.0,0.0,0.0,0.0,0.0,0.0,0.0,0.0,0.0,0.0,0.0,0.0,0.0,0.0,0.0,0.0,0.0,0.0,0.0,0.0,0.0,0.0,0.0,0.0,0.0,0.0,0.0,0.0,0.0,0.0,0.0,0.0,0.0,0.0,0.0,0.0,0.0,0.0,0.0,0.0,0.0,0.0,0.0,5.2165,5.9057,6.359,6.5559,6.6498,6.5643,6.293,5.9147,5.418,0.0,0.0,0.0,0.0,0.0,0.0,0.0,0.0,0.0,0.0,0.0,0.0,0.0,0.0,0.0,0.0,0.0,0.0,0.0,0.0,0.0,0.0,0.0,0.0,0.0,0.0,0.0,0.0,0.0,0.0,0.0,0.0,0.0,0.0,0.0,0.0,0.0,0.0,0.0,0.0,0.0,3.9133,3.9953,3.8939,0.0,0.0,0.0,0.0,3.6426,3.5798,0.0,0.0,0.0,0.0,0.0,0.0,0.0,0.0,0.0,0.0,0.0,0.0,0.0,0.0,0.0,0.0,0.0,0.0,0.0,0.0,0.0,0.0,0.0,0.0,0.0,0.0,0.0,0.0,0.0,0.0,0.0,0.0,0.0,0.0,0.0,0.0,0.0,0.0,0.0,0.0,0.0,0.0,0.0,0.0,0.0,0.0,0.0,0.0,0.0,0.0,0.0,0.0,0.0,0.0,0.0,0.0,5.2533,5.8106,6.2372,6.5359,6.6973,6.6216,6.3006,6.0255,5.5365,0.0,0.0,0.0,0.0,0.0,0.0,0.0,0.0,0.0,0.0,0.0,0.0,0.0,0.0,0.0,0.0,0.0,0.0,0.0,0.0,0.0,0.0,0.0,0.0,0.0,0.0,0.0,0.0,0.0,0.0,0.0,0.0,0.0,0.0,0.0,0.0,0.0,0.0,0.0,0.0,0.0,4.3336,4.1228,4.0798,4.0603,0.0,0.0,4.0018,4.2279,4.1927,0.0,0.0,0.0,0.0,0.0,0.0,0.0,0.0,0.0,0.0,0.0,0.0,0.0,0.0,0.0,0.0,0.0,0.0,0.0,0.0,0.0,0.0,0.0,0.0,0.0,0.0,0.0,0.0,0.0,0.0,0.0,0.0,0.0,0.0,0.0,0.0,0.0,0.0,0.0,0.0,0.0,0.0,0.0,0.0,0.0,0.0,0.0,0.0,0.0,0.0,0.0,0.0,0.0,0.0,0.0,4.6334,5.2766,5.9305,6.3523,6.5337,6.6598,6.5834,6.2968,5.8612,5.3378,0.0,0.0,0.0,0.0,0.0,0.0,0.0,0.0,0.0,0.0,0.0,0.0,0.0,0.0,0.0,0.0,0.0,0.0,0.0,0.0,0.0,0.0,0.0,0.0,0.0,0.0,0.0,0.0,0.0,0.0,0.0,0.0,0.0,0.0,0.0,0.0,0.0,0.0,0.0,0.0,0.0,0.0,4.3997,4.3645,0.0,0.0,0.0,4.2982,4.3606,0.0,0.0,0.0,0.0,0.0,0.0,0.0,0.0,0.0,0.0,0.0,0.0,0.0,0.0,0.0,0.0,0.0,0.0,0.0,0.0,0.0,0.0,0.0,0.0,0.0,0.0,0.0,0.0,0.0,0.0,0.0,0.0,0.0,0.0,0.0,0.0,0.0,0.0,0.0,0.0,0.0,0.0,0.0,0.0,0.0,0.0,0.0,0.0,0.0,0.0,0.0,0.0,0.0,0.0,0.0,0.0,0.0,5.2805,6.0332,6.4573,6.5375,6.6254,6.549,6.2892,5.7772,0.0,0.0,0.0,0.0,0.0,0.0,0.0,0.0,0.0,0.0,0.0,0.0,0.0,0.0,0.0,0.0,0.0,0.0,0.0,0.0,0.0,0.0,0.0,0.0,0.0,0.0,0.0,2.1198,0.0,0.0,0.0,0.0,0.0,0.0,0.0,0.0,0.0,0.0,0.0,0.0,0.0,0.0,4.4153,4.6339,4.6417,4.6417,0.0,0.0,4.6144,4.5714,4.6378,4.4894,0.0,0.0,0.0,0.0,0.0,0.0,0.0,0.0,0.0,0.0,0.0,0.0,0.0,0.0,0.0,0.0,0.0,0.0,0.0,0.0,0.0,0.0,0.0,0.0,0.0,0.0,0.0,0.0,0.0,0.0,0.0,0.0,0.0,0.0,0.0,0.0,0.0,0.0,0.0,0.0,0.0,0.0,0.0,0.0,0.0,0.0,0.0,0.0,0.0,0.0,0.0,0.0,0.0,0.0,0.0,5.2843,6.0293,6.4573,6.5375,6.6254,6.549,6.2968,5.9491,5.4142,0.0,0.0,0.0,0.0,0.0,0.0,0.0,0.0,0.0,0.0,0.0,0.0,0.0,0.0,0.0,0.0,0.0,0.0,0.0,0.0,0.0,0.0,0.0,0.0,0.0,0.0,0.0,0.0,0.0,0.0,0.0,0.0,0.0,0.0,0.0,0.0,0.0,0.0,0.0,0.0,0.0,4.6378,4.7354,4.8798,5.0321,0.0,0.0,5.0008,5.075,5.157,4.9345,4.0991,0.0,0.0,0.0,0.0,0.0,0.0,0.0,0.0,0.0,0.0,0.0,0.0,0.0,0.0,0.0,0.0,0.0,0.0,0.0,0.0,0.0,0.0,0.0,0.0,0.0,0.0,0.0,0.0,0.0,0.0,0.0,0.0,0.0,0.0,0.0,0.0,0.0,0.0,0.0,0.0,0.0,0.0,0.0,0.0,0.0,0.0,0.0,0.0,0.0,0.0,0.0,0.0,0.0,4.7761,5.2766,5.9797,6.4038,6.5337,6.5719,6.4955,6.2968,5.9644,5.4562,0.0,0.0,0.0,0.0,0.0,0.0,0.0,0.0,0.0,0.0,0.0,0.0,0.0,0.0,0.0,0.0,0.0,0.0,0.0,0.0,0.0,0.0,0.0,0.0,0.0,0.0,0.0,0.0,2.6898,2.7639,2.7795,0.0,0.0,0.0,0.0,0.0,0.0,0.0,0.0,0.0,0.0,4.7978,5.0399,5.1297,0.0,0.0,5.2117,5.1804,5.2156,5.1102,4.8642,4.3762,4.1498,0.0,0.0,0.0,0.0,0.0,0.0,0.0,0.0,0.0,0.0,0.0,0.0,0.0,0.0,0.0,0.0,0.0,0.0,0.0,0.0,0.0,0.0,0.0,0.0,0.0,0.0,0.0,0.0,0.0,0.0,0.0,0.0,0.0,0.0,0.0,0.0,0.0,0.0,0.0,0.0,0.0,0.0,0.0,0.0,0.0,0.0,0.0,0.0,0.0,0.0,0.0,0.0,4.7761,5.2766,5.9453,6.3732,6.5375,6.5413,6.4611,6.293,5.9873,5.5212,0.0,0.0,0.0,0.0,0.0,0.0,0.0,0.0,0.0,0.0,0.0,0.0,0.0,0.0,0.0,0.0,0.0,0.0,0.0,0.0,0.0,0.0,0.0,0.0,0.0,0.0,0.0,0.0,2.9084,2.9162,2.803,0.0,0.0,0.0,0.0,0.0,0.0,0.0,0.0,0.0,0.0,4.9774,5.2663,5.3093,5.321,5.3444,5.3014,5.2702,5.2702,5.1375,4.915,4.5597,0.0,0.0,0.0,0.0,0.0,0.0,0.0,0.0,0.0,0.0,0.0,0.0,0.0,0.0,0.0,0.0,0.0,0.0,0.0,0.0,0.0,0.0,0.0,0.0,0.0,0.0,0.0,0.0,0.0,0.0,0.0,0.0,0.0,0.0,0.0,0.0,0.0,0.0,0.0,0.0,0.0,0.0,0.0,0.0,0.0,0.0,0.0,0.0,0.0,0.0,0.0,0.0,0.0,4.7799,5.2805,5.9491,6.3694,6.5337,6.5413,6.4611,6.293,6.0408,5.6282,5.0321,0.0,0.0,0.0,0.0,0.0,0.0,0.0,0.0,0.0,0.0,0.0,0.0,0.0,0.0,0.0,0.0,0.0,0.0,0.0,0.0,0.0,0.0,0.0,0.0,0.0,0.0,2.8342,2.9084,2.8969,0.0,0.0,0.0,0.0,0.0,0.0,0.0,0.0,0.0,0.0,4.9189,5.196,5.3717,5.399,5.4303,5.5083,5.3795,5.2741,5.278,5.3288,5.1882,0.0,0.0,0.0,0.0,0.0,0.0,0.0,0.0,0.0,0.0,0.0,0.0,0.0,0.0,0.0,0.0,0.0,0.0,0.0,0.0,0.0,0.0,0.0,0.0,0.0,0.0,0.0,3.3356,3.114,0.0,0.0,0.0,0.0,0.0,0.0,0.0,0.0,0.0,0.0,0.0,4.245,4.4972,0.0,0.0,0.0,0.0,0.0,0.0,0.0,0.0,0.0,0.0,0.0,0.0,4.8296,5.4409,6.0026,6.3732,6.5337,6.5413,6.4611,6.293,6.0981,5.6396,4.8869,0.0,0.0,0.0,0.0,0.0,0.0,0.0,0.0,0.0,0.0,0.0,0.0,0.0,0.0,0.0,0.0,0.0,0.0,0.0,0.0,0.0,0.0,0.0,0.0,0.0,2.9982,0.0,0.0,0.0,0.0,0.0,0.0,0.0,0.0,0.0,0.0,0.0,4.5285,4.8408,5.1297,5.3561,5.4693,5.5357,5.563,0.0,0.0,0.0,0.0,0.0,0.0,0.0,0.0,0.0,0.0,0.0,0.0,0.0,0.0,4.8954,4.1225,3.9591,3.94,3.9369,0.0,0.0,0.0,0.0,0.0,0.0,0.0,0.0,0.0,0.0,0.0,0.0,0.0,0.0,0.0,0.0,3.5763,0.0,0.0,0.0,0.0,0.0,0.0,0.0,0.0,4.4781,4.7226,4.6768,4.9213,4.9098,0.0,4.6691,4.3558,0.0,0.0,0.0,0.0,0.0,0.0,0.0,0.0,4.9328,5.5632,6.079,6.4038,6.5337,6.5413,6.4611,6.293,6.0714,5.6396,4.9748,4.6309,4.2756,0.0,0.0,0.0,0.0,0.0,0.0,0.0,0.0,0.0,0.0,0.0,0.0,0.0,0.0,0.0,0.0,0.0,0.0,0.0,0.0,0.0,0.0,0.0,3.1582,0.0,0.0,0.0,0.0,0.0,0.0,0.0,0.0,0.0,4.0834,4.5051,4.9032,5.157,5.3639,5.5123,5.5669,0.0,0.0,0.0,0.0,0.0,0.0,0.0,5.2312,5.3405,5.2234,5.0906,5.0243,5.2312,5.3756,5.2858,0.0,0.0,4.6573,4.5168,4.5135,4.5143,4.6512,4.7569,4.734,4.8593,4.9453,0.0,0.0,0.0,0.0,0.0,0.0,0.0,0.0,4.1953,4.1839,0.0,4.0043,0.0,0.0,0.0,0.0,0.0,0.0,0.0,0.0,5.1238,5.3263,5.1888,5.269,5.2614,5.1926,5.3339,5.1505,4.6424,4.0157,0.0,0.0,0.0,0.0,0.0,0.0,5.0856,5.6664,6.1631,6.4573,6.5375,6.5413,6.4611,6.293,5.972,5.6396,5.311,5.1276,4.8067,4.3214,3.9737,0.0,0.0,0.0,0.0,0.0,0.0,0.0,0.0,0.0,0.0,0.0,0.0,0.0,0.0,0.0,0.0,0.0,0.0,0.0,0.0,3.291,0.0,0.0,0.0,0.0,0.0,0.0,0.0,0.0,0.0,0.0,4.5597,4.8993,5.2507,5.4966,0.0,0.0,0.0,0.0,5.6723,5.6762,5.6762,5.6801,5.6801,5.7348,5.7231,5.5786,0.0,0.0,5.3678,5.5201,5.6138,5.36,5.5474,5.6567,5.5591,5.3678,5.2624,5.2663,5.2667,5.3132,5.3994,5.4987,5.6163,5.0168,0.0,0.0,0.0,0.0,4.6577,4.8067,5.0436,4.9824,4.822,4.5965,4.5507,0.0,0.0,0.0,0.0,0.0,0.0,4.6806,4.8984,5.2499,5.4791,5.6167,5.8154,5.8039,5.6167,5.6587,5.4791,5.0971,4.7876,4.3176,3.7139,0.0,0.0,0.0,0.0,5.3989,5.9147,6.2548,6.4573,6.5375,6.5413,6.4611,6.293,6.0217,5.8039,5.6473,5.4256,5.1238,4.7455,4.4055,0.0,0.0,0.0,0.0,0.0,0.0,0.0,0.0,0.0,0.0,0.0,0.0,0.0,0.0,0.0,0.0,0.0,0.0,0.0,3.2792,3.3261,3.3805,0.0,0.0,0.0,0.0,0.0,0.0,0.0,0.0,0.0,5.2195,5.3951,5.5396,0.0,0.0,5.7933,5.6762,5.8128,5.93,5.93,0.0,0.0,0.0,5.9378,5.8987,5.9729,6.0783,6.1369,6.1017,6.1603,6.1837,6.1017,6.1564,6.1837,6.0822,5.7894,5.5864,5.6177,5.6333,5.6606,5.7465,5.8059,5.8371,5.7396,5.1916,5.0923,5.1658,5.3492,5.3187,5.4218,5.6014,5.5174,5.3683,5.1773,5.1123,4.8945,4.5698,4.4704,0.0,0.0,0.0,5.1047,5.3416,5.5594,5.7428,5.8956,6.0408,6.0523,5.9415,5.9376,5.8307,5.6282,5.525,5.1391,4.4895,0.0,0.0,4.8067,5.2193,5.6664,6.1211,6.3541,6.4917,6.5375,6.507,6.4267,6.293,6.1096,5.9568,5.8421,5.6893,5.4524,5.12,4.8143,4.3825,0.0,0.0,0.0,0.0,0.0,0.0,0.0,0.0,0.0,0.0,0.0,2.7203,0.0,0.0,0.0,0.0,3.1738,3.4549,3.6774,3.7906,0.0,0.0,0.0,0.0,0.0,0.0,0.0,4.9852,5.2468,5.4771,5.7035,5.8041,5.8465,5.8168,5.8987,5.9378,5.8714,0.0,6.1392,6.1408,6.2128,6.2662,6.2691,6.1827,6.1509,6.254,6.3164,6.3672,6.4179,6.4297,6.4297,6.4297,6.4297,6.414,6.3633,6.133,5.9651,5.9846,6.0159,6.0549,6.1056,6.1134,6.1174,6.3603,6.2542,5.9054,5.87,6.0485,5.9693,5.9349,5.9338,5.8536,5.8116,5.7886,5.632,5.5135,5.4142,5.2002,0.0,0.0,5.5097,5.7313,5.8268,5.9797,6.0523,6.0599,6.0676,6.1058,6.1707,6.1707,6.1669,6.1516,6.1478,5.9606,5.5861,5.1238,5.0741,5.4218,5.6167,5.9033,6.2968,6.4573,6.5413,6.5375,6.4535,6.3694,6.293,6.2013,6.0714,5.9185,5.9033,5.7542,5.4448,5.1811,4.7837,4.2259,0.0,0.0,0.0,0.0,0.0,0.0,0.0,0.0,0.0,0.0,0.0,0.0,0.0,0.0,0.0,3.7705,0.0,4.2552,4.4813,0.0,0.0,0.0,4.5437,4.587,4.8677,5.1293,5.3014,0.0,0.0,0.0,0.0,6.153,6.0817,6.07,6.0974,6.1715,6.2512,6.313,6.3193,6.3811,6.4341,6.4476,6.4353,6.4307,6.4448,6.4492,6.457,6.457,6.457,6.4531,6.4609,6.4492,6.4531,6.4492,6.4375,6.4258,6.336,6.3711,6.4179,6.4062,6.4023,6.3945,6.8111,6.7655,6.6327,6.4334,6.2064,6.1873,6.1857,6.1936,6.1096,6.0026,5.8765,5.7734,5.6816,5.6052,5.6702,5.7008,5.7122,5.8727,5.995,6.0714,6.1134,6.1669,6.2319,6.2968,6.3045,6.2624,6.2586,6.228,6.1593,6.0981,6.0485,6.0102,5.8918,5.7542,5.6205,5.9606,6.2204,6.3885,6.4879,6.5413,6.5337,6.3962,6.3121,6.2892,6.1478,6.0179,5.9147,5.8498,5.7504,5.6014,5.2996,4.9786,4.6424,4.031,0.0,0.0,0.0,0.0,0.0,0.0,0.0,0.0,0.0,3.5563,2.847,0.0,3.8206,0.0,4.111,4.4103,4.5242,4.5304,0.0,0.0,4.8972,4.9474,5.3362,5.4518,5.5645,5.7382,5.9456,6.1164,6.2194,6.3104,6.3578,6.3325,6.3286,6.313,6.2772,6.4001,6.4944,6.4964,6.5556,6.6148,6.6135,6.6193,6.6165,6.6209,6.6209,6.6209,6.617,6.6209,6.6209,6.6209,6.6209,6.6209,6.617,6.6209,6.6131,6.5858,6.5077,6.4297,6.4297,6.4336,6.4336,7.0064,6.983,6.8822,6.7051,6.5078,6.4423,6.4025,6.3802,6.2963,6.2184,6.1363,6.0905,5.9988,5.8918,6.0217,6.0561,6.0293,6.1134,6.1745,6.2166,6.2204,6.2433,6.2892,6.3388,6.3579,6.3465,6.3465,6.3427,6.3274,6.2853,6.2853,6.3274,6.3312,6.2357,6.0676,6.251,6.3885,6.4726,6.5184,6.5413,6.5375,6.4153,6.293,6.1822,6.0523,5.9071,5.7504,5.7008,5.6205,5.4944,5.2805,5.0474,4.7914,4.3176,3.9774,0.0,0.0,0.0,0.0,0.0,0.0,0.0,0.0,0.0,0.0,0.0,4.2164,0.0,0.0,0.0,5.066,5.1349,5.2792,5.5237,5.4865,5.5482,5.8006,5.8889,5.9818,6.1166,6.2194,6.313,6.3912,6.4474,6.4942,6.5202,6.528,6.4978,6.4349,6.5215,6.6065,6.6112,6.6416,6.6736,6.6775,6.6817,6.6795,6.6795,6.6795,6.6795,6.6795,6.6795,6.6795,6.6795,6.6795,6.6795,6.6795,6.6795,6.6795,6.6678,6.6053,6.5507,6.5429,6.539,6.5429,7.0893,7.0668,6.9128,6.85,6.848,6.7089,6.6021,6.5166,6.4367,6.4083,6.4161,6.4161,6.3359,6.2166,6.3006,6.3045,6.2471,6.3083,6.3388,6.3388,6.3388,6.3388,6.3388,6.3503,6.3885,6.4496,6.4496,6.484,6.5375,6.5413,6.5413,6.5413,6.549,6.5566,6.5528,6.4955,6.4917,6.5375,6.5413,6.5413,6.5375,6.4496,6.2853,6.0523,5.9453,5.7734,5.5212,5.5403,5.483,5.3225,5.2346,5.0971,4.8831,4.5965,4.398,0.0,4.1178,0.0,0.0,0.0,0.0,0.0,0.0,0.0,0.0,4.5974,4.7118,4.8452,5.2338,5.5376,5.6913,5.9134,6.0263,5.9767,6.0848,6.1393,6.0935,6.2065,6.3273,6.4169,6.4333,6.4653,6.5426,6.5582,6.5844,6.6373,6.6489,6.6213,6.5805,6.6156,6.6613,6.6767,6.6702,6.6702,6.6767,6.6817,6.6795,6.6795,6.6795,6.6795,6.6795,6.6795,6.6795,6.6795,6.6795,6.6795,6.6795,6.6795,6.6795,6.6795,6.6717,6.6678,6.6678,6.6639,6.6795,7.3108,7.2357,7.1419,7.063,6.9998,6.8988,6.7577,6.5834,6.5037,6.4419,6.3975,6.3937,6.4222,6.4726,6.5605,6.6254,6.6674,6.6216,6.5987,6.5987,6.5987,6.5987,6.6025,6.6636,6.6674,6.6254,6.6216,6.5948,6.5413,6.5413,6.5413,6.5413,6.6101,6.6483,0.0,0.0,0.0,0.0,6.5413,6.5413,6.5337,6.3923,6.2242,6.0446,5.8918,0.0,5.3569,5.525,5.5938,5.4944,5.4104,0.0,0.0,0.0,0.0,0.0,0.0,0.0,0.0,0.0,0.0,0.0,5.0646,4.8846,4.7223,5.1986,5.5041,5.483,5.7881,6.0125,6.0497,6.0973,6.1779,6.2951,6.2764,6.2674,6.3302,6.3631,6.4126,6.5026,6.5163,6.5494,6.619,6.6449,6.6537,6.6606,6.6669,6.6602,6.6462,6.6602,6.6702,6.6722,6.6818,6.6761,6.6775,6.685,6.6946,6.6795,6.6795,6.6834,6.6912,6.6834,6.6834,6.6834,6.6795,6.6834,6.6795,6.6795,6.6873,6.6795,6.6834,6.6795,6.6795,6.6795,6.6795,7.3613,0.0,7.2529,7.2057,0.0,0.0,6.9256,6.8181,6.6636,6.5381,6.4514,6.4932,6.5258,6.5452,6.6292,6.6942,6.7286,6.6904,6.6713,6.6674,6.6254,6.6063,6.6063,6.6483,6.6674,6.6713,6.6713,6.6674,6.6636,6.6636,6.6636,6.6636,6.7095,6.7286,6.7286,6.7286,6.6865,6.6063,6.6063,6.5834,6.5375,6.377,6.1898,5.9835,0.0,0.0,0.0,0.0,0.0,0.0,0.0,0.0,0.0,0.0,0.0,5.108,5.1222,5.1382,5.1532,5.3236,5.5204,5.734,5.791,5.673,5.3319,5.7405,5.997,5.9631,6.2185,6.374,6.3366,6.3703,6.417,6.4584,6.4208,6.4131,6.4584,6.4986,6.5414,6.5842,6.5944,6.6139,6.6503,6.6618,6.6836,6.7139,6.7217,6.7399,6.7749,6.7515,6.7372,6.7825,6.7938,6.7969,6.795,6.7976,6.7992,6.7992,6.8007,6.806,6.8021,6.7682,6.742,6.7459,6.7459,6.7342,6.6912,6.7107,6.7459,6.7459,6.7459,6.7615,6.7888,6.742,6.6795,7.3553,7.3616,7.3269,7.3108,7.3033,7.1719,7.0968,7.0555,0.0,0.0,0.0,6.5897,6.5917,6.565,6.6459,6.6949,6.7133,6.7171,6.7133,6.7133,6.6407,6.6063,6.6063,6.6216,6.6598,6.7133,6.7133,6.74,6.7897,6.7897,6.7897,6.7897,6.805,6.8126,6.805,6.7324,6.6827,6.6713,6.656,6.6139,6.5375,6.3923,6.1975,5.9606,5.8612,5.6587,5.3416,5.4256,5.3722,5.1582,5.2996,5.3607,5.3034,5.4104,5.5542,5.7213,5.8273,5.9051,5.9487,6.1128,6.1924,6.1497,6.3595,6.357,6.0475,6.2302,6.3673,6.3828,6.5732,6.6664,6.5965,6.6353,6.6431,6.5732,6.5537,6.5421,6.5498,6.6198,6.6703,6.6742,6.6917,6.7009,6.7029,6.7086,6.7294,6.786,6.8054,6.8365,6.9031,6.8589,6.8278,6.8916,6.8978,6.9128,6.9177,6.9158,6.9226,6.9089,6.9194,6.9327,6.9217,6.8769,6.839,6.8318,6.8318,6.8044,6.7498,6.7888,6.8318,6.8357,6.8318,6.8552,6.9059,6.8279,6.7381,7.374,7.4066,7.4001,7.4009,7.4009,7.3784,7.2845,7.1306,6.8194,6.6817,6.6673,6.5389,6.5381,6.6298,6.7098,6.7997,6.8814,6.8852,6.8852,0.0,6.8699,6.8661,6.8699,6.9387,6.9387,6.889,6.8852,6.8508,6.7935,6.7897,6.7897,6.8012,6.8623,6.9005,6.8967,6.8165,6.74,6.6713,6.5948,6.5528,6.5375,6.4496,6.3121,6.1325,5.9759,5.7734,5.5212,5.6549,5.6855,5.5823,5.7313,5.8192,5.8039,5.7619,5.7877,5.898,6.0008,6.1254,6.2874,6.4039,6.5265,6.6625,6.7752,6.7519,6.5669,6.6431,6.7402,6.8101,6.8451,6.8684,6.8529,6.7985,6.7635,6.7402,6.6742,6.6353,6.6392,6.7091,6.7635,6.7635,6.8296,6.8661,6.8583,6.8667,6.8695,6.8909,6.9041,6.9303,6.9857,6.9483,6.9097,6.9163,6.9173,6.9226,6.944,6.9341,6.9497,6.936,6.9471,6.9595,6.9588,6.9366,6.9215,6.9215,6.9215,6.9137,6.8942,6.9098,6.9215,6.9215,6.9215,6.9333,6.9567,6.9255,6.902,7.349,7.354,7.4009,7.4197,7.4197,7.4197,7.3784,7.2845,7.0517,6.8805,6.765,6.6935,6.6521,6.6459,6.7254,6.7697,6.7859,6.8776,6.9196,6.9234,6.9655,6.9846,6.9884,7.0228,7.0228,6.9884,6.9846,6.9655,6.9273,6.9273,6.9273,6.9234,6.9234,6.8738,6.7859,6.7439,6.6827,6.6025,6.6063,6.5872,6.5413,6.4611,6.3579,6.2319,6.1554,6.0217,5.823,5.9262,5.93,5.8001,5.9568,6.0255,5.9835,6.0752,6.136,6.1492,6.2837,6.4054,6.4986,6.6484,6.7635,6.8451,6.9267,6.9461,6.8645,6.8529,6.8684,6.9072,6.9461,6.9578,6.9189,6.915,6.915,6.915,6.8412,6.8101,6.8451,6.8451,6.849,6.8529,6.8839,6.9111,6.9111,6.9142,6.9352,6.9655,7.0114,7.0635,7.0937,7.0697,7.0494,7.0494,7.0523,7.0512,7.0512,7.0598,7.063,7.0639,7.0684,7.0746,7.0714,7.0453,7.0152,7.0113,7.0113,6.9918,6.9567,6.984,7.0035,7.0113,7.0113,7.023,7.0621,7.0816,7.0504,7.3803,7.3643,7.4212,7.4385,7.4197,7.4197,7.4197,7.4047,7.2808,7.1169,6.9416,6.8779,6.7883,6.6967,6.7686,6.7791,6.7616,6.8826,6.9513,6.9704,7.0004,7.0228,7.0342,7.0228,7.0228,7.0381,7.0419,7.0419,7.0419,7.0419,7.0304,7.0037,6.912,6.7973,6.6713,6.6522,6.6063,6.549,6.6063,6.6063,6.5413,6.4764,6.4229,6.3809,6.3579,6.2853,6.1631,6.1936,6.1516,6.0179,6.1402,6.1898,6.1402,6.3083,6.4078,6.3924,6.5139,6.629,6.7097,6.8679,6.9733,6.9966,7.0549,7.0976,7.1093,7.0626,7.016,7.0083,7.0626,7.0665,7.0238,7.0316,7.051,7.0316,6.9578,6.9228,6.9849,6.9616,6.9383,6.9383,6.9539,6.9694,6.9655,6.9655,6.9966,7.0588,7.117,7.1559,7.1598,7.1598,7.1598,7.1598,7.1614,7.1544,7.1645,7.164,7.1641,7.1719,7.177,7.1737,7.1714,7.1351,7.1045,7.1011,7.1011,7.0777,7.023,7.0504,7.0933,7.0972,7.0972,7.1167,7.1714,7.1831,7.1597,7.5291,7.5537,7.5357,7.4836,7.4272,7.4235,7.4235,7.4197,7.4009,7.3446,7.2215,7.0104,6.8847,6.8256,6.8977,6.9322,6.9436,6.9847,7.0411,7.0941,6.9895,6.9693,7.0419,6.9731,6.9693,7.0381,7.0457,7.0457,7.0419,7.0419,7.0037,6.9196,6.7706,6.6942,6.6636,6.591,6.549,6.5413,6.549,6.549,6.5413,6.5337,6.5605,6.633,6.5566,6.5108,6.484,6.4305,6.3541,6.2739,6.3465,6.3923,6.3847,6.4114,6.4614,6.5383,6.5705,6.6882,6.9438,7.0735,7.1675,7.2452,7.253,7.2918,7.3579,7.3657,7.3346,7.2647,7.253,7.2452,7.253,7.187,7.117,7.0588,6.9772,6.915,6.9461,6.9811,7.0199,7.0199,7.0782,7.1365,7.117,7.117,7.1287,7.1287,7.1442,7.1598,7.1598,7.1598,7.1598,7.1614,7.1661,7.1718,7.177,7.1806,7.1806,7.1858,7.1876,7.1901,7.1884,7.1897,7.1831,7.1636,7.1753,7.1636,7.1675,7.1831,7.1792,7.1675,7.1714,7.187,7.1987,7.1987,7.1792,7.5328,7.5568,7.5641,7.5694,7.5539,7.5136,7.4911,7.4873,7.4385,7.4009,7.3596,7.2583,7.1244,6.98,7.0101,7.0191,7.0041,7.0606,7.1131,7.1578,7.1455,7.1642,7.1871,7.1603,7.1412,7.1183,7.1183,7.0916,7.0495,7.0419,6.9999,6.9158,6.7973,6.7171,6.6674,6.5834,6.5413,6.5413,6.591,6.591,6.5528,6.591,6.633,6.6674,6.6827,6.6865,6.6865,6.6522,6.6216,6.591,6.6178,6.6139,6.5719,6.6598,6.7118,6.7131,6.8551,6.9975,7.1294,7.2383,7.3142,7.3472,7.3604,7.3657,7.3424,7.3424,7.3268,7.2996,7.2918,7.2724,7.2219,7.1792,7.1636,7.1675,7.1093,7.0743,7.1326,7.117,7.1054,7.1093,7.1365,7.1598,7.1598,7.1598,7.1598,7.1598,7.1598,7.1598,7.1598,7.1598,7.1598,7.1598,7.163,7.1661,7.1665,7.1745,7.177,7.1755,7.1788,7.1867,7.1909,7.1955,7.1924,7.1982,7.1987,7.1987,7.1909,7.1987,7.1987,7.1987,7.1987,7.1987,7.1987,7.1987,7.1987,7.588,7.6013,7.6319,7.6493,7.6563,7.6,7.5624,7.5324,7.476,7.4423,7.4197,7.4197,7.3312,7.1864,7.1487,7.1206,7.0953,7.1371,7.1787,7.2086,7.2459,7.2681,7.2872,7.2711,7.2444,7.21,7.2062,7.1718,7.1145,7.0839,7.0457,6.9807,6.9005,6.8279,6.7706,6.7056,6.6789,6.6865,6.7439,6.7286,6.6751,6.7515,6.7744,6.7171,6.7591,6.8012,6.8241,6.8241,6.8241,6.8241,6.8241,6.8088,6.7821,6.889,6.9349,6.9152,7.0861,7.2188,7.2558,7.3412,7.3893,7.3893,7.4072,7.3929,7.3424,7.3268,7.3152,7.2918,7.2918,7.2608,7.2103,7.1947,7.218,7.2491,7.1947,7.1908,7.2336,7.1947,7.1559,7.1598,7.1559,7.1598,7.1598,7.1598,7.1598,7.1598,7.1598,7.1598,7.1598,7.1598,7.1598,7.1598,7.1598,7.1598,7.1598,7.1645,7.1651,7.1718,7.177,7.1817,7.1876,7.1893,7.1909,7.1982,7.1982,7.1987,7.1987,7.1987,7.1987,7.1987,7.1987,7.1987,7.1987,7.1987,7.1987,7.7599,7.7567,7.7751,7.734,7.6638,7.66,7.6112,7.5549,7.5361,7.4948,7.431,7.4235,7.416,7.3859,7.3079,7.2816,7.2673,7.2251,7.2491,7.2986,7.2168,7.1936,7.2543,7.2071,7.2215,7.2868,7.2941,7.2864,7.2711,7.2024,7.1642,7.1527,7.0648,7.0228,7.0075,6.9922,7.0113,6.9846,6.996,6.9769,6.9234,7.0533,7.0151,6.8241,6.7973,6.8508,6.912,6.9196,6.9196,6.9196,6.9234,6.9502,7.0113,7.0304,7.0724,7.1445,7.1896,7.2438,7.3217,7.3688,7.3932,7.3915,7.4072,7.4162,7.3929,7.389,7.354,7.2957,7.288,7.2841,7.2763,7.2569,7.2336,7.1831,7.1675,7.1636,7.1675,7.1714,7.1598,7.1598,7.1598,7.1598,7.1598,7.1598,7.1598,7.1598,7.1598,7.1598,7.1598,7.1598,7.1598,7.1598,7.1598,7.1598,7.1598,7.163,7.1661,7.1704,7.1745,7.1782,7.1848,7.1893,7.1955,7.1976,7.1982,7.1987,7.1987,7.1987,7.1987,7.1987,7.1987,7.1987,7.1987,7.1987,7.1987,7.7169,7.7768,7.8387,7.8478,7.8177,7.7652,7.7276,7.6938,7.6413,7.5737,7.5061,7.4948,7.4685,7.4197,7.3897,7.3801,7.3898,7.3684,7.385,7.4165,7.3759,7.3762,7.3952,7.3953,7.3758,7.3568,7.3674,7.3514,7.3017,7.2635,7.252,7.2367,7.1642,7.1221,7.1145,7.0686,7.0419,7.0457,7.0916,7.0839,7.019,7.1107,7.1221,7.0457,7.0877,7.1298,7.1603,7.1642,7.1642,7.1642,7.1642,7.1489,7.1298,7.1756,7.2505,7.3399,7.4098,7.4379,7.4318,7.4533,7.4436,7.3971,7.4072,7.4006,7.3501,7.3346,7.2996,7.2413,7.2685,7.288,7.2802,7.2413,7.1947,7.1675,7.1598,7.1675,7.1598,7.1598,7.1598,7.1598,7.1598,7.1598,7.1598,7.1598,7.1598,7.1598,7.1598,7.1598,7.1598,7.1598,7.1598,7.1598,7.1598,7.1614,7.1675,7.1675,7.169,7.1718,7.1719,7.1817,7.1876,7.1885,7.1909,7.1976,7.1987,7.1987,7.1987,7.1987,7.1987,7.1987,7.1987,7.1987,7.1987,7.1987,7.1987,7.7292,7.8165,7.8827,7.9116,7.9041,7.8515,7.814,7.7839,7.7276,7.6563,7.5849,7.5511,7.5061,7.461,7.431,7.4289,7.4387,7.4387,7.4476,7.4611,7.4653,7.4695,7.4737,7.5017,7.4905,7.4447,7.4516,7.4316,7.3858,7.3781,7.3819,7.3781,7.317,7.2902,7.2826,7.2329,7.2062,7.2176,7.2635,7.252,7.1871,7.2482,7.2788,7.2673,7.3323,7.3514,7.3055,7.2979,7.3132,7.3323,7.3361,7.3246,7.3017,7.3476,7.3992,7.452,7.5011,7.5216,7.4899,7.4982,7.4862,7.4397,7.4732,7.4667,7.3851,7.3734,7.354,7.3424,7.3424,7.3773,7.3967,7.3657,7.3035,7.2608,7.2452,7.2452,7.2452,7.2452,7.2336,7.2142,7.2103,7.1947,7.1636,7.1598,7.1598,7.1598,7.1598,7.1598,7.1598,7.1598,7.1598,7.1598,7.1598,7.163,7.169,7.1732,7.1745,7.1731,7.1755,7.1848,7.1876,7.1893,7.1909,7.1976,7.1987,7.1987,7.1987,7.1987,7.1987,7.1987,7.1987,7.1987,7.1987,7.1987,7.1987,7.8202,7.8929,7.9116,7.9116,7.9116,7.9004,7.8628,7.8027,7.7915,7.7426,7.66,7.5887,7.5587,7.5286,7.476,7.4347,7.4506,7.4544,7.4394,7.4289,7.4432,7.4482,7.4563,7.4977,7.5209,7.5132,7.5354,7.5424,7.5271,7.5233,7.5236,7.5386,7.516,7.4969,7.5348,7.5004,7.5195,7.508,7.5042,7.4813,7.4393,7.4775,7.4736,7.4201,7.4813,7.4469,7.3093,7.3093,7.3552,7.4125,7.424,7.4622,7.5004,7.5233,7.514,7.4635,7.4589,7.4668,7.4887,7.5144,7.527,7.5253,7.6031,7.6104,7.5482,7.5366,7.556,7.591,7.5793,7.5754,7.6298,7.6337,7.5754,7.4511,7.4123,7.4045,7.4123,7.4123,7.3851,7.3113,7.2918,7.253,7.1908,7.1753,7.1792,7.1792,7.1675,7.1598,7.1598,7.1598,7.1598,7.1598,7.1598,7.163,7.1704,7.1731,7.1806,7.1827,7.1799,7.1867,7.1893,7.1909,7.1963,7.1982,7.1987,7.1987,7.1987,7.1987,7.1987,7.1987,7.1987,7.1987,7.1987,7.1987,7.1987,7.8053,7.8633,7.8979,7.9116,7.9116,7.9116,7.8928,7.8741,7.8703,7.829,7.7539,7.7239,7.6788,7.63,7.5962,7.5887,7.5924,7.5849,7.5286,7.4431,7.4425,7.4557,7.4644,7.5015,7.5284,7.5394,7.5465,7.5501,7.5465,7.532,7.5284,7.5284,7.5246,7.5284,7.5245,7.543,7.5501,7.5501,7.5501,7.5348,7.5119,7.5348,7.5042,7.4354,7.4469,7.4087,7.3132,7.4087,7.4813,7.5004,7.508,7.4966,7.4775,7.5195,7.5277,7.4917,7.532,7.5748,7.6066,7.6148,7.6187,7.6264,7.6591,7.657,7.6376,7.6376,7.6493,7.6842,7.6959,7.7192,7.6881,7.727,7.7036,7.6026,7.5444,7.5094,7.5016,7.4589,7.4123,7.389,7.3812,7.3657,7.3346,7.2957,7.2491,7.2452,7.2064,7.1714,7.1636,7.1675,7.1598,7.1598,7.1614,7.1661,7.1719,7.1817,7.1848,7.1876,7.1893,7.1893,7.1916,7.1963,7.1976,7.1982,7.1987,7.1987,7.1987,7.1987,7.1987,7.1987,7.1987,7.1987,7.1987,7.1987,7.1987,7.8053,7.8686,7.8979,7.9116,7.9116,7.9116,7.9116,7.9116,7.9116,7.8816,7.8365,7.799,7.7614,7.7089,7.6751,7.6638,7.6675,7.6638,7.6075,7.5258,7.5329,7.5381,7.5381,7.5766,7.6161,7.6306,7.6112,7.5733,7.5356,7.4941,7.4562,7.4334,7.4182,7.4219,7.4332,7.4404,7.4476,7.4545,7.4545,7.4545,7.4545,7.4545,7.4316,7.3819,7.3743,7.3476,7.3132,7.4049,7.4545,7.4545,7.4545,7.4393,7.424,7.4762,7.5211,7.5463,7.5851,7.6444,7.7078,7.7135,7.7347,7.7619,7.7969,7.8163,7.8163,7.8163,7.8163,7.828,7.8318,7.828,7.7891,7.8085,7.8202,7.7736,7.6609,7.6026,7.5871,7.5482,7.5016,7.4822,7.4667,7.455,7.4123,7.3812,7.3385,7.3268,7.2918,7.2336,7.2219,7.2103,7.2002,7.1824,7.1661,7.1693,7.1827,7.1867,7.1885,7.1916,7.1976,7.1976,7.1982,7.1982,7.1987,7.1987,7.1987,7.1987,7.1987,7.1987,7.1987,7.1987,7.1987,7.1987,7.1987,7.1987,7.1987,7.8275,7.9066,7.9116,7.9116,7.9116,7.9116,7.9116,7.9116,7.9116,7.9079,7.8891,7.8365,7.799,7.7802,7.7314,7.7051,7.6863,7.6976,7.6976,7.6836,7.6948,7.6919,7.6572,7.689,7.7222,7.7493,7.7033,7.6273,7.559,7.4943,7.3725,7.3459,7.3269,7.2813,7.3298,7.292,7.3031,7.3246,7.317,7.317,7.3208,7.3361,7.3284,7.3284,7.3476,7.3514,7.3437,7.359,7.3399,7.3132,7.3552,7.4049,7.4236,7.4542,7.5447,7.6172,7.6413,7.725,7.7893,7.828,7.859,7.9406,8.0028,8.0688,8.0416,8.0183,8.0067,8.0105,7.96,7.9134,7.9018,7.8979,7.894,7.8862,7.7541,7.6803,7.6687,7.6609,7.6182,7.5677,7.5521,7.5327,7.4628,7.4434,7.4278,7.4239,7.4084,7.354,7.319,7.288,7.2578,7.236,7.2235,7.2121,7.2316,7.1915,7.1932,7.1969,7.1987,7.2026,7.1987,7.1987,7.1987,7.1987,7.1987,7.1987,7.1987,7.1987,7.1987,7.1987,7.1987,7.1987,7.1987,7.2026,7.2076,7.8581,7.9116,7.9116,7.9116,7.9116,7.9116,7.9116,7.9116,7.9116,7.9116,7.9041,7.8891,7.8741,7.8741,7.8515,7.8478,7.8365,7.8365,7.844,7.8489,7.8681,7.8157,7.7332,7.7235,7.74,7.7524,7.7455,7.7149,7.6759,7.6463,7.6007,7.5203,7.4485,7.4106,7.3722,7.3257,7.2983,7.2979,7.3017,7.3055,7.3246,7.424,7.4507,7.4049,7.5004,7.5233,7.4889,7.4813,7.4507,7.4049,7.5119,7.5462,7.5306,7.6344,7.7053,7.7202,7.7867,7.8783,7.9602,7.9872,8.03,8.1077,8.1193,8.1582,8.1543,8.096,8.0649,8.0455,7.9834,7.9018,7.8513,7.8318,7.8085,7.7541,7.7425,7.727,7.6842,7.6687,7.657,7.6415,7.6337,7.6143,7.591,7.5482,7.5172,7.5055,7.4706,7.4239,7.3984,7.3829,7.3628,7.3479,7.3327,7.3013,7.2716,7.2188,7.1979,7.1976,7.2026,7.2026,7.2026,7.1987,7.1987,7.1987,7.1987,7.1987,7.1987,7.1987,7.1987,7.2104,7.2143,7.2221,7.2104,7.2065,7.2163,7.8686,7.9116,7.9116,7.9116,7.9116,7.9116,7.9116,7.9116,7.9116,7.9116,7.9116,7.9116,7.9116,7.9116,7.9079,7.9116,7.9116,7.9116,7.9079,7.9079,7.9188,7.8896,7.8441,7.8296,7.8252,7.8306,7.8172,7.783,7.7286,7.7141,7.6536,7.5661,7.5165,7.479,7.4633,7.4175,7.3979,7.4049,7.4049,7.4049,7.4163,7.4966,7.5157,7.4927,7.573,7.5921,7.5539,7.5806,7.5615,7.5119,7.5653,7.6182,7.6317,7.7232,7.8122,7.849,7.9299,8.0107,8.0903,8.1154,8.1193,8.131,8.1349,8.1154,8.0766,8.03,7.9989,7.9445,7.9018,7.8357,7.7658,7.7464,7.7192,7.692,7.7153,7.7231,7.6726,7.6687,7.6687,7.6687,7.6687,7.6687,7.6687,7.6259,7.6065,7.5949,7.5677,7.5228,7.4872,7.4833,7.467,7.4431,7.4209,7.3846,7.3688,7.3282,7.3009,7.2879,7.2573,7.2495,7.2221,7.2182,7.1987,7.1987,7.1987,7.1987,7.1987,7.2104,7.23,7.2378,7.2417,7.269,7.2768,7.2666,7.272,7.8686,7.9116,7.9116,7.9116,7.9116,7.9116,7.9116,7.9116,7.9116,7.9116,7.9116,7.9116,7.9116,7.9116,7.9116,7.9116,7.9116,7.9116,7.9116,7.9116,7.9165,7.9171,7.9335,7.9207,7.9244,7.9349,7.9077,7.8466,7.7846,7.7055,7.6344,7.6044,7.5422,7.5205,7.5396,7.5281,7.532,7.531,7.5195,7.5195,7.531,7.573,7.5997,7.6036,7.6494,7.6647,7.6609,7.6838,7.6914,7.6112,7.5956,7.6629,7.7354,7.767,7.8657,7.9989,8.0531,8.1019,8.1543,8.1504,8.1271,8.0649,8.0455,8.0183,7.9639,7.9328,7.894,7.8396,7.7969,7.7541,7.7036,7.6764,7.6764,7.6726,7.6764,7.6726,7.6687,7.6687,7.6687,7.6687,7.6687,7.6687,7.6687,7.6687,7.6648,7.6376,7.6238,7.6038,7.5759,7.5712,7.5495,7.5179,7.4909,7.4671,7.4538,7.4441,7.4246,7.4056,7.3588,7.3275,7.2768,7.2534,7.2143,7.1987,7.1987,7.1987,7.2026,7.2182,7.2573,7.2885,7.308,7.3666,7.414,7.3849,7.3745,7.8979,7.9116,7.9116,7.9116,7.9116,7.9116,7.9116,7.9116,7.9116,7.9116,7.9116,7.9116,7.9116,7.9116,7.9116,7.9116,7.9116,7.9116,7.9116,7.9116,7.9116,7.9165,7.9273,7.9214,7.9263,7.9246,7.9358,7.9093,7.8737,7.8836,7.8818,7.7862,7.734,7.6959,7.6535,7.6115,7.5465,7.5539,7.5615,7.5768,7.6112,7.6953,7.7449,7.7564,7.8557,7.9283,7.9398,7.9589,7.9589,7.9394,7.8922,7.8667,7.9062,7.9918,8.0585,8.0988,8.1349,8.1349,8.0999,8.0882,8.0494,7.9717,7.9562,7.9484,7.9328,7.859,7.8241,7.7852,7.7425,7.6998,7.6764,7.6687,7.6687,7.6687,7.6687,7.6687,7.6687,7.6687,7.6687,7.6687,7.6687,7.6687,7.6687,7.6687,7.6687,7.6726,7.6721,7.6676,7.6567,7.6494,7.6259,7.5893,7.5725,7.5514,7.5449,7.5305,7.5071,7.4876,7.4486,7.4017,7.351,7.3041,7.269,7.2339,7.1987,7.2104,7.2534,7.2768,7.3275,7.351,7.3861,7.4413,7.4813,7.4718,7.4844,7.9116,7.9116,7.9116,7.9116,7.9116,7.9116,7.9116,7.9116,7.9116,7.9116,7.9116,7.9116,7.9116,7.9116,7.9116,7.9116,7.9116,7.9116,7.9116,7.9116,7.9116,7.9116,7.9116,7.9116,7.9116,7.9128,7.9369,7.9453,7.9554,7.974,7.9692,7.9508,7.9171,7.8904,7.8557,7.7946,7.7984,7.7984,7.7831,7.7831,7.8061,7.8634,7.9169,7.9245,8.0009,8.0506,8.043,8.043,8.0503,8.0531,8.0421,8.0346,8.0414,8.104,8.1507,8.1656,8.133,8.1154,8.0649,8.0183,7.96,7.8746,7.8668,7.8435,7.8163,7.7619,7.7464,7.7308,7.6998,7.6687,7.6687,7.6687,7.6687,7.6687,7.6726,7.6687,7.6687,7.6687,7.6687,7.6687,7.6687,7.6687,7.6687,7.6687,7.6687,7.6726,7.677,7.6762,7.6794,7.6765,7.6858,7.6622,7.6482,7.6379,7.6354,7.6125,7.5774,7.554,7.5227,7.4759,7.4212,7.3744,7.3315,7.308,7.2924,7.3236,7.3588,7.3783,7.4056,7.4603,7.4999,7.5277,7.5571,7.5819,7.597,7.9116,7.9116,7.9116,7.9116,7.9116,7.9116,7.9116,7.9116,7.9116,7.9116,7.9116,7.9116,7.9116,7.9116,7.9116,7.9116,7.9116,7.9116,7.9116,7.9116,7.9116,7.9116,7.9116,7.9116,7.9116,7.9165,7.9311,7.9462,7.9645,7.9784,7.9996,8.0277,8.0315,8.0049,8.0353,8.043,8.0086,7.9971,7.9933,8.0009,8.0086,8.0238,8.0277,8.0315,8.0391,8.0506,8.0506,8.0543,8.0578,8.0811,8.0945,8.1021,8.1103,8.1412,8.1613,8.1854,8.1154,8.061,8.0144,7.9562,7.8746,7.7891,7.7813,7.7503,7.6998,7.6881,7.6842,7.6881,7.6842,7.6998,7.692,7.727,7.7192,7.6998,7.692,7.6842,7.6726,7.6687,7.6687,7.6687,7.6687,7.6687,7.6687,7.6687,7.6687,7.676,7.6786,7.6858,7.6921,7.6975,7.7012,7.7028,7.6841,7.6777,7.675,7.6672,7.636,7.6203,7.593,7.5618,7.5188,7.511,7.4798,7.429,7.4173,7.433,7.4447,7.4564,7.4954,7.5657,7.6024,7.6154,7.652,7.695,7.6892,7.9116,7.9116,7.9116,7.9116,7.9116,7.9116,7.9116,7.9116,7.9116,7.9116,7.9116,7.9116,7.9116,7.9116,7.9116,7.9116,7.9116,7.9116,7.9116,7.9116,7.9116,7.9116,7.9116,7.9116,7.9116,7.9116,7.9214,7.9406,7.9554,7.9734,8.0034,8.0235,8.0392,8.0468,8.0506,8.0506,8.0506,8.0506,8.0506,8.0506,8.0506,8.0506,8.043,8.0391,8.0353,8.0315,8.0353,8.043,8.0614,8.0773,8.0337,8.0292,8.0508,8.1209,8.1582,8.1446,8.0805,8.0067,7.9523,7.8707,7.7813,7.7153,7.7075,7.7075,7.6842,7.6803,7.7036,7.7114,7.7464,7.7813,7.7813,7.8241,7.8357,7.8046,7.7658,7.7464,7.6959,7.6726,7.6726,7.6687,7.6687,7.6687,7.6687,7.6687,7.6721,7.6754,7.6844,7.6885,7.6933,7.6995,7.7036,7.7043,7.7043,7.7011,7.7023,7.6984,7.6867,7.6789,7.6633,7.6633,7.6438,7.6672,7.6399,7.554,7.4993,7.4837,7.4993,7.5305,7.5579,7.6047,7.6501,7.6868,7.6952,7.7028,7.7,7.9116,7.9116,7.9116,7.9116,7.9116,7.9116,7.9116,7.9116,7.9116,7.9116,7.9116,7.9116,7.9116,7.9116,7.9116,7.9116,7.9116,7.9116,7.9116,7.9116,7.9116,7.9116,7.9116,7.9116,7.9214,7.9263,7.9311,7.9416,7.9645,7.9908,8.0116,8.0354,8.0468,8.0506,8.0506,8.0506,8.0506,8.0506,8.0506,8.0468,8.0468,8.0468,8.0315,7.9933,7.9818,7.9665,7.9245,7.9207,7.9344,7.9515,7.9384,7.9443,7.977,8.0126,8.0533,8.0416,7.9795,7.9173,7.859,7.7852,7.7308,7.7464,7.7386,7.7658,7.7891,7.8124,7.7969,7.8124,7.8241,7.8668,7.8707,7.9134,7.9018,7.8707,7.8357,7.7891,7.7425,7.6998,7.6803,7.6726,7.6687,7.6687,7.6687,7.6704,7.6738,7.6801,7.6885,7.6921,7.6965,7.7012,7.7056,7.705,7.7089,7.7095,7.7101,7.7101,7.7101,7.7101,7.7101,7.7101,7.7101,7.7062,7.6867,7.636,7.593,7.554,7.593,7.636,7.6399,7.6438,7.6727,7.6977,7.7029,7.7028,7.6995,7.9116,7.9116,7.9116,7.9116,7.9116,7.9116,7.9116,7.9116,7.9116,7.9116,7.9116,7.9116,7.9116,7.9116,7.9116,7.9116,7.9116,7.9116,7.9116,7.9116,7.9116,7.9116,7.9116,7.9165,7.9214,7.9453,7.9509,7.9645,7.9865,8.0072,8.0314,8.0431,8.0506,8.0506,8.0506,8.0506,8.0506,8.0468,8.0277,8.02,8.0047,7.9971,7.9742,7.9092,7.9016,7.871,7.829,7.8247,7.8442,7.8604,7.8605,7.8626,7.8923,7.8862,7.8785,7.8668,7.8241,7.8085,7.7852,7.758,7.7425,7.7775,7.8124,7.859,7.894,7.9018,7.9134,7.9328,7.9523,7.9562,7.96,7.9795,7.9756,7.9484,7.8979,7.8357,7.7891,7.7425,7.6998,7.6881,7.6764,7.6687,7.6704,7.6738,7.6786,7.6858,7.6921,7.6975,7.7004,7.7028,7.7095,7.7101,7.7101,7.7101,7.7101,7.7101,7.7101,7.7101,7.7101,7.7101,7.7101,7.7062,7.6906,7.675,7.6789,7.6555,7.6984,7.7101,7.6906,7.6828,7.699,7.7094,7.7031,7.7019,7.7017,7.9116,7.9116,7.9116,7.9116,7.9116,7.9116,7.9116,7.9116,7.9116,7.9116,7.9116,7.9116,7.9116,7.9116,7.9116,7.9116,7.9116,7.9116,7.9116,7.9116,7.9116,7.9116,7.9116,7.9116,7.9311,7.9509,7.969,7.9908,8.0113,8.0195,8.0276,8.0392,8.0353,8.043,8.0124,8.0124,8.0506,8.0315,7.978,7.9092,7.8557,7.8443,7.8366,7.8213,7.8137,7.8022,7.7753,7.7816,7.8077,7.8304,7.8012,7.7926,7.801,7.7386,7.7114,7.7231,7.7541,7.8008,7.7891,7.7775,7.7813,7.8241,7.8707,7.9095,7.9523,7.96,7.96,7.9328,7.995,8.0416,8.0572,8.1077,8.1038,8.0688,8.0144,7.9212,7.8435,7.7813,7.7386,7.6916,7.6721,7.6721,7.6721,7.677,7.683,7.6897,7.6965,7.7012,7.7082,7.7095,7.7101,7.7101,7.7101,7.7101,7.7101,7.7101,7.7101,7.7101,7.7101,7.7101,7.7101,7.7101,7.7101,7.7023,7.7101,7.7101,7.7101,7.7101,7.7101,7.7107,7.7073,7.7064,7.7026,7.7005,7.7011,7.9116,7.9116,7.9116,7.9116,7.9116,7.9116,7.9116,7.9116,7.9116,7.9116,7.9116,7.9116,7.9116,7.9116,7.9116,7.9116,7.9116,7.9116,7.9116,7.9116,7.9116,7.9116,7.9116,7.9116,7.9273,7.96,7.9822,8.0034,8.0237,8.0316,8.0278,7.9856,7.978,7.9474,7.9321,7.913,7.9054,7.8939,7.871,7.8404,7.8099,7.7946,7.7755,7.7296,7.7258,7.7067,7.6797,7.6675,7.6893,7.7081,7.688,7.6969,7.7118,7.692,7.6726,7.6803,7.7541,7.7697,7.7386,7.7775,7.828,7.8862,7.9523,8.0222,8.061,8.0727,8.0688,8.0805,8.1077,8.1271,8.131,8.1659,8.1621,8.1387,8.0921,7.995,7.894,7.828,7.7714,7.7204,7.677,7.677,7.6786,7.683,7.6846,7.6944,7.6985,7.702,7.7082,7.7095,7.7101,7.7101,7.7101,7.7101,7.7101,7.7101,7.7101,7.7101,7.7101,7.7101,7.7101,7.7101,7.7101,7.7101,7.7101,7.7101,7.7101,7.7101,7.7101,7.7107,7.7078,7.7064,7.7031,7.698,7.699,7.9116,7.9116,7.9116,7.9116,7.9116,7.9116,7.9116,7.9116,7.9116,7.9116,7.9116,7.9116,7.9116,7.9116,7.9116,7.9116,7.9116,7.9116,7.9116,7.9116,7.9116,7.9116,7.9165,7.9128,7.9416,7.9822,7.9908,7.9964,8.0049,8.0124,7.9818,7.9283,7.9054,7.871,7.8252,7.8137,7.8137,7.7755,7.7717,7.7526,7.7296,7.7258,7.6914,7.6609,7.6341,7.6112,7.5615,7.5642,7.5895,7.6118,7.6314,7.6505,7.671,7.6764,7.6687,7.6881,7.7503,7.7775,7.7775,7.8163,7.8901,7.9639,8.0377,8.1116,8.1621,8.1892,8.1892,8.1698,8.1737,8.1815,8.1892,8.1892,8.1854,8.1621,8.131,8.0377,7.9484,7.8823,7.7926,7.712,7.6816,7.6833,7.6846,7.6846,7.6894,7.6985,7.702,7.7036,7.7089,7.7101,7.7101,7.7101,7.7101,7.7101,7.7101,7.7101,7.7101,7.7101,7.7101,7.7101,7.7101,7.7101,7.7101,7.7101,7.7101,7.7101,7.7101,7.7101,7.7101,7.7107,7.7073,7.7087,7.7066,7.7028,7.6995,7.9116,7.9116,7.9116,7.9116,7.9116,7.9116,7.9116,7.9116,7.9116,7.9116,7.9116,7.9116,7.9116,7.9116,7.9116,7.9116,7.9116,7.9116,7.9116,7.9116,7.9116,7.9116,7.9214,7.9359,7.9592,7.9827,7.984,7.9704,7.9437,7.9207,7.9245,7.9207,7.8366,7.8099,7.7831,7.7526,7.7296,7.6953,7.68,7.6456,7.6112,7.5921,7.5806,7.573,7.5615,7.5539,7.5497,7.5628,7.584,7.6095,7.6273,7.6433,7.6651,7.6687,7.6687,7.7075,7.7736,7.8085,7.8396,7.9251,8.0183,8.0727,8.1193,8.1659,8.1892,8.1892,8.1892,8.1892,8.1892,8.1892,8.1892,8.1892,8.1892,8.1815,8.1465,8.0649,7.9872,7.9328,7.8431,7.7252,7.6858,7.687,7.6926,7.6936,7.6975,7.702,7.7036,7.7089,7.7089,7.7101,7.7101,7.7101,7.7101,7.7101,7.7101,7.7101,7.7101,7.7101,7.7101,7.7101,7.7101,7.7101,7.7101,7.7101,7.7101,7.7101,7.7101,7.7101,7.7101,7.7101,7.7073,7.7097,7.707,7.7048,7.6997,7.8789,7.9116,7.9116,7.9116,7.9116,7.9116,7.9116,7.9116,7.9116,7.9116,7.9116,7.9116,7.9116,7.9116,7.9116,7.9116,7.9116,7.9116,7.9116,7.9116,7.9116,7.9214,7.9311,7.95,7.9683,7.9836,7.966,7.9476,7.9283,7.8404,7.7793,7.7526,7.7335,7.6876,7.6647,7.6609,7.6341,7.6188,7.5997,7.573,7.5653,7.5501,7.5501,7.5501,7.5501,7.5501,7.5497,7.5692,7.5899,7.6083,7.6297,7.6475,7.6651,7.6687,7.6959,7.7425,7.8241,7.8901,7.9406,8.0222,8.0766,8.1387,8.1737,8.1892,8.1892,8.1892,8.1892,8.1892,8.1892,8.1892,8.1892,8.1892,8.1892,8.1892,8.1543,8.0882,8.0067,7.9502,7.8559,7.7234,7.6936,7.6905,7.6995,7.7036,7.7043,7.7043,7.7095,7.7101,7.7101,7.7101,7.7101,7.7101,7.7101,7.7101,7.7101,7.7101,7.7101,7.7101,7.7101,7.7101,7.7101,7.7101,7.7101,7.7101,7.7101,7.7101,7.7101,7.7101,7.7101,7.7101,7.7091,7.7108,7.7058,7.7011,7.6995,7.8581,7.8929,7.9029,7.9116,7.9116,7.9116,7.9116,7.9116,7.9116,7.9116,7.9116,7.9116,7.9116,7.9116,7.9116,7.9116,7.9116,7.9116,7.9116,7.9116,7.9116,7.9263,7.9453,7.9638,7.9778,7.9926,7.9437,7.9095,7.8748,7.7373,7.68,7.6532,7.6303,7.5997,7.5768,7.5501,7.5501,7.5501,7.5501,7.5501,7.5501,7.5501,7.5501,7.5501,7.5501,7.5501,7.5532,7.5692,7.5899,7.6121,7.6297,7.6475,7.6632,7.6803,7.7192,7.7969,7.8823,7.9678,8.0377,8.096,8.1232,8.1737,8.1854,8.1892,8.1892,8.1892,8.1892,8.1892,8.1892,8.1892,8.1892,8.1892,8.1892,8.1892,8.1892,8.1271,8.0085,7.9248,7.8256,7.7209,7.7089,7.6985,7.702,7.7056,7.7056,7.7056,7.7095,7.7101,7.7101,7.7101,7.7101,7.7101,7.7101,7.7101,7.7101,7.7101,7.7101,7.7101,7.7101,7.7101,7.7101,7.7101,7.7101,7.7101,7.7101,7.7101,7.7101,7.7101,7.7101,7.7101,7.7094,7.707,7.7061,7.7017,7.6995,7.8383,7.8474,7.8929,7.9116,7.9116,7.9116,7.9116,7.9116,7.9116,7.9116,7.9116,7.9116,7.9116,7.9116,7.9116,7.9116,7.9116,7.9116,7.9116,7.9116,7.9165,7.9311,7.9546,7.9734,7.995,8.0005,7.94,7.8635,7.8137,7.7029,7.6265,7.5844,7.573,7.5615,7.5501,7.5501,7.5501,7.5501,7.5577,7.5501,7.5653,7.5577,7.5501,7.5501,7.5501,7.5501,7.5532,7.5692,7.5899,7.6095,7.6297,7.6475,7.6669,7.6842,7.7308,7.8124,7.894,7.9795,8.0572,8.1387,8.1776,8.1854,8.1892,8.1892,8.1892,8.1892,8.1892,8.1892,8.1892,8.1892,8.1892,8.1892,8.1892,8.1892,8.1892,8.1328,8.0103,7.932,7.8387,7.7311,7.7092,7.702,7.7043,7.7101,7.7101,7.7101,7.7101,7.7101,7.7101,7.7101,7.7101,7.7101,7.7101,7.7101,7.7101,7.7101,7.7101,7.7101,7.7101,7.7101,7.7101,7.7101,7.7101,7.7101,7.7101,7.7101,7.7101,7.7101,7.7101,7.7107,7.71,7.707,7.7019,7.6984,7.6995,7.8109,7.8474,7.8929,7.9116,7.9116,7.9116,7.9116,7.9116,7.9116,7.9116,7.9116,7.9116,7.9116,7.9116,7.9116,7.9116,7.9116,7.9116,7.9116,7.9116,7.9263,7.9462,7.969,7.9908,8.0195,7.9972,7.9283,7.8404,7.8022,7.6723,7.5959,7.5539,7.5501,7.5501,7.5501,7.5539,7.5692,7.6074,7.5921,7.5692,7.615,7.5768,7.5501,7.5501,7.5501,7.5501,7.5535,7.5692,7.5928,7.6121,7.632,7.6534,7.6845,7.7075,7.793,7.8785,7.9678,8.0533,8.1232,8.1815,8.1892,8.1892,8.1892,8.1892,8.1892,8.1892,8.1892,8.1892,8.1892,8.1892,8.1892,8.1892,8.1892,8.1892,8.1717,8.0936,8.002,7.9548,7.8791,7.7607,7.7004,7.7028,7.7089,7.7101,7.7101,7.7101,7.7101,7.7101,7.7101,7.7101,7.7101,7.7101,7.7101,7.7101,7.7101,7.7101,7.7101,7.7101,7.7101,7.7101,7.7101,7.7101,7.7101,7.7101,7.7101,7.7101,7.7101,7.7101,7.7101,7.7078,7.7066,7.7064,7.7029,7.6981,7.6994,7.7509,7.822,7.8686,7.8979,7.9116,7.9116,7.9116,7.9116,7.9116,7.9116,7.9116,7.9116,7.9116,7.9116,7.9116,7.9116,7.9116,7.9116,7.9214,7.9263,7.9406,7.9683,7.9908,8.0154,8.0275,8.001,7.8978,7.7984,7.7908,7.6303,7.5615,7.5501,7.5501,7.5501,7.5501,7.5577,7.5692,7.5921,7.5692,7.5653,7.5883,7.5768,7.5501,7.5501,7.5501,7.5501,7.5566,7.5724,7.5918,7.6147,7.6343,7.673,7.7156,7.7697,7.859,7.9562,8.0572,8.131,8.1737,8.1854,8.1892,8.1892,8.1892,8.1892,8.1892,8.1892,8.1892,8.1892,8.1892,8.1892,8.1892,8.1892,8.1892,8.1892,8.1678,8.0936,8.0302,7.9827,7.9066,7.7872,7.7067,7.7082,7.7095,7.7095,7.7101,7.7101,7.7101,7.7101,7.7101,7.7101,7.7101,7.7101,7.7101,7.7101,7.7101,7.7101,7.7101,7.7101,7.7101,7.7101,7.7101,7.7101,7.7101,7.7101,7.7101,7.7101,7.7101,7.7101,7.7073,7.7055,7.7031,7.7009,7.702,7.7004,7.6999,7.6484,7.7599,7.8146,7.8536,7.8916,7.8879,7.9041,7.9116,7.9116,7.9116,7.9116,7.9116,7.9116,7.9116,7.9116,7.9116,7.9116,7.9116,7.9263,7.9406,7.9546,7.9822,8.0034,8.0235,8.0354,7.9896,7.8978,7.7984,7.7793,7.6303,7.5539,7.5501,7.5501,7.5501,7.5501,7.5501,7.5653,7.5844,7.5692,7.573,7.5883,7.5653,7.5501,7.5501,7.5501,7.5501,7.5599,7.578,7.6013,7.6224,7.6433,7.7118,7.7658,7.8008,7.9134,8.03,8.1426,8.1698,8.1854,8.1892,8.1892,8.1892,8.1892,8.1892,8.1892,8.1892,8.1892,8.1892,8.1892,8.1892,8.1892,8.1892,8.1892,8.1892,8.1911,8.1303,8.0683,8.0,7.9205,7.8291,7.7472,7.7173,7.7101,7.7101,7.7101,7.7101,7.7101,7.7101,7.7101,7.7101,7.7101,7.7101,7.7101,7.7101,7.7101,7.7101,7.7101,7.7101,7.7101,7.7101,7.7101,7.7101,7.7101,7.7101,7.7101,7.7101,7.7101,7.7073,7.7048,7.7028,7.7031,7.7,7.7012,7.7004,7.7038,7.5165,7.5565,7.6347,7.6812,7.699,7.7891,7.8553,7.9079,7.9116,7.9116,7.9116,7.9116,7.9116,7.9116,7.9116,7.9116,7.9116,7.9165,7.9311,7.9453,7.9645,7.9908,8.0154,8.0354,8.0431,7.9896,7.9054,7.8061,7.764,7.6303,7.5501,7.5501,7.5501,7.5501,7.5501,7.5501,7.5806,7.5921,7.5692,7.5768,7.5883,7.573,7.5615,7.5501,7.5501,7.5501,7.5566,7.5787,7.5957,7.6173,7.6366,7.6943,7.7891,7.859,7.9678,8.1232,8.1776,8.1892,8.1892,8.1892,8.1892,8.1892,8.1892,8.1892,8.1892,8.1892,8.1892,8.1892,8.1892,8.1892,8.1892,8.1892,8.1911,8.1929,8.1908,8.1586,8.0921,8.0129,7.9296,7.8238,7.7414,7.7179,7.7101,7.7101,7.7101,7.7101,7.7101,7.7101,7.7101,7.7101,7.7101,7.7101,7.7101,7.7101,7.7101,7.7101,7.7101,7.7101,7.7101,7.7101,7.7101,7.7101,7.7101,7.7101,7.7101,7.7101,7.7101,7.7073,7.7083,7.7058,7.703,7.7009,7.6981,7.7014,7.6999,7.4128,7.4652,7.5384,7.5947,7.6368,7.7066,7.7689,7.8177,7.8816,7.9116,7.9116,7.9116,7.9116,7.9116,7.9116,7.9116,7.9116,7.9263,7.9453,7.9645,7.9822,8.0075,8.0276,8.0431,8.0468,7.9971,7.9283,7.8404,7.7678,7.6456,7.5501,7.5501,7.5501,7.5501,7.5501,7.5501,7.5692,7.5806,7.5844,7.5883,7.5844,7.5768,7.5577,7.5501,7.5501,7.5501,7.5532,7.5756,7.5985,7.6147,7.6343,7.7195,7.8435,7.9639,8.0455,8.1815,8.1892,8.1892,8.1892,8.1892,8.1892,8.1892,8.1892,8.1892,8.1892,8.1892,8.1892,8.1892,8.1892,8.1892,8.1892,8.1892,8.1929,8.1947,8.1859,8.1803,8.1052,8.0251,7.9205,7.8065,7.7492,7.7218,7.7101,7.7101,7.7101,7.7101,7.7101,7.7101,7.7101,7.7101,7.7101,7.7101,7.7101,7.7101,7.7101,7.7101,7.7101,7.7101,7.7101,7.7101,7.7101,7.7101,7.7101,7.7101,7.7101,7.7101,7.7101,7.7101,7.7073,7.7091,7.7064,7.7028,7.7023,7.6985,7.7022,7.327,7.4312,7.4916,7.5559,7.644,7.6488,7.6563,7.6713,7.814,7.8891,7.8816,7.8928,7.8928,7.8853,7.9004,7.9165,7.9214,7.9359,7.9554,7.9822,8.003,8.0275,8.0392,8.0506,8.0506,8.0238,7.9589,7.8557,7.7602,7.6532,7.573,7.5539,7.5501,7.5501,7.5501,7.5501,7.5577,7.5615,7.5615,7.5615,7.5577,7.5501,7.5501,7.5501,7.5501,7.5535,7.5599,7.5848,7.6121,7.6248,7.6665,7.7523,7.9095,8.0727,8.1543,8.1815,8.1892,8.1892,8.1892,8.1892,8.1892,8.1892,8.1892,8.1892,8.1892,8.1892,8.1892,8.1892,8.1892,8.1892,8.1892,8.1892,8.1929,8.1943,8.1929,8.1961,8.1644,8.0514,7.9065,7.7993,7.7335,7.7101,7.7101,7.7101,7.7101,7.7101,7.7101,7.7101,7.7101,7.7101,7.7101,7.7101,7.7101,7.7101,7.7101,7.7101,7.7101,7.7101,7.7101,7.7101,7.7101,7.7101,7.7101,7.7101,7.7101,7.7101,7.7101,7.7101,7.7073,7.7091,7.7064,7.707,7.7058,7.7004,7.6995,7.1956,7.2289,7.3125,7.3982,7.4826,7.5436,7.5662,7.5774,7.6788,7.7239,7.7314,7.7839,7.8177,7.8215,7.8703,7.894,7.9293,7.9311,7.9734,7.9988,8.0195,8.0314,8.0468,8.0506,8.0506,8.0238,7.9589,7.8596,7.7526,7.6685,7.6074,7.5577,7.5501,7.5501,7.5501,7.5501,7.5501,7.5501,7.5501,7.5501,7.5501,7.5501,7.5501,7.5501,7.5501,7.5501,7.5633,7.584,7.6041,7.6199,7.6496,7.7583,7.9212,8.0921,8.1776,8.1892,8.1854,8.1892,8.1892,8.1892,8.1892,8.1892,8.1892,8.1892,8.1892,8.1892,8.1892,8.1892,8.1892,8.1892,8.1892,8.1911,8.1929,8.1975,8.2012,8.2077,8.2104,8.0579,7.8923,7.8032,7.7257,7.7101,7.7101,7.7101,7.7101,7.7101,7.7101,7.7101,7.7101,7.7101,7.7101,7.7101,7.7101,7.7101,7.7101,7.7101,7.7101,7.7101,7.7101,7.7101,7.7101,7.7101,7.7101,7.7101,7.7101,7.7101,7.7101,7.7101,7.7073,7.7087,7.7094,7.7066,7.7069,7.7022,7.7029,7.1494,7.162,7.2516,7.3387,7.4179,7.4685,7.4873,7.4948,7.5399,7.5587,7.5737,7.6713,7.7351,7.7351,7.7877,7.8511,7.8859,7.9071,7.9562,7.9999,8.0238,8.0392,8.0468,8.0506,8.0506,8.0277,7.9627,7.871,7.7755,7.6876,7.6341,7.5997,7.5806,7.5539,7.5539,7.5501,7.5501,7.5501,7.5501,7.5501,7.5501,7.5501,7.5501,7.5501,7.5501,7.5501,7.5599,7.578,7.5985,7.6353,7.6883,7.7505,7.8901,8.03,8.1154,8.1426,8.1621,8.1892,8.1892,8.1892,8.1892,8.1892,8.1892,8.1892,8.1892,8.1892,8.1892,8.1892,8.1892,8.1892,8.1892,8.1892,8.1998,8.2036,8.1922,8.1867,8.1265,8.0133,7.8696,7.7531,7.7101,7.7101,7.7101,7.7101,7.7101,7.7101,7.7101,7.7101,7.7101,7.7101,7.7101,7.7101,7.7101,7.7101,7.7101,7.7101,7.7101,7.7101,7.7101,7.7101,7.7101,7.7101,7.7101,7.7101,7.7101,7.7101,7.7101,7.7101,7.7101,7.7073,7.7083,7.7091,7.7061,7.7067,7.703,7.1557,7.1805,7.2537,7.3387,7.4151,7.4197,7.4235,7.4235,7.4235,7.416,7.4235,7.5474,7.615,7.6488,7.6713,7.74,7.7923,7.8252,7.9001,7.9778,8.0163,8.0316,8.043,8.0506,8.0506,8.0315,7.9856,7.9474,7.8939,7.8022,7.7258,7.68,7.6227,7.5692,7.5615,7.5501,7.5501,7.5501,7.5501,7.5501,7.5501,7.5501,7.5501,7.5501,7.5501,7.5501,7.5566,7.5692,7.5899,7.6418,7.7108,7.7739,7.8435,7.96,8.0105,8.061,8.1154,8.1465,8.1659,8.1776,8.1854,8.1892,8.1892,8.1892,8.1892,8.1892,8.1892,8.1892,8.1892,8.1892,8.1892,8.1911,8.2014,8.2039,8.1844,8.146,8.0579,7.9756,7.8585,7.7335,7.7101,7.7101,7.7101,7.7101,7.7101,7.7101,7.7101,7.7101,7.7101,7.7101,7.7101,7.7101,7.7101,7.7101,7.7101,7.7101,7.7101,7.7101,7.7101,7.7101,7.7101,7.7101,7.7101,7.7101,7.7101,7.7101,7.7101,7.7101,7.7101,7.7101,7.7107,7.7078,7.7078,7.7091,7.7094,7.1988,7.265,7.2816,7.3387,7.4104,7.4197,7.4197,7.4197,7.4197,7.3822,7.3484,7.3484,7.4235,7.5699,7.6375,7.6864,7.7073,7.7392,7.8366,7.9323,7.959,7.9971,8.0315,8.043,8.0468,8.0391,8.02,7.9895,7.9551,7.8978,7.8366,7.764,7.68,7.6379,7.6265,7.5997,7.5501,7.5501,7.5501,7.5501,7.5501,7.5501,7.5501,7.5501,7.5501,7.5501,7.5532,7.5692,7.578,7.6216,7.6968,7.7581,7.8204,7.8823,7.9367,7.9756,8.0377,8.0727,8.096,8.1426,8.1582,8.1737,8.1737,8.1892,8.1892,8.1892,8.1892,8.1892,8.1892,8.1892,8.1892,8.1911,8.1943,8.2065,8.1977,8.1117,8.0218,7.9561,7.878,7.7765,7.7101,7.7101,7.7101,7.7101,7.7101,7.7101,7.7101,7.7101,7.7101,7.7101,7.7101,7.7101,7.7101,7.7101,7.7101,7.7101,7.7101,7.7101,7.7101,7.7101,7.7101,7.7101,7.7101,7.7101,7.7101,7.7101,7.7101,7.7101,7.7101,7.7101,7.7101,7.7101,7.7101,7.7107,7.7078]},{"header":{"parameterUnit":"m.s-1","parameterCategory":1,"la1":31.0,"la2":29.5877,"lo1":-88.7671,"lo2":-86.6584,"dy":0.0162,"dx":0.0185,"nx":115,"ny":88,"refTime":"2024-12-01T18:00:00:Z","depth":0,"parameterNumber":3,"parameterNumberName":"V-component_of_WINDS"},"data":[0.0,0.0,0.0,0.0,0.0,0.0,0.0,0.0,0.0,0.0,0.0,0.0,0.0,0.0,0.0,0.0,0.0,0.0,0.0,0.0,0.0,0.0,0.0,0.0,0.0,0.0,0.0,0.0,0.0,0.0,0.0,0.0,0.0,0.0,0.0,0.0,0.0,0.0,0.0,0.0,0.0,0.0,0.0,0.0,0.0,0.0,0.0,0.0,0.0,0.0,0.0,0.0,0.0,0.0,0.0,0.0,0.0,0.0,0.0,0.0,0.0,0.0,0.0,0.0,0.0,0.0,0.0,0.0,0.0,0.0,0.0,0.0,0.0,0.0,0.0,0.0,0.0,0.0,0.0,0.0,0.0,0.0,0.0,0.0,0.0,0.0,0.0,0.0,0.0,0.0,0.0,0.0,0.0,0.0,0.0,0.0,0.0,0.0,0.0,0.0,0.0,0.0,0.0,0.0,0.0,0.0,0.0,0.0,0.0,0.0,0.0,0.0,0.0,0.0,0.0,0.0,0.0,0.0,0.0,0.0,0.0,0.0,0.0,0.0,0.0,0.0,0.0,0.0,0.0,0.0,0.0,0.0,0.0,0.0,0.0,0.0,0.0,0.0,0.0,0.0,0.0,0.0,0.0,0.0,0.0,0.0,0.0,0.0,0.0,0.0,0.0,0.0,0.0,0.0,0.0,0.0,0.0,0.0,0.0,0.0,0.0,0.0,0.0,0.0,0.0,0.0,0.0,0.0,0.0,0.0,0.0,0.0,0.0,0.0,0.0,0.0,0.0,0.0,0.0,0.0,0.0,0.0,0.0,0.0,0.0,0.0,0.0,0.0,0.0,0.0,0.0,0.0,0.0,0.0,0.0,0.0,0.0,0.0,0.0,0.0,0.0,0.0,0.0,0.0,0.0,0.0,0.0,0.0,0.0,0.0,0.0,0.0,0.0,0.0,0.0,0.0,0.0,0.0,0.0,0.0,0.0,0.0,0.0,0.0,0.0,0.0,0.0,0.0,0.0,0.0,0.0,0.0,0.0,0.0,0.0,0.0,0.0,0.0,0.0,0.0,0.0,0.0,0.0,0.0,0.0,0.0,0.0,0.0,0.0,0.0,0.0,0.0,0.0,0.0,0.0,0.0,0.0,0.0,0.0,0.0,0.0,0.0,0.0,0.0,0.0,0.0,0.0,0.0,0.0,0.0,0.0,0.0,0.0,0.0,0.0,0.0,0.0,0.0,0.0,0.0,0.0,0.0,0.0,0.0,0.0,0.0,0.0,0.0,0.0,0.0,0.0,0.0,0.0,0.0,0.0,0.0,0.0,0.0,0.0,0.0,0.0,0.0,0.0,0.0,0.0,0.0,0.0,0.0,0.0,0.0,0.0,0.0,0.0,0.0,0.0,0.0,0.0,0.0,0.0,0.0,0.0,0.0,0.0,0.0,0.0,0.0,0.0,0.0,0.0,0.0,0.0,0.0,0.0,0.0,0.0,0.0,0.0,0.0,0.0,0.0,0.0,0.0,0.0,0.0,0.0,0.0,0.0,0.0,0.0,0.0,0.0,0.0,0.0,0.0,0.0,0.0,0.0,0.0,0.0,0.0,0.0,0.0,0.0,0.0,0.0,0.0,0.0,0.0,0.0,0.0,0.0,0.0,0.0,0.0,0.0,0.0,0.0,0.0,0.0,0.0,0.0,0.0,0.0,0.0,0.0,0.0,0.0,0.0,0.0,0.0,0.0,0.0,0.0,0.0,0.0,0.0,0.0,0.0,0.0,0.0,0.0,0.0,0.0,0.0,0.0,0.0,0.0,0.0,0.0,0.0,0.0,0.0,0.0,0.0,0.0,0.0,0.0,0.0,0.0,0.0,0.0,0.0,0.0,0.0,0.0,0.0,0.0,0.0,0.0,0.0,0.0,0.0,0.0,0.0,0.0,0.0,0.0,0.0,0.0,0.0,0.0,0.0,0.0,0.0,0.0,0.0,0.0,0.0,0.0,0.0,0.0,0.0,0.0,0.0,0.0,0.0,0.0,0.0,0.0,0.0,0.0,0.0,0.0,0.0,0.0,0.0,0.0,0.0,0.0,0.0,0.0,0.0,0.0,0.0,0.0,0.0,0.0,0.0,0.0,0.0,0.0,0.0,0.0,0.0,0.0,0.0,0.0,0.0,0.0,0.0,0.0,0.0,0.0,0.0,0.0,0.0,0.0,0.0,0.0,0.0,0.0,0.0,0.0,0.0,0.0,0.0,0.0,0.0,0.0,0.0,0.0,0.0,0.0,0.0,0.0,0.0,0.0,0.0,0.0,0.0,0.0,0.0,0.0,0.0,0.0,0.0,0.0,0.0,0.0,0.0,0.0,0.0,0.0,0.0,0.0,0.0,0.0,0.0,0.0,0.0,0.0,0.0,0.0,0.0,0.0,0.0,0.0,0.0,0.0,0.0,0.0,0.0,0.0,0.0,0.0,0.0,0.0,0.0,0.0,0.0,0.0,0.0,0.0,0.0,0.0,0.0,0.0,0.0,0.0,0.0,0.0,0.0,0.0,0.0,0.0,0.0,0.0,0.0,0.0,0.0,0.0,0.0,0.0,0.0,0.0,0.0,0.0,0.0,0.0,0.0,0.0,0.0,0.0,0.0,0.0,0.0,0.0,0.0,0.0,0.0,0.0,0.0,0.0,0.0,0.0,0.0,0.0,0.0,0.0,0.0,0.0,0.0,0.0,0.0,0.0,0.0,0.0,0.0,0.0,0.0,0.0,0.0,0.0,0.0,0.0,0.0,0.0,0.0,0.0,0.0,0.0,0.0,0.0,0.0,0.0,0.0,0.0,0.0,0.0,0.0,0.0,0.0,0.0,0.0,0.0,0.0,0.0,0.0,0.0,0.0,0.0,0.0,0.0,0.0,0.0,0.0,0.0,0.0,0.0,0.0,0.0,0.0,0.0,0.0,0.0,0.0,0.0,0.0,0.0,0.0,0.0,0.0,0.0,0.0,0.0,0.0,0.0,0.0,0.0,0.0,0.0,0.0,0.0,0.0,0.0,0.0,0.0,0.0,0.0,0.0,0.0,0.0,0.0,0.0,0.0,0.0,0.0,0.0,0.0,0.0,0.0,0.0,0.0,0.0,0.0,0.0,0.0,0.0,0.0,0.0,0.0,0.0,0.0,0.0,0.0,0.0,0.0,0.0,0.0,0.0,0.0,0.0,0.0,0.0,0.0,0.0,0.0,0.0,0.0,0.0,0.0,0.0,0.0,0.0,0.0,0.0,0.0,0.0,0.0,0.0,0.0,0.0,0.0,0.0,0.0,0.0,0.0,0.0,0.0,0.0,0.0,0.0,0.0,0.0,0.0,0.0,0.0,0.0,0.0,0.0,0.0,0.0,0.0,0.0,0.0,0.0,0.0,0.0,0.0,0.0,0.0,0.0,0.0,0.0,0.0,0.0,0.0,0.0,0.0,0.0,0.0,0.0,0.0,0.0,0.0,0.0,0.0,0.0,0.0,0.0,0.0,0.0,0.0,0.0,0.0,0.0,0.0,0.0,0.0,0.0,0.0,0.0,0.0,0.0,0.0,0.0,0.0,0.0,0.0,0.0,0.0,0.0,0.0,0.0,0.0,0.0,0.0,0.0,0.0,0.0,0.0,0.0,0.0,0.0,0.0,0.0,0.0,0.0,0.0,0.0,0.0,0.0,0.0,0.0,0.0,0.0,0.0,0.0,0.0,0.0,0.0,0.0,0.0,0.0,0.0,0.0,0.0,0.0,0.0,0.0,0.0,0.0,0.0,0.0,0.0,0.0,0.0,0.0,0.0,0.0,0.0,0.0,0.0,0.0,0.0,0.0,0.0,0.0,0.0,0.0,0.0,0.0,0.0,0.0,0.0,0.0,0.0,0.0,0.0,0.0,0.0,0.0,0.0,0.0,0.0,0.0,0.0,0.0,0.0,0.0,0.0,0.0,0.0,0.0,0.0,0.0,0.0,0.0,0.0,0.0,0.0,0.0,0.0,0.0,0.0,0.0,0.0,0.0,0.0,0.0,0.0,0.0,0.0,0.0,0.0,0.0,0.0,0.0,0.0,0.0,0.0,0.0,0.0,0.0,0.0,0.0,0.0,0.0,0.0,0.0,0.0,0.0,0.0,0.0,0.0,0.0,0.0,0.0,0.0,0.0,0.0,0.0,0.0,0.0,0.0,0.0,0.0,0.0,0.0,0.0,0.0,0.0,0.0,0.0,0.0,0.0,0.0,0.0,0.0,0.0,0.0,0.0,0.0,0.0,0.0,0.0,0.1076,0.0,0.0,0.0,0.0,0.0,0.0,0.0,0.0,0.0,0.0,0.0,0.0,0.0,0.0,0.0,0.0,0.0,0.0,0.0,0.0,0.0,0.0,0.0,0.0,0.0,0.0,0.0,0.0,0.0,0.0,0.0,0.0,0.0,0.0,0.0,0.0,0.0,0.0,0.0,0.0,0.0,0.0,0.0,0.0,0.0,0.0,0.0,0.0,0.0,0.0,0.0,0.0,0.0,0.0,0.0,0.0,0.0,0.0,0.0,0.0,0.0,0.0,0.0,0.0,0.0,0.0,0.0,0.0,0.0,0.0,0.0,0.0,0.0,0.0,0.0,0.0,0.0,0.0,0.0,0.0,0.0,0.0,0.0,0.0,0.0,0.0,0.0,0.0,0.0,0.0,0.0,0.0,0.0,0.0,0.0,0.0,0.0,0.0,0.0,0.0,0.0,0.0,0.0,0.0,0.0,0.0,0.0,0.0,0.0,0.0,0.1076,0.1076,0.1076,0.1076,0.1076,0.0,0.0,0.0,0.0,0.0,0.0,0.0,0.0,0.0,0.0,0.0,0.0,0.0,0.0,0.0,0.0,0.0,0.0,0.0,0.0,0.0,0.0,0.0,0.0,0.0,0.0,0.0,0.0,0.0,0.0,0.0,0.0,0.0,0.0,0.0,0.0,0.0,0.0,0.0,0.0,0.0,0.0,0.0,0.0,0.0,0.0,0.0,0.0,0.0,0.0,0.0,0.0,0.0,0.0,0.0,0.0,0.0,0.0,0.0,0.0,0.0,0.0,0.0,0.0,0.0,0.0,0.0,0.0,0.0,0.0,0.0,0.0,0.0,0.0,0.0,0.0,0.0,0.0,0.0,0.0,0.0,0.0,0.0,0.0,0.0,0.0,0.0,0.0,0.0,0.0,0.0,0.0,0.0,0.0,0.0,0.0,0.0,0.0,0.0,0.0,0.0,0.0,0.0,0.0,0.0,0.0,0.0,0.0,0.0,0.0,0.0,0.0,0.1117,0.1117,0.1117,0.0,0.0,0.0,0.0,0.0,0.0,0.0,0.0,0.0,0.0,0.0,0.0,0.0,0.0,0.0,0.0,0.0,0.0,0.0,0.0,0.0,0.0,0.0,0.0,0.0,0.0,0.0,0.0,0.0,0.0,0.0,0.0,0.0,0.0,0.0,0.0,0.0,0.0,0.0,0.0,0.0,0.0,0.0,0.0,0.0,0.0,0.0,0.0,0.0,0.0,0.0,0.0,0.0,0.0,0.0,0.0,0.0,0.0,0.0,0.0,0.0,0.0,0.0,0.0,0.0,0.0,0.0,0.0,0.0,0.0,0.0,0.0,0.0,0.0,0.0,0.0,0.0,0.0,0.0,0.0,0.0,0.0,0.0,0.0,0.0,0.0,0.0,0.0,0.0,0.0,0.0,0.0,0.0,0.0,0.0,0.0,0.0,0.0,0.0,0.0,0.0,0.0,0.0,0.0,0.0,0.0,0.0,0.0,0.0,0.0,0.1127,0.1236,0.1317,0.0,0.1318,0.0,0.0,0.0,0.0,0.0,0.0,0.0,0.0,0.0,0.0,0.0,0.0,0.0,0.0,0.0,0.0,0.0,0.0,0.0,0.0,0.0,0.0,0.0,0.0,0.0,0.0,0.0,0.0,0.0,0.0,0.0,0.0,0.0,0.0,0.0,0.0,0.0,0.0,0.0,0.0,0.0,0.0,0.0,0.0,0.0,0.0,0.0,0.0,0.0,0.0,0.0,0.0,0.0,0.0,0.0,0.0,0.0,0.0,0.0,0.0,0.0,0.0,0.0,0.0,0.0,0.0,0.0,0.0,0.0,0.0,0.0,0.0,0.0,0.0,0.0,0.0,0.0,0.0,0.0,0.0,0.0,0.0,0.0,0.0,0.0,0.0,0.0,0.0,0.0,0.0,0.0,0.0,0.0,0.0,0.0,0.0,0.0,0.0,0.0,0.0,0.0,0.0,0.0,0.0,0.0,0.0,0.0,0.0,0.0,0.0,0.1206,0.1334,0.1337,0.1337,0.0,0.0,0.0,0.0,0.0,0.0,0.0,0.0,0.0,0.0,0.0,0.0,0.0,0.0,0.0,0.0,0.0,0.0,0.0,0.0,0.0,0.0,0.0,0.0,0.0,0.0,0.0,0.0,0.0,0.0,0.0,0.0,0.0,0.0,0.0,0.0,0.0,0.0,0.0,0.0,0.0,0.0,0.0,0.0,0.0,0.0,0.0,0.0,0.0,0.0,0.0,0.0,0.0,0.0,0.0,0.0,0.0,0.0,0.0,0.0,0.0,0.0,0.0,0.0,0.0,0.0,0.0,0.0,0.0,0.0,0.0,0.0,0.0,0.0,0.0,0.0,0.0,0.0,0.0,0.0,0.0,0.0,0.0,0.0,0.0,0.0,0.0,0.0,0.0,0.0,0.0,0.0,0.0,0.0,0.0,0.0,0.0,0.0,0.0,0.0,0.0,0.0,0.0,0.0,0.0,0.0,0.0,0.0,0.0,0.0,0.123,0.1431,0.1629,0.1632,0.1614,0.1571,0.0,0.0,0.0,0.0,0.0,0.0,0.0,0.0,0.0,0.0,0.0,0.0,0.0,0.0,0.0,0.0,0.0,0.0,0.0,0.0,0.0,0.0,0.0,0.0,0.0,0.0,0.0,0.0,0.0,0.0,0.0,0.0,0.0,0.0,0.0,0.0,0.0,0.0,0.0,0.0,0.0,0.0,0.0,0.0,0.0,0.0,0.0,0.0,0.0,0.0,0.0,0.0,0.0,0.0,0.0,0.0,0.0,0.0,0.0,0.0,0.0,0.0,0.0,0.0,0.0,0.0,0.0,0.0,0.0,0.0,0.0,0.0,0.0,0.0,0.0,0.0,0.0,0.0,0.0,0.0,0.0,0.0,0.0,0.0,0.0,0.0,0.0,0.0,0.0,0.0,0.0,0.0,0.0,0.0,0.0,0.0,0.0,0.0,0.0,0.0,0.0,0.0,0.0,0.0,0.0,0.0,0.0,0.0,0.0,0.131,0.1639,0.2399,0.2403,0.2399,0.0,0.0,0.0,0.0,0.0,0.0,0.0,0.0,0.0,0.0,0.0,0.0,0.0,0.0,0.0,0.0,0.0,0.0,0.0,0.0,0.0,0.0,0.0,0.0,0.0,0.0,0.0,0.0,0.0,0.0,0.0,0.0,0.0,0.0,0.0,0.0,0.0,0.0,0.0,0.0,0.0,0.0,0.0,0.0,0.0,0.0,0.0,0.0,0.0,0.0,0.0,0.0,0.0,0.0,0.0,0.0,0.0,0.0,0.0,0.0,0.0,0.0,0.0,0.0,0.0,0.0,0.0,0.0,0.0,0.0,0.0,0.0,0.0,0.0,0.0,0.0,0.0,0.0,0.0,0.0,0.0,0.0,0.0,0.0,0.0,0.0,0.0,0.0,0.0,0.0,0.0,0.0,0.0,0.0,0.0,0.0,0.0,0.0,0.0,0.0,0.0,0.0,0.0,0.0,0.0,0.0,0.0,0.0,0.0,0.1201,0.1702,0.2277,0.3065,0.2626,0.2483,0.0,0.0,0.0,0.0,0.0,0.0,0.0,0.0,0.0,0.0,0.0,0.0,0.0,0.0,0.0,0.0,0.0,0.0,0.0,0.0,0.0,0.0,0.0,0.0,0.0,0.0,0.0,0.0,0.0,0.0,0.0,0.0,0.0,0.0,0.0,0.0,0.0,0.0,0.0,0.0,0.0,0.0,0.0,0.0,0.0,0.0,0.0,0.0,0.0,0.0,0.0,0.0,0.0,0.0,0.0,0.0,0.0,0.0,0.0,0.0,0.0,0.0,0.0,0.0,0.0,0.0,0.0,0.0,0.0,0.0,0.0,0.0,0.0,0.0,0.0,0.0,0.0,0.0,0.0,0.0,0.0,0.0,0.0,0.0,0.0,0.0,0.0,0.0,0.0,0.0,0.0,0.0,0.0,0.0,0.0,0.0,0.0,0.0,0.0,0.0,0.0,0.0,0.0,0.0,0.0,0.0,0.0,0.0,0.0,0.125,0.0,0.2724,0.0,0.2938,0.2992,0.0,0.0,0.0,0.0,0.0,0.0,0.0,0.0,0.0,0.0,0.0,0.0,0.0,0.0,0.0,0.0,0.0,0.0,0.0,0.0,0.0,0.0,0.0,0.0,0.0,0.0,0.0,0.0,0.0,0.0,0.0,0.0,0.0,0.0,0.0,0.0,0.0,0.0,0.0,0.0,0.0,0.0,0.0,0.0,0.0,0.0,0.0,0.0,0.0,0.0,0.0,0.0,0.0,0.0,0.0,0.0,0.0,0.0,0.0,0.0,0.0,0.0,0.0,0.0,0.0,0.0,0.0,0.0,0.0,0.0,0.0,0.0,0.0,0.0,0.0,0.0,0.0,0.0,0.0,0.0,0.0,0.0,0.0,0.0,0.0,0.0,0.0,0.0,0.0,0.0,0.0,0.0,0.0,0.0,0.0,0.0,0.0,0.0,0.0,0.0,0.0,0.0,0.0,0.0,0.0,0.0,0.0,0.0,0.1179,0.1376,0.22,0.2948,0.3486,0.3542,0.3774,0.0,0.0,0.0,0.0,0.0,0.0,0.0,0.0,0.0,0.0,0.0,0.0,0.0,0.0,0.0,0.0,0.0,0.0,0.0,0.0,0.0,0.0,0.0,0.0,0.0,0.0,0.0,0.0,0.0,0.0,0.0,0.0,0.0,0.0,0.0,0.0,0.0,0.0,0.0,0.0,0.0,0.0,0.0,0.0,0.0,0.0,0.0,0.0,0.0,0.0,0.0,0.0,0.0,0.0,0.0,0.0,0.0,0.0,0.0,0.0,0.0,0.0,0.0,0.0,0.0,0.0,0.0,0.0,0.0,0.0,0.0,0.0,0.0,0.0,0.0,0.0,0.0,0.0,0.0,0.0,0.0,0.0,0.0,0.0,0.0,0.0,0.0,0.0,0.0,0.0,0.0,0.0,0.0,0.0,0.0,0.0,0.0,0.0,0.0,0.0,0.0,0.0,0.0,0.0,0.0,0.0,0.0,0.0,0.0,0.1269,0.2747,0.3663,0.4113,0.4351,0.4643,0.0,0.0,0.0,0.0,0.0,0.0,0.0,0.0,0.0,0.0,0.0,0.0,0.0,0.0,0.0,0.0,0.0,0.0,0.0,0.0,0.0,0.0,0.0,0.0,0.0,0.0,0.0,0.0,0.0,0.0,0.0,0.0,0.0,0.0,0.0,0.0,0.0,0.0,0.0,0.0,0.0,0.0,0.0,0.0,0.0,0.0,0.0,0.0,0.0,0.0,0.0,0.0,0.0,0.0,0.0,0.0,0.0,0.0,0.0,0.0,0.0,0.0,0.0,0.0,0.0,0.0,0.0,0.0,0.0,0.0,0.0,0.0,0.0,0.0,0.0,0.0,0.0,0.0,0.0,0.0,0.0,0.0,0.0,0.0,0.0,0.0,0.0,0.0,0.0,0.0,0.0,0.0,0.0,0.0,0.0,0.0,0.0,0.0,0.0,0.0,0.0,0.0,0.0,0.0,0.0,0.0,0.0,0.0,0.0,0.225,0.3335,0.4272,0.5169,0.5373,0.552,0.5782,0.0,0.0,0.0,0.0,0.0,0.0,0.0,0.0,0.0,0.0,0.0,0.0,0.0,0.0,0.0,0.0,0.0,0.0,0.0,0.0,0.0,0.0,0.0,0.0,0.0,0.0,0.0,0.0,0.0,0.0,0.0,0.0,0.0,0.0,0.0,0.0,0.0,0.0,0.0,0.0,0.0,0.0,0.0,0.0,0.0,0.0,0.0,0.0,0.0,0.0,0.0,0.0,0.0,0.0,0.0,0.0,0.0,0.0,0.0,0.0,0.0,0.0,0.0,0.0,0.0,0.0,0.0,0.0,0.0,0.0,0.0,0.0,0.0,0.0,0.0,0.0,0.0,0.0,0.0,0.0,0.0,0.0,0.0,0.0,0.0,0.0,0.0,0.0,0.0,0.0,0.0,0.0,0.0,0.0,0.0,0.0,0.0,0.0,0.0,0.0,0.0,0.0,0.0,0.0,0.0,0.0,0.0,0.0,0.416,0.4063,0.4874,0.6558,0.642,0.6356,0.0,0.0,0.0,0.0,0.0,0.0,0.0,0.0,0.0,0.0,0.0,0.0,0.0,0.0,0.0,0.0,0.0,0.0,0.0,0.0,0.0,0.0,0.0,0.0,0.0,0.0,0.0,0.0,0.0,0.0,0.0,0.0,0.0,0.0,0.0,0.0,0.0,0.0,0.0,0.0,0.0,0.0,0.0,0.0,0.0,0.0,0.0,0.0,0.0,0.0,0.0,0.0,0.0,0.0,0.0,0.0,0.0,0.0,0.0,0.0,0.0,0.0,0.0,0.0,0.0,0.0,0.0,0.0,0.0,0.0,0.0,0.0,0.0,0.0,0.0,0.0,0.0,0.0,0.0,0.0,0.0,0.0,0.0,0.0,0.0,0.0,0.0,0.0,0.0,0.0,0.0,0.0,0.0,0.0,0.0,0.0,0.0,0.0,0.0,0.0,0.0,0.0,0.0,0.0,0.0,0.0,0.0,0.0,0.0,0.5904,0.5983,0.6408,0.7193,0.7681,0.7617,0.0,0.0,0.0,0.0,0.0,0.0,0.0,0.0,0.0,0.0,0.0,0.0,0.0,0.0,0.0,0.0,0.0,0.0,0.0,0.0,0.0,0.0,0.0,0.0,0.0,0.0,0.0,0.0,0.0,0.0,0.0,0.0,0.0,0.0,0.0,0.0,0.0,0.0,0.0,0.0,0.0,0.0,0.0,0.0,0.0,0.0,0.0,0.0,0.0,0.0,0.0,0.0,0.0,0.0,0.0,0.0,0.0,0.0,0.0,0.0,0.0,0.0,0.0,0.0,0.0,0.0,0.0,0.0,0.0,0.0,0.0,0.0,0.0,0.0,0.0,0.0,0.0,0.0,0.0,0.0,0.0,0.0,0.0,0.0,0.0,0.0,0.0,0.0,0.0,0.0,0.0,0.0,0.0,0.0,0.0,0.0,0.0,0.0,0.0,0.0,0.0,0.0,0.0,0.0,0.0,0.0,0.0,0.0,0.5174,0.7914,0.8863,0.9404,0.9568,0.9516,0.8924,0.0,0.0,0.0,0.0,0.0,0.0,0.0,0.0,0.0,0.0,0.0,0.0,0.0,0.0,0.0,0.0,0.0,0.0,0.0,0.0,0.0,0.0,0.0,0.0,0.0,0.0,0.0,0.0,0.0,0.0,0.0,0.0,0.0,0.0,0.0,0.0,0.0,0.0,0.0,0.0,0.0,0.0,0.0,0.0,0.0,0.0,0.0,0.0,0.0,0.0,0.0,0.0,0.0,0.0,0.0,0.0,0.0,0.0,0.0,0.0,0.0,0.0,0.0,0.0,0.0,0.0,0.0,0.0,0.0,0.0,0.0,0.0,0.0,0.0,0.0,0.0,0.0,0.0,0.0,0.0,0.0,0.0,0.0,0.0,0.0,0.0,0.0,0.0,0.0,0.0,0.0,0.0,0.0,0.0,0.0,0.0,0.0,0.0,0.0,0.0,0.0,0.0,0.0,0.0,0.0,0.0,0.0,0.0,0.7513,0.9615,1.1524,1.2519,1.232,1.1316,1.017,0.0,0.0,0.0,0.0,0.0,0.0,0.0,0.0,0.0,0.0,0.0,0.0,0.0,0.0,0.0,0.0,0.0,0.0,0.0,0.0,0.0,0.0,0.0,0.0,0.0,0.0,0.0,0.0,0.0,0.0,0.0,0.0,0.0,0.0,0.0,0.0,0.0,0.0,0.0,0.0,0.0,0.0,0.0,0.0,0.0,0.0,0.0,0.0,0.0,0.0,0.0,0.0,0.0,0.0,0.0,0.0,0.0,0.0,0.0,0.0,0.0,0.0,0.0,0.0,0.0,0.0,0.0,0.0,0.0,0.0,0.0,0.0,0.0,0.0,0.0,0.0,0.0,0.0,0.0,0.0,0.0,0.0,0.0,0.0,0.0,0.0,0.0,0.0,0.0,0.0,0.0,0.0,0.0,0.0,0.0,0.0,0.0,0.0,0.0,0.0,0.0,0.0,0.0,0.0,0.0,0.0,0.0,0.0,0.6515,0.911,1.0483,1.174,1.2901,1.1736,1.0562,0.0,0.0,0.0,0.0,0.0,0.0,0.0,0.0,0.0,0.0,0.0,0.0,0.0,0.0,0.0,0.0,0.0,0.0,0.0,0.0,0.0,0.0,0.0,0.0,0.0,0.0,0.0,0.0,0.0,0.0,0.0,0.0,0.0,0.0,0.0,0.0,0.0,0.0,0.0,0.0,0.0,0.0,0.0,0.0,0.0,0.0,0.0,0.0,0.057,0.0,0.0,0.0,0.0,0.0,0.0,0.0,0.0,0.0,0.0,0.0,0.0,0.0,0.0,0.0,0.0,0.0,0.0,0.0,0.0,0.0,0.0,0.0,0.0,0.0,0.0,0.0,0.0,0.0,0.0,0.0,0.0,0.0,0.0,0.0,0.0,0.0,0.0,0.0,0.0,0.0,0.0,0.0,0.0,0.0,0.0,0.0,0.0,0.0,0.0,0.0,0.0,0.0,0.0,0.0,0.0,0.0,0.0,0.0,0.7786,1.0098,1.1572,1.2504,1.3206,1.2418,1.1321,0.0,0.0,0.0,0.0,0.0,0.0,0.0,0.0,0.0,0.0,0.0,0.0,0.0,0.0,0.0,0.0,0.0,0.0,0.0,0.0,0.0,0.0,0.0,0.0,0.0,0.0,0.0,0.0,0.0,0.0,0.0,0.0,0.0,0.0,0.0,0.0,0.0,0.0,0.0,0.0,0.0,0.0,0.0,0.0,0.0,0.0,0.0,0.0,0.0,0.0,0.0,0.0,0.0,0.0,0.0,0.0,0.0,0.0,0.0,0.0,0.0,0.0,0.0,0.0,0.0,0.0,0.0,0.0,0.0,0.0,0.0,0.0,0.0,0.0,0.0,0.0,0.0,0.0,0.0,0.0,0.0,0.0,0.0,0.0,0.0,0.0,0.0,0.0,0.0,0.0,0.0,0.0,0.0,0.0,0.0,0.0,0.0,0.0,0.0,0.0,0.0,0.0,0.0,0.0,0.0,0.0,0.0,0.7971,0.9761,1.1572,1.3193,1.3758,1.3376,1.3019,1.2012,1.0274,0.0,0.0,0.0,0.0,0.0,0.0,0.0,0.0,0.0,0.0,0.0,0.0,0.0,0.0,0.0,0.0,0.0,0.0,0.0,0.0,0.0,0.0,0.0,0.0,0.0,0.0,0.0,0.0,0.0,0.0,0.0,0.0,0.0,0.0,0.0,0.0,0.0,0.0,-0.1719,-0.1351,0.0,0.0,0.0,0.0,0.0,0.0,0.0,0.0,0.0866,0.0,0.0,0.0,0.0,0.0,0.0,0.0,0.0,0.0,0.0,0.0,0.0,0.0,0.0,0.0,0.0,0.0,0.0,0.0,0.0,0.0,0.0,0.0,0.0,0.0,0.0,0.0,0.0,0.0,0.0,0.0,0.0,0.0,0.0,0.0,0.0,0.0,0.0,0.0,0.0,0.0,0.0,0.0,0.0,0.0,0.0,0.0,0.0,0.0,0.0,0.0,0.0,0.0,0.0,0.0,0.0,0.8225,0.8518,0.9799,1.1881,1.3372,1.3888,1.3392,1.3027,1.2069,1.0469,0.0,0.0,0.0,0.0,0.0,0.0,0.0,0.0,0.0,0.0,0.0,0.0,0.0,0.0,0.0,0.0,0.0,0.0,0.0,0.0,0.0,0.0,0.0,0.0,0.0,0.0,0.0,0.0,0.0,0.0,0.0,0.0,0.0,0.0,0.0,0.0,0.0,0.0,0.0,-0.0543,-0.0318,0.0,0.0,0.0,0.0,0.0,0.0,0.0,0.0,0.1076,0.0,0.0,0.0,0.0,0.0,0.0,0.0,0.0,0.0,0.0,0.0,0.0,0.0,0.0,0.0,0.0,0.0,0.0,0.0,0.0,0.0,0.0,0.0,0.0,0.0,0.0,0.0,0.0,0.0,0.0,0.0,0.0,0.0,0.0,0.0,0.0,0.0,0.0,0.0,0.0,0.0,0.0,0.0,0.0,0.0,0.0,0.0,0.0,0.0,0.0,0.0,0.0,0.0,0.0,0.0,0.8482,0.9703,1.0894,1.2045,1.3457,1.392,1.3376,1.2751,1.1752,0.0,0.0,0.0,0.0,0.0,0.0,0.0,0.0,0.0,0.0,0.0,0.0,0.0,0.0,0.0,0.0,0.0,0.0,0.0,0.0,0.0,0.0,0.0,0.0,0.0,0.0,0.0,0.0,0.0,0.0,0.0,0.0,0.0,0.0,0.0,0.0,0.0,0.0,0.0,0.0,-0.0161,0.0246,0.0504,0.0,0.0,0.0,0.0,0.0,0.0,0.1151,0.1117,0.0,0.0,0.0,0.0,0.0,0.0,0.0,0.0,0.0,0.0,0.0,0.0,0.0,0.0,0.0,0.0,0.0,0.0,0.0,0.0,0.0,0.0,0.0,0.0,0.0,0.0,0.0,0.0,0.0,0.0,0.0,0.0,0.0,0.0,0.0,0.0,0.0,0.0,0.0,0.0,0.0,0.0,0.0,0.0,0.0,0.0,0.0,0.0,0.0,0.0,0.0,0.0,0.0,0.0,0.0,0.8964,1.0812,1.2073,1.2595,1.368,1.3953,1.3376,1.2572,1.1516,0.0,0.0,0.0,0.0,0.0,0.0,0.0,0.0,0.0,0.0,0.0,0.0,0.0,0.0,0.0,0.0,0.0,0.0,0.0,0.0,0.0,0.0,0.0,0.0,0.0,0.0,0.0,0.0,0.0,0.0,0.0,0.0,0.0,0.0,0.0,0.0,0.0,0.0,0.0,0.0,0.0,0.0768,0.0785,0.068,0.0,0.0,0.0,0.0,0.1192,0.125,0.0,0.0,0.0,0.0,0.0,0.0,0.0,0.0,0.0,0.0,0.0,0.0,0.0,0.0,0.0,0.0,0.0,0.0,0.0,0.0,0.0,0.0,0.0,0.0,0.0,0.0,0.0,0.0,0.0,0.0,0.0,0.0,0.0,0.0,0.0,0.0,0.0,0.0,0.0,0.0,0.0,0.0,0.0,0.0,0.0,0.0,0.0,0.0,0.0,0.0,0.0,0.0,0.0,0.0,0.0,0.0,1.0807,1.1426,1.2406,1.3595,1.4083,1.4075,1.3392,1.2808,1.1768,0.0,0.0,0.0,0.0,0.0,0.0,0.0,0.0,0.0,0.0,0.0,0.0,0.0,0.0,0.0,0.0,0.0,0.0,0.0,0.0,0.0,0.0,0.0,0.0,0.0,0.0,0.0,0.0,0.0,0.0,0.0,0.0,0.0,0.0,0.0,0.0,0.0,0.0,0.0,0.0,0.0,0.1419,0.135,0.1336,0.1329,0.0,0.0,0.131,0.1476,0.1464,0.0,0.0,0.0,0.0,0.0,0.0,0.0,0.0,0.0,0.0,0.0,0.0,0.0,0.0,0.0,0.0,0.0,0.0,0.0,0.0,0.0,0.0,0.0,0.0,0.0,0.0,0.0,0.0,0.0,0.0,0.0,0.0,0.0,0.0,0.0,0.0,0.0,0.0,0.0,0.0,0.0,0.0,0.0,0.0,0.0,0.0,0.0,0.0,0.0,0.0,0.0,0.0,0.0,0.0,0.0,0.9532,1.1216,1.22,1.3213,1.3888,1.4156,1.3993,1.3384,1.2458,1.1346,0.0,0.0,0.0,0.0,0.0,0.0,0.0,0.0,0.0,0.0,0.0,0.0,0.0,0.0,0.0,0.0,0.0,0.0,0.0,0.0,0.0,0.0,0.0,0.0,0.0,0.0,0.0,0.0,0.0,0.0,0.0,0.0,0.0,0.0,0.0,0.0,0.0,0.0,0.0,0.0,0.0,0.0,0.1536,0.1524,0.0,0.0,0.0,0.1501,0.1523,0.0,0.0,0.0,0.0,0.0,0.0,0.0,0.0,0.0,0.0,0.0,0.0,0.0,0.0,0.0,0.0,0.0,0.0,0.0,0.0,0.0,0.0,0.0,0.0,0.0,0.0,0.0,0.0,0.0,0.0,0.0,0.0,0.0,0.0,0.0,0.0,0.0,0.0,0.0,0.0,0.0,0.0,0.0,0.0,0.0,0.0,0.0,0.0,0.0,0.0,0.0,0.0,0.0,0.0,0.0,0.0,0.0,1.1224,1.2824,1.3725,1.3896,1.4083,1.392,1.3368,1.228,0.0,0.0,0.0,0.0,0.0,0.0,0.0,0.0,0.0,0.0,0.0,0.0,0.0,0.0,0.0,0.0,0.0,0.0,0.0,0.0,0.0,0.0,0.0,0.0,0.0,0.0,0.0,0.074,0.0,0.0,0.0,0.0,0.0,0.0,0.0,0.0,0.0,0.0,0.0,0.0,0.0,0.0,0.1542,0.1618,0.1621,0.1621,0.0,0.0,0.1611,0.1596,0.162,0.1568,0.0,0.0,0.0,0.0,0.0,0.0,0.0,0.0,0.0,0.0,0.0,0.0,0.0,0.0,0.0,0.0,0.0,0.0,0.0,0.0,0.0,0.0,0.0,0.0,0.0,0.0,0.0,0.0,0.0,0.0,0.0,0.0,0.0,0.0,0.0,0.0,0.0,0.0,0.0,0.0,0.0,0.0,0.0,0.0,0.0,0.0,0.0,0.0,0.0,0.0,0.0,0.0,0.0,0.0,0.0,1.1232,1.2816,1.3725,1.3896,1.4083,1.392,1.3384,1.2645,1.1508,0.0,0.0,0.0,0.0,0.0,0.0,0.0,0.0,0.0,0.0,0.0,0.0,0.0,0.0,0.0,0.0,0.0,0.0,0.0,0.0,0.0,0.0,0.0,0.0,0.0,0.0,0.0,0.0,0.0,0.0,0.0,0.0,0.0,0.0,0.0,0.0,0.0,0.0,0.0,0.0,0.0,0.162,0.1654,0.1704,0.1757,0.0,0.0,0.1746,0.1772,0.1801,0.1723,0.1431,0.0,0.0,0.0,0.0,0.0,0.0,0.0,0.0,0.0,0.0,0.0,0.0,0.0,0.0,0.0,0.0,0.0,0.0,0.0,0.0,0.0,0.0,0.0,0.0,0.0,0.0,0.0,0.0,0.0,0.0,0.0,0.0,0.0,0.0,0.0,0.0,0.0,0.0,0.0,0.0,0.0,0.0,0.0,0.0,0.0,0.0,0.0,0.0,0.0,0.0,0.0,0.0,0.0,1.0152,1.1216,1.271,1.3612,1.3888,1.3969,1.3807,1.3384,1.2678,1.1598,0.0,0.0,0.0,0.0,0.0,0.0,0.0,0.0,0.0,0.0,0.0,0.0,0.0,0.0,0.0,0.0,0.0,0.0,0.0,0.0,0.0,0.0,0.0,0.0,0.0,0.0,0.0,0.0,0.0939,0.0965,0.0971,0.0,0.0,0.0,0.0,0.0,0.0,0.0,0.0,0.0,0.0,0.1675,0.176,0.1791,0.0,0.0,0.182,0.1809,0.1821,0.1785,0.1699,0.1528,0.1449,0.0,0.0,0.0,0.0,0.0,0.0,0.0,0.0,0.0,0.0,0.0,0.0,0.0,0.0,0.0,0.0,0.0,0.0,0.0,0.0,0.0,0.0,0.0,0.0,0.0,0.0,0.0,0.0,0.0,0.0,0.0,0.0,0.0,0.0,0.0,0.0,0.0,0.0,0.0,0.0,0.0,0.0,0.0,0.0,0.0,0.0,0.0,0.0,0.0,0.0,0.0,0.0,1.0152,1.1216,1.2637,1.3547,1.3896,1.3904,1.3734,1.3376,1.2726,1.1736,0.0,0.0,0.0,0.0,0.0,0.0,0.0,0.0,0.0,0.0,0.0,0.0,0.0,0.0,0.0,0.0,0.0,0.0,0.0,0.0,0.0,0.0,0.0,0.0,0.0,0.0,0.0,0.0,0.1016,0.1018,0.0979,0.0,0.0,0.0,0.0,0.0,0.0,0.0,0.0,0.0,0.0,0.1738,0.1839,0.1854,0.1858,0.1866,0.1851,0.184,0.184,0.1794,0.1716,0.1592,0.0,0.0,0.0,0.0,0.0,0.0,0.0,0.0,0.0,0.0,0.0,0.0,0.0,0.0,0.0,0.0,0.0,0.0,0.0,0.0,0.0,0.0,0.0,0.0,0.0,0.0,0.0,0.0,0.0,0.0,0.0,0.0,0.0,0.0,0.0,0.0,0.0,0.0,0.0,0.0,0.0,0.0,0.0,0.0,0.0,0.0,0.0,0.0,0.0,0.0,0.0,0.0,0.0,1.016,1.1224,1.2645,1.3539,1.3888,1.3904,1.3734,1.3376,1.284,1.1963,1.0696,0.0,0.0,0.0,0.0,0.0,0.0,0.0,0.0,0.0,0.0,0.0,0.0,0.0,0.0,0.0,0.0,0.0,0.0,0.0,0.0,0.0,0.0,0.0,0.0,0.0,0.0,0.099,0.1016,0.0948,0.0,0.0,0.0,0.0,0.0,0.0,0.0,0.0,0.0,0.0,0.1718,0.1814,0.1876,0.1885,0.1896,0.1924,0.1879,0.1842,0.1843,0.1861,0.1812,0.0,0.0,0.0,0.0,0.0,0.0,0.0,0.0,0.0,0.0,0.0,0.0,0.0,0.0,0.0,0.0,0.0,0.0,0.0,0.0,0.0,0.0,0.0,0.0,0.0,0.0,0.0,0.709,0.6619,0.0,0.0,0.0,0.0,0.0,0.0,0.0,0.0,0.0,0.0,0.0,0.9023,0.9559,0.0,0.0,0.0,0.0,0.0,0.0,0.0,0.0,0.0,0.0,0.0,0.0,1.0266,1.1565,1.2759,1.3547,1.3888,1.3904,1.3734,1.3376,1.2962,1.1987,1.0387,0.0,0.0,0.0,0.0,0.0,0.0,0.0,0.0,0.0,0.0,0.0,0.0,0.0,0.0,0.0,0.0,0.0,0.0,0.0,0.0,0.0,0.0,0.0,0.0,0.0,0.1047,0.0,0.0,0.0,0.0,0.0,0.0,0.0,0.0,0.0,0.0,0.0,0.1581,0.169,0.1791,0.187,0.191,0.1933,0.1943,0.0,0.0,0.0,0.0,0.0,0.0,0.0,0.0,0.0,0.0,0.0,0.0,0.0,0.0,0.171,0.144,0.121,0.1032,0.0687,0.0,0.0,0.0,0.0,0.0,0.0,0.0,0.0,0.0,0.0,0.0,0.0,0.0,0.0,0.0,0.0,0.7602,0.0,0.0,0.0,0.0,0.0,0.0,0.0,0.0,0.9518,1.0038,0.9941,1.0461,1.0436,0.0,0.9925,0.9259,0.0,0.0,0.0,0.0,0.0,0.0,0.0,0.0,1.0485,1.1825,1.2921,1.3612,1.3888,1.3904,1.3734,1.3376,1.2905,1.1987,1.0574,0.9843,0.9088,0.0,0.0,0.0,0.0,0.0,0.0,0.0,0.0,0.0,0.0,0.0,0.0,0.0,0.0,0.0,0.0,0.0,0.0,0.0,0.0,0.0,0.0,0.0,0.1103,0.0,0.0,0.0,0.0,0.0,0.0,0.0,0.0,0.0,0.1426,0.1573,0.1712,0.1801,0.1873,0.1925,0.1944,0.0,0.0,0.0,0.0,0.0,0.0,0.0,0.1827,0.1865,0.1824,0.1778,0.1755,0.1827,0.1877,0.1846,0.0,0.0,0.1626,0.1577,0.1379,0.1084,0.1015,0.0934,0.062,0.0318,0.0108,0.0,0.0,0.0,0.0,0.0,0.0,0.0,0.0,0.8917,0.8893,0.0,0.8511,0.0,0.0,0.0,0.0,0.0,0.0,0.0,0.0,1.0891,1.1321,1.1029,1.12,1.1183,1.1037,1.1338,1.0948,0.9868,0.8536,0.0,0.0,0.0,0.0,0.0,0.0,1.081,1.2044,1.31,1.3725,1.3896,1.3904,1.3734,1.3376,1.2694,1.1987,1.1289,1.0899,1.0217,0.9185,0.8446,0.0,0.0,0.0,0.0,0.0,0.0,0.0,0.0,0.0,0.0,0.0,0.0,0.0,0.0,0.0,0.0,0.0,0.0,0.0,0.0,0.1149,0.0,0.0,0.0,0.0,0.0,0.0,0.0,0.0,0.0,0.0,0.1592,0.1711,0.1834,0.1919,0.0,0.0,0.0,0.0,0.1981,0.1982,0.1982,0.1984,0.1984,0.2003,0.1999,0.1948,0.0,0.0,0.1874,0.1928,0.196,0.1872,0.1937,0.1975,0.1941,0.1874,0.1838,0.1839,0.1724,0.1855,0.1768,0.12,0.098,1.0664,0.0,0.0,0.0,0.0,0.99,1.0217,1.072,1.059,1.0249,0.977,0.9673,0.0,0.0,0.0,0.0,0.0,0.0,0.9949,1.0412,1.1159,1.1646,1.1939,1.2361,1.2337,1.1939,1.2028,1.1646,1.0834,1.0176,0.9177,0.7894,0.0,0.0,0.0,0.0,1.1476,1.2572,1.3295,1.3725,1.3896,1.3904,1.3734,1.3376,1.28,1.2337,1.2004,1.1533,1.0891,1.0087,0.9364,0.0,0.0,0.0,0.0,0.0,0.0,0.0,0.0,0.0,0.0,0.0,0.0,0.0,0.0,0.0,0.0,0.0,0.0,0.0,0.1145,0.1161,0.1254,0.0,0.0,0.0,0.0,0.0,0.0,0.0,0.0,0.0,0.1823,0.1884,0.1934,0.0,0.0,0.2023,0.1982,0.203,0.2071,0.2071,0.0,0.0,0.0,0.2074,0.206,0.2086,0.2123,0.2143,0.2131,0.2151,0.2159,0.2131,0.215,0.2159,0.2124,0.2022,0.1951,0.1962,0.1967,0.1977,0.2007,0.1774,0.1783,1.3251,1.1986,1.1056,1.098,1.137,1.1305,1.1524,1.1906,1.1727,1.1411,1.1005,1.0867,1.0404,0.9713,0.9502,0.0,0.0,0.0,1.085,1.1354,1.1817,1.2207,1.2532,1.284,1.2865,1.2629,1.2621,1.2393,1.1963,1.1744,1.0923,0.9543,0.0,0.0,1.0217,1.1094,1.2044,1.3011,1.3506,1.3798,1.3896,1.3831,1.366,1.3376,1.2986,1.2661,1.2418,1.2093,1.1589,1.0883,1.0233,0.9315,0.0,0.0,0.0,0.0,0.0,0.0,0.0,0.0,0.0,0.0,0.0,0.1128,0.0,0.0,0.0,0.0,0.1108,0.1206,0.1284,0.1324,0.0,0.0,0.0,0.0,0.0,0.0,0.0,0.1741,0.1832,0.1913,0.1992,0.228,0.2425,0.2031,0.206,0.2074,0.205,0.0,0.2546,0.2144,0.2713,0.301,0.2326,0.2429,0.2551,0.2184,0.2206,0.2223,0.2241,0.2245,0.2245,0.2245,0.2245,0.224,0.2222,0.2142,0.2083,0.209,0.2101,0.2114,0.2132,0.2135,0.2136,1.6005,1.5739,1.3363,1.2611,1.2856,1.2824,1.275,1.2613,1.2442,1.2353,1.2304,1.1971,1.1719,1.1508,1.1053,0.0,0.0,1.1711,1.2182,1.2385,1.271,1.2865,1.2881,1.2897,1.2978,1.3116,1.3116,1.3108,1.3076,1.3068,1.267,1.1874,1.0891,1.0785,1.1524,1.1939,1.2548,1.3384,1.3725,1.3904,1.3896,1.3717,1.3539,1.3376,1.3181,1.2905,1.258,1.2548,1.2231,1.1573,1.1013,1.0168,0.8982,0.0,0.0,0.0,0.0,0.0,0.0,0.0,0.0,0.0,0.0,0.0,0.0,0.0,0.0,0.0,0.1481,0.0,0.1486,0.1663,0.0,0.0,0.0,0.1686,0.1602,0.1806,0.1903,0.1851,0.0,0.0,0.0,0.0,0.2956,0.2257,0.2252,0.2262,0.229,0.2866,0.3032,0.2483,0.3484,0.3794,0.2674,0.281,0.2948,0.2391,0.2252,0.2255,0.2255,0.2255,0.2253,0.2256,0.2252,0.2253,0.2252,0.2248,0.2244,0.2213,0.2225,0.2241,0.2237,0.2236,0.2233,1.7456,1.7812,1.6383,1.5149,1.4044,1.4,1.3713,1.3165,1.2986,1.2759,1.2491,1.2272,1.2077,1.1914,1.2052,1.2117,1.2142,1.2483,1.2743,1.2905,1.2994,1.3108,1.3246,1.3384,1.3401,1.3311,1.3303,1.3238,1.3092,1.2962,1.2856,1.2775,1.2523,1.2231,1.1947,1.267,1.3222,1.3579,1.379,1.3904,1.3888,1.3595,1.3417,1.3368,1.3068,1.2791,1.2572,1.2434,1.2223,1.1906,1.1265,1.0582,0.9868,0.8568,0.0,0.0,0.0,0.0,0.0,0.0,0.0,0.0,0.0,0.2097,0.1617,0.0,0.1668,0.0,0.2875,0.2601,0.1679,0.2077,0.0,0.0,0.2245,0.2376,0.198,0.238,0.2551,0.2129,0.2076,0.2403,0.2987,0.2755,0.2637,0.3042,0.304,0.3032,0.3152,0.2794,0.2694,0.312,0.3006,0.2888,0.3177,0.2745,0.2455,0.2312,0.2312,0.2312,0.2311,0.2312,0.2312,0.2312,0.2312,0.2312,0.2311,0.2312,0.2309,0.23,0.2273,0.2245,0.2245,0.2247,0.2247,1.8937,1.9202,1.8441,1.7497,1.6226,1.5615,1.4928,1.4145,1.3959,1.3501,1.3043,1.2946,1.2751,1.2523,1.28,1.2873,1.2816,1.2994,1.3124,1.3214,1.3222,1.3271,1.3368,1.3474,1.3514,1.349,1.349,1.3482,1.3449,1.336,1.336,1.3449,1.3457,1.3254,1.2897,1.3287,1.3579,1.3758,1.3855,1.3904,1.3896,1.3636,1.3376,1.3141,1.2865,1.2556,1.2223,1.2117,1.1947,1.1679,1.1224,1.0729,1.0184,0.9177,0.8273,0.0,0.0,0.0,0.0,0.0,0.0,0.0,0.0,0.0,0.0,0.0,0.2302,0.0,0.0,0.0,0.2877,0.3141,0.3229,0.2895,0.3236,0.3393,0.304,0.3344,0.3528,0.3206,0.2987,0.3032,0.3769,0.352,0.3546,0.4416,0.4422,0.4259,0.3654,0.356,0.3751,0.3609,0.3771,0.3644,0.3646,0.2771,0.2333,0.2333,0.2333,0.2333,0.2333,0.2333,0.2333,0.2333,0.2333,0.2333,0.2333,0.2333,0.2333,0.2328,0.2307,0.2288,0.2285,0.2283,0.2285,2.0328,2.0264,1.9822,1.9319,1.8509,1.7351,1.6155,1.5195,1.5008,1.45,1.3784,1.3784,1.3612,1.3214,1.3392,1.3401,1.3279,1.3409,1.3474,1.3474,1.3474,1.3474,1.3474,1.3498,1.3579,1.3709,1.3709,1.3782,1.3896,1.3904,1.3904,1.3904,1.392,1.3937,1.3928,1.3807,1.3798,1.3896,1.3904,1.3904,1.3896,1.3709,1.336,1.2865,1.2637,1.2272,1.1736,1.1776,1.1654,1.1313,1.1126,1.0834,1.0379,0.977,0.9148,0.0,0.7168,0.0,0.0,0.0,0.0,0.0,0.0,0.0,0.0,0.3316,0.3192,0.3707,0.4119,0.4358,0.4229,0.4394,0.4478,0.431,0.4522,0.4562,0.4395,0.4476,0.4563,0.4628,0.3935,0.3813,0.4575,0.4586,0.4749,0.5515,0.5525,0.5066,0.4169,0.4771,0.495,0.3791,0.481,0.481,0.3791,0.2771,0.2333,0.2333,0.2333,0.2333,0.2333,0.2333,0.2333,0.2333,0.2333,0.2333,0.2333,0.2333,0.2333,0.2333,0.233,0.2328,0.2328,0.2327,0.2333,2.0963,2.0748,2.0479,2.0253,1.9906,1.9457,1.8107,1.6262,1.6065,1.5466,1.4623,1.4614,1.4238,1.3758,1.3945,1.4083,1.4172,1.4075,1.4026,1.4026,1.4026,1.4026,1.4034,1.4164,1.4172,1.4083,1.4075,1.4018,1.3904,1.3904,1.3904,1.3904,1.405,1.4131,0.0,0.0,0.0,0.0,1.3904,1.3904,1.3888,1.3587,1.323,1.2848,1.2523,0.0,1.1386,1.1744,1.189,1.1679,1.15,0.0,0.0,0.0,0.0,0.0,0.0,0.0,0.0,0.0,0.0,0.0,0.4654,0.4166,0.4339,0.5006,0.5058,0.4315,0.5319,0.5657,0.4496,0.4933,0.5133,0.4678,0.5077,0.5208,0.4704,0.5008,0.5188,0.469,0.4414,0.4723,0.5355,0.4501,0.4361,0.5535,0.5247,0.5096,0.5377,0.5096,0.481,0.4519,0.4819,0.4522,0.3646,0.2919,0.2484,0.2333,0.2333,0.2334,0.2337,0.2334,0.2334,0.2334,0.2333,0.2334,0.2333,0.2333,0.2335,0.2333,0.2334,0.2333,0.2333,0.2333,0.2333,2.2155,0.0,2.114,2.0662,0.0,0.0,1.9369,1.8269,1.7388,1.6301,1.4894,1.4991,1.4617,1.3912,1.4091,1.4229,1.4302,1.4221,1.418,1.4172,1.4083,1.4042,1.4042,1.4131,1.4172,1.418,1.418,1.4172,1.4164,1.4164,1.4164,1.4164,1.4261,1.4302,1.4302,1.4302,1.4213,1.4042,1.4042,1.3993,1.3896,1.3555,1.3157,1.2718,0.0,0.0,0.0,0.0,0.0,0.0,0.0,0.0,0.0,0.0,0.0,0.9698,0.8686,0.7679,0.6899,0.6183,0.5802,0.6027,0.5831,0.5462,0.5017,0.578,0.6039,0.5479,0.6262,0.6418,0.5822,0.5994,0.6038,0.5792,0.6041,0.6034,0.5792,0.6114,0.6155,0.576,0.548,0.5496,0.6257,0.5389,0.5113,0.6169,0.6176,0.5897,0.5927,0.5907,0.5746,0.5487,0.5049,0.4604,0.4305,0.386,0.3563,0.3563,0.3267,0.2972,0.297,0.2659,0.2354,0.2356,0.2356,0.2352,0.2337,0.2343,0.2356,0.2356,0.2356,0.2361,0.2371,0.2354,0.2333,2.3015,2.2682,2.153,2.0963,2.0942,2.0565,2.035,2.0231,0.0,0.0,0.0,1.5669,1.5067,1.4104,1.443,1.4383,1.427,1.4278,1.427,1.427,1.4115,1.4042,1.4042,1.4075,1.4156,1.427,1.427,1.4326,1.4432,1.4432,1.4432,1.4432,1.4464,1.4481,1.4464,1.431,1.4205,1.418,1.4148,1.4058,1.3896,1.3587,1.3173,1.267,1.2458,1.2028,1.1354,1.1533,1.1419,1.0964,1.1265,1.1395,1.1273,1.15,1.13,1.0475,0.9621,0.8694,0.7832,0.6965,0.6509,0.6464,0.6684,0.6541,0.569,0.6273,0.6692,0.6709,0.6909,0.7007,0.6933,0.6974,0.6982,0.6909,0.6888,0.6876,0.6884,0.6958,0.7011,0.7015,0.6443,0.6305,0.6897,0.6312,0.6183,0.6833,0.6853,0.6884,0.6495,0.6604,0.6574,0.6029,0.5277,0.4834,0.4686,0.4381,0.4537,0.4226,0.3778,0.3482,0.3325,0.2852,0.2538,0.2386,0.2386,0.2376,0.2357,0.2371,0.2386,0.2387,0.2386,0.2394,0.2412,0.2384,0.2353,2.2545,2.1588,2.1394,2.1222,2.1222,2.1157,2.0888,2.0447,1.9393,1.8373,1.7554,1.7215,1.6301,1.5154,1.5337,1.5075,1.4627,1.4635,1.4635,0.0,1.4603,1.4594,1.4603,1.4749,1.4749,1.4643,1.4635,1.4562,1.444,1.4432,1.4432,1.4456,1.4586,1.4667,1.4659,1.4489,1.4326,1.418,1.4018,1.3928,1.3896,1.3709,1.3417,1.3035,1.2702,1.2272,1.1736,1.202,1.2085,1.1866,1.2182,1.2369,1.2337,1.2247,1.1775,1.0798,0.9907,0.9018,0.8138,0.7296,0.686,0.7003,0.7121,0.7096,0.6757,0.6982,0.7084,0.7158,0.7194,0.7219,0.7203,0.7145,0.7109,0.7084,0.7015,0.6974,0.6978,0.7052,0.7109,0.7109,0.7178,0.7065,0.7057,0.6612,0.6312,0.6939,0.68,0.6521,0.688,0.669,0.6197,0.5899,0.5292,0.4537,0.4247,0.3179,0.3186,0.2725,0.2881,0.2734,0.2886,0.2574,0.2417,0.2417,0.2417,0.2414,0.2408,0.2413,0.2417,0.2417,0.2417,0.2421,0.2429,0.2418,0.241,2.3348,2.3187,2.1922,2.1276,2.1276,2.1276,2.1157,2.0888,2.0221,1.9243,1.8285,1.7935,1.6894,1.5496,1.5527,1.5163,1.4424,1.4619,1.4708,1.4716,1.4806,1.4846,1.4854,1.4927,1.4927,1.4854,1.4846,1.4806,1.4724,1.4724,1.4724,1.4716,1.4716,1.4611,1.4424,1.4335,1.4205,1.4034,1.4042,1.4002,1.3904,1.3734,1.3514,1.3246,1.3084,1.28,1.2377,1.2596,1.2605,1.2328,1.2661,1.2808,1.2718,1.2913,1.2484,1.1397,1.0515,0.9573,0.8556,0.7575,0.7109,0.7194,0.728,0.7301,0.7215,0.7203,0.7219,0.726,0.7301,0.7313,0.7272,0.7268,0.7268,0.7268,0.719,0.7158,0.7194,0.7194,0.7199,0.7203,0.7235,0.7264,0.7264,0.6962,0.6831,0.7321,0.706,0.6957,0.7456,0.7119,0.6788,0.6788,0.648,0.6169,0.5704,0.5091,0.4629,0.4475,0.3704,0.3243,0.3087,0.2768,0.245,0.2448,0.2448,0.2442,0.2429,0.2439,0.2446,0.2448,0.2448,0.2453,0.2466,0.2473,0.2462,2.4158,2.4641,2.2335,2.133,2.1276,2.1276,2.1276,2.1233,2.0877,2.0072,1.9088,1.8751,1.7714,1.6232,1.625,1.5807,1.499,1.4944,1.5093,1.5134,1.504,1.4927,1.4952,1.4927,1.4927,1.496,1.4968,1.4968,1.4968,1.4968,1.4944,1.4887,1.4692,1.4448,1.418,1.414,1.4042,1.392,1.4042,1.4042,1.3904,1.3766,1.3652,1.3563,1.3514,1.336,1.31,1.3165,1.3076,1.2791,1.3051,1.3157,1.3051,1.3409,1.3037,1.1992,1.1193,1.0203,0.8982,0.7977,0.7329,0.7354,0.7415,0.746,0.7472,0.7423,0.7374,0.7366,0.7423,0.7427,0.7382,0.739,0.7411,0.739,0.7313,0.7276,0.7341,0.7317,0.7292,0.7292,0.7309,0.7325,0.7321,0.7321,0.7354,0.7419,0.748,0.7521,0.7525,0.7525,0.7525,0.7525,0.7369,0.6889,0.7056,0.6268,0.5796,0.5802,0.4547,0.376,0.3445,0.2803,0.2636,0.248,0.248,0.2472,0.2453,0.2462,0.2477,0.2478,0.2478,0.2485,0.2504,0.2508,0.25,2.5009,2.3998,2.2322,2.1459,2.1297,2.1286,2.1286,2.1276,2.1222,2.106,2.0537,2.0102,1.9093,1.8289,1.816,1.7767,1.6991,1.6447,1.6094,1.6052,1.5176,1.4814,1.4968,1.4822,1.4814,1.496,1.4976,1.4976,1.4968,1.4968,1.4887,1.4708,1.4391,1.4229,1.4164,1.401,1.392,1.3904,1.392,1.392,1.3904,1.3888,1.3945,1.4099,1.3937,1.3839,1.3782,1.3669,1.3506,1.3336,1.349,1.3587,1.3571,1.3628,1.3146,1.2266,1.2029,1.1192,0.945,0.8216,0.7533,0.7615,0.7623,0.7664,0.7733,0.7742,0.7709,0.7635,0.7623,0.7615,0.7623,0.7554,0.748,0.7419,0.7333,0.7268,0.7301,0.7337,0.7378,0.7378,0.7439,0.7501,0.748,0.748,0.7493,0.7493,0.7509,0.7525,0.7525,0.7525,0.7525,0.7369,0.69,0.6275,0.5648,0.5179,0.5179,0.4395,0.4081,0.3611,0.3139,0.2825,0.2508,0.2502,0.2506,0.2502,0.2503,0.2508,0.2507,0.2503,0.2504,0.251,0.2514,0.2514,0.2507,2.5754,2.4918,2.3668,2.2422,2.1839,2.1545,2.148,2.147,2.133,2.1222,2.1103,2.0813,2.0093,1.8866,1.8948,1.8153,1.6815,1.6463,1.6095,1.5705,1.5351,1.5228,1.5277,1.522,1.5179,1.513,1.513,1.5074,1.4984,1.4968,1.4879,1.47,1.4448,1.4278,1.4172,1.3993,1.3904,1.3904,1.401,1.401,1.3928,1.401,1.4099,1.4172,1.4205,1.4213,1.4213,1.414,1.4075,1.401,1.4066,1.4058,1.3969,1.4156,1.3961,1.3506,1.317,1.2338,1.0814,0.9529,0.8819,0.9021,0.8224,0.7742,0.7717,0.7717,0.7701,0.7672,0.7664,0.7644,0.7591,0.7546,0.7529,0.7533,0.7472,0.7435,0.7497,0.748,0.7468,0.7472,0.7501,0.7525,0.7525,0.7525,0.7525,0.7525,0.7525,0.7525,0.7525,0.7525,0.7525,0.7525,0.7213,0.69,0.6427,0.5962,0.5648,0.5332,0.4863,0.4238,0.3454,0.3299,0.314,0.2671,0.2514,0.2514,0.2511,0.2514,0.2514,0.2514,0.2514,0.2514,0.2514,0.2514,0.2514,2.6313,2.5803,2.4246,2.3022,2.1954,2.1793,2.1685,2.1599,2.1437,2.134,2.1276,2.1276,2.0676,1.9761,1.9657,1.8747,1.769,1.7299,1.6903,1.6477,1.6064,1.5781,1.5822,1.5455,1.5398,1.5325,1.5317,1.5244,1.5122,1.5057,1.4976,1.4838,1.4667,1.4513,1.4391,1.4253,1.4196,1.4213,1.4335,1.4302,1.4188,1.4351,1.4399,1.4278,1.4367,1.4456,1.4505,1.4505,1.4505,1.4505,1.4505,1.4473,1.4416,1.4643,1.4741,1.4541,1.3774,1.3054,1.2305,1.0644,0.9728,0.9728,0.8603,0.777,0.7717,0.7701,0.7689,0.7664,0.7664,0.7631,0.7578,0.7562,0.7586,0.7619,0.7562,0.7558,0.7603,0.7562,0.7521,0.7525,0.7521,0.7525,0.7525,0.7525,0.7525,0.7525,0.7525,0.7525,0.7525,0.7525,0.7525,0.7525,0.7525,0.7525,0.7525,0.7056,0.6584,0.6275,0.5648,0.5022,0.4081,0.3768,0.3454,0.2671,0.2671,0.2514,0.2514,0.2514,0.2514,0.2514,0.2514,0.2514,0.2514,0.2514,0.2514,2.6719,2.633,2.3586,2.236,2.1976,2.1965,2.1825,2.1663,2.1609,2.1491,2.1308,2.1286,2.1265,2.1179,2.0783,2.0708,2.0496,1.9529,1.9085,1.9045,1.7326,1.6608,1.6581,1.5648,1.535,1.5655,1.5504,1.5488,1.5455,1.5309,1.5228,1.5204,1.5017,1.4927,1.4895,1.4862,1.4903,1.4846,1.4871,1.483,1.4716,1.4992,1.4911,1.4505,1.4448,1.4562,1.4692,1.4708,1.4708,1.4708,1.4716,1.4773,1.4903,1.4944,1.5033,1.5023,1.3975,1.3426,1.3075,1.1177,0.9733,0.9567,0.8603,0.7795,0.777,0.7766,0.7729,0.7668,0.766,0.7656,0.7648,0.7627,0.7603,0.755,0.7533,0.7529,0.7533,0.7537,0.7525,0.7525,0.7525,0.7525,0.7525,0.7525,0.7525,0.7525,0.7525,0.7525,0.7525,0.7525,0.7525,0.7525,0.7525,0.7525,0.7525,0.7213,0.69,0.6431,0.5962,0.5492,0.4552,0.3768,0.3299,0.2828,0.2671,0.2514,0.2514,0.2514,0.2514,0.2514,0.2514,0.2514,0.2514,0.2514,0.2514,2.8278,2.6588,2.3778,2.2503,2.2417,2.2266,2.2159,2.2062,2.1911,2.1717,2.1523,2.1491,2.1416,2.1276,2.119,2.0814,2.032,1.9916,1.9443,1.9008,1.8219,1.7879,1.7925,1.7073,1.6521,1.6478,1.5996,1.5626,1.552,1.5439,1.5415,1.5382,1.5228,1.5139,1.5122,1.5025,1.4968,1.4976,1.5074,1.5057,1.4919,1.5114,1.5139,1.4976,1.5065,1.5155,1.522,1.5228,1.5228,1.5228,1.5228,1.5195,1.5155,1.5252,1.4916,1.4434,1.3901,1.345,1.2437,1.0807,0.98,0.9738,0.8603,0.7778,0.7725,0.7709,0.7672,0.7611,0.764,0.766,0.7652,0.7611,0.7562,0.7533,0.7525,0.7533,0.7525,0.7525,0.7525,0.7525,0.7525,0.7525,0.7525,0.7525,0.7525,0.7525,0.7525,0.7525,0.7525,0.7525,0.7525,0.7525,0.7525,0.7369,0.6744,0.6744,0.6587,0.6275,0.5802,0.5022,0.4081,0.3925,0.3454,0.2828,0.2514,0.2514,0.2514,0.2514,0.2514,0.2514,0.2514,0.2514,0.2514,0.2514,0.2514,2.7941,2.5397,2.3537,2.2686,2.2665,2.2514,2.2406,2.232,2.2159,2.1954,2.1749,2.1653,2.1523,2.1394,2.1308,2.0952,2.0455,2.0455,2.013,1.9469,1.9307,1.9144,1.8981,1.801,1.7293,1.7016,1.6349,1.5796,1.5699,1.5683,1.5691,1.5683,1.5553,1.5496,1.548,1.5374,1.5317,1.5342,1.5439,1.5415,1.5277,1.5407,1.5472,1.5447,1.5585,1.5626,1.5528,1.5512,1.5545,1.5585,1.5593,1.5569,1.552,1.5618,1.5054,1.398,1.3903,1.3432,1.203,1.0705,0.9856,0.9795,0.868,0.7848,0.7762,0.775,0.7729,0.7717,0.7717,0.7754,0.7774,0.7742,0.7676,0.7631,0.7615,0.7615,0.7615,0.7615,0.7603,0.7582,0.7578,0.7562,0.7529,0.7525,0.7525,0.7525,0.7525,0.7525,0.7525,0.7525,0.7525,0.7525,0.7525,0.7213,0.6587,0.6118,0.5962,0.5645,0.5332,0.4552,0.4081,0.3768,0.3454,0.2828,0.2514,0.2514,0.2514,0.2514,0.2514,0.2514,0.2514,0.2514,0.2514,0.2514,0.2514,2.5409,2.3193,2.2686,2.2686,2.2686,2.2654,2.2546,2.2374,2.2342,2.2202,2.1965,2.176,2.1674,2.1588,2.1437,2.1319,2.1189,2.1199,2.1157,2.0952,2.0292,1.9957,1.9805,1.8174,1.7363,1.7173,1.6361,1.6032,1.5999,1.5991,1.6164,1.6024,1.6147,1.6106,1.6016,1.5943,1.5983,1.5959,1.5951,1.5902,1.5813,1.5894,1.5886,1.5772,1.5902,1.5829,1.5536,1.5536,1.5634,1.5756,1.578,1.5861,1.5943,1.5991,1.5287,1.4001,1.3824,1.3166,1.1861,1.0394,0.9743,0.9573,0.8663,0.7999,0.7934,0.7921,0.7942,0.7978,0.7966,0.7962,0.8019,0.8023,0.7962,0.7831,0.7791,0.7782,0.7791,0.7791,0.7762,0.7684,0.7664,0.7623,0.7558,0.7542,0.7546,0.7546,0.7533,0.7525,0.7525,0.7525,0.7525,0.7525,0.7525,0.7213,0.6431,0.5645,0.5179,0.4865,0.4706,0.4238,0.3768,0.3454,0.3142,0.2671,0.2514,0.2514,0.2514,0.2514,0.2514,0.2514,0.2514,0.2514,0.2514,0.2514,0.2514,2.5738,2.4041,2.302,2.2686,2.2686,2.2686,2.2632,2.2579,2.2568,2.2449,2.2234,2.2148,2.2019,2.1879,2.1782,2.176,2.1771,2.1749,2.1588,2.1167,2.0465,1.9978,1.9652,1.8183,1.7035,1.6542,1.6213,1.6048,1.6213,1.6698,1.7035,1.7035,1.7026,1.7035,1.6854,1.6377,1.6048,1.6048,1.6048,1.6016,1.5967,1.6016,1.5951,1.5804,1.5829,1.5748,1.5545,1.5748,1.5902,1.5943,1.5959,1.5934,1.5894,1.5983,1.4803,1.2873,1.2604,1.1659,0.9677,0.9013,0.868,0.8689,0.8219,0.8048,0.8027,0.8027,0.804,0.8076,0.8089,0.8113,0.8081,0.8121,0.8097,0.7991,0.7929,0.7893,0.7885,0.784,0.7791,0.7766,0.7758,0.7742,0.7709,0.7668,0.7619,0.7615,0.7574,0.7537,0.7529,0.7533,0.7525,0.7525,0.7369,0.69,0.5802,0.5022,0.4552,0.4081,0.3768,0.3768,0.3297,0.3142,0.2828,0.2671,0.2514,0.2514,0.2514,0.2514,0.2514,0.2514,0.2514,0.2514,0.2514,0.2514,0.2514,2.5738,2.3869,2.302,2.2686,2.2686,2.2686,2.2686,2.2686,2.2686,2.26,2.2471,2.2363,2.2256,2.2105,2.2008,2.1976,2.1986,2.1976,2.1814,2.1402,2.0714,2.0375,2.0375,1.8891,1.7408,1.6393,1.6178,1.627,1.6534,1.6957,1.7214,1.7161,1.7468,1.7135,1.682,1.6495,1.617,1.5845,1.5845,1.5845,1.5845,1.5845,1.5796,1.5691,1.5675,1.5618,1.5545,1.574,1.5845,1.5845,1.5845,1.5813,1.578,1.538,1.4109,1.2459,1.1505,1.0404,0.8441,0.8277,0.813,0.8158,0.8195,0.8215,0.8215,0.8215,0.8215,0.8228,0.8232,0.8228,0.8187,0.8207,0.8219,0.817,0.8052,0.7991,0.7974,0.7934,0.7885,0.7864,0.7848,0.7836,0.7791,0.7758,0.7713,0.7701,0.7664,0.7603,0.7591,0.7578,0.7409,0.7232,0.69,0.6115,0.4865,0.4238,0.3925,0.3297,0.2828,0.2828,0.2671,0.2671,0.2514,0.2514,0.2514,0.2514,0.2514,0.2514,0.2514,0.2514,0.2514,0.2514,0.2514,0.2514,0.2514,2.5056,2.2859,2.2686,2.2686,2.2686,2.2686,2.2686,2.2686,2.2686,2.2675,2.2622,2.2471,2.2363,2.2309,2.2169,2.2094,2.204,2.2072,2.2072,2.1851,2.1159,2.0971,2.1055,1.9706,1.8361,1.718,1.6726,1.6909,1.7451,1.7302,1.7021,1.7128,1.759,1.7145,1.625,1.6333,1.6191,1.5569,1.5553,1.5553,1.5561,1.5593,1.5577,1.5577,1.5618,1.5626,1.561,1.5642,1.5601,1.5545,1.5634,1.574,1.561,1.449,1.3473,1.2235,1.0909,0.9656,0.8531,0.8228,0.826,0.8346,0.8411,0.8481,0.8452,0.8428,0.8415,0.8419,0.8366,0.8317,0.8305,0.8301,0.8297,0.8289,0.815,0.8072,0.806,0.8052,0.8007,0.7954,0.7938,0.7917,0.7844,0.7823,0.7807,0.7803,0.7787,0.7729,0.7693,0.766,0.7148,0.6968,0.6637,0.5676,0.4581,0.4084,0.377,0.2985,0.2514,0.2515,0.2514,0.2514,0.2514,0.2514,0.2514,0.2514,0.2514,0.2514,0.2514,0.2514,0.2514,0.2514,0.2514,0.2515,0.2202,2.4212,2.2686,2.2686,2.2686,2.2686,2.2686,2.2686,2.2686,2.2686,2.2686,2.2665,2.2622,2.2579,2.2579,2.2514,2.2503,2.2471,2.2471,2.2492,2.2321,2.1635,2.0577,2.018,1.9615,1.9119,1.8612,1.7882,1.7989,1.8783,1.8005,1.7897,1.8402,1.7882,1.7279,1.6682,1.6073,1.568,1.5512,1.552,1.5528,1.5569,1.578,1.5837,1.574,1.5943,1.5991,1.5918,1.5902,1.5837,1.574,1.5967,1.604,1.5835,1.484,1.3587,1.2228,1.0944,0.9673,0.8718,0.8395,0.844,0.8522,0.8534,0.8575,0.857,0.8509,0.8477,0.8456,0.8391,0.8305,0.8252,0.8232,0.8207,0.815,0.8138,0.8121,0.8076,0.806,0.8048,0.8032,0.8023,0.8003,0.7978,0.7934,0.7901,0.7889,0.7852,0.7803,0.7613,0.7597,0.7252,0.6752,0.6254,0.5266,0.4447,0.4099,0.3615,0.2828,0.2515,0.2515,0.2515,0.2514,0.2514,0.2514,0.2514,0.2514,0.2514,0.2514,0.2514,0.2518,0.2519,0.2522,0.2518,0.2517,0.189,2.3869,2.2686,2.2686,2.2686,2.2686,2.2686,2.2686,2.2686,2.2686,2.2686,2.2686,2.2686,2.2686,2.2686,2.2675,2.2686,2.2686,2.2686,2.2675,2.2675,2.2147,2.114,2.0104,1.9885,2.0055,1.9524,1.8587,1.8506,1.9091,1.8698,1.8375,1.8339,1.8393,1.7783,1.6546,1.6444,1.6062,1.574,1.574,1.574,1.5764,1.5934,1.5975,1.5926,1.6097,1.6137,1.6056,1.6113,1.6073,1.5967,1.6081,1.5846,1.518,1.414,1.2898,1.1555,1.0264,0.9127,0.8682,0.853,0.8534,0.8546,0.855,0.853,0.8489,0.844,0.8407,0.835,0.8305,0.8236,0.8162,0.8142,0.8113,0.8085,0.8109,0.8117,0.8064,0.806,0.806,0.806,0.806,0.806,0.806,0.8015,0.7995,0.7983,0.7954,0.7741,0.7374,0.737,0.7026,0.6185,0.5515,0.4517,0.3862,0.336,0.3347,0.2704,0.2534,0.2532,0.2522,0.2521,0.2514,0.2514,0.2514,0.2514,0.2514,0.2518,0.2525,0.2527,0.2529,0.2538,0.2541,0.2061,0.1428,2.3869,2.2686,2.2686,2.2686,2.2686,2.2686,2.2686,2.2686,2.2686,2.2686,2.2686,2.2686,2.2686,2.2686,2.2686,2.2686,2.2686,2.2686,2.2686,2.2686,2.2514,2.177,2.0702,2.1038,2.1048,2.0337,1.9167,1.9201,1.959,1.9212,1.8505,1.8081,1.898,1.8229,1.6715,1.6689,1.6698,1.6008,1.5983,1.5983,1.6008,1.6097,1.6154,1.6162,1.6259,1.6292,1.6284,1.6332,1.6349,1.6178,1.5972,1.5416,1.4337,1.2997,1.1755,1.0708,0.9532,0.8694,0.857,0.8566,0.8542,0.8477,0.8456,0.8428,0.837,0.8338,0.8297,0.824,0.8195,0.815,0.8097,0.8068,0.8068,0.8064,0.8068,0.8064,0.806,0.806,0.806,0.806,0.806,0.806,0.806,0.806,0.8056,0.8027,0.7845,0.7489,0.7128,0.679,0.6107,0.5092,0.4418,0.375,0.3254,0.2762,0.2755,0.2586,0.257,0.2559,0.2541,0.2533,0.2519,0.2514,0.2514,0.2514,0.2515,0.2521,0.2534,0.2545,0.2552,0.2572,0.2427,0.1611,0.0804,2.302,2.2686,2.2686,2.2686,2.2686,2.2686,2.2686,2.2686,2.2686,2.2686,2.2686,2.2686,2.2686,2.2686,2.2686,2.2686,2.2686,2.2686,2.2686,2.2686,2.2686,2.2514,2.1984,2.2341,2.2168,2.1791,2.1078,2.1008,2.1282,1.9656,1.8741,1.8873,1.7855,1.7061,1.6443,1.6352,1.6213,1.6056,1.6073,1.6105,1.6178,1.6357,1.6462,1.6487,1.6698,1.6852,1.6877,1.6917,1.6917,1.6514,1.5699,1.4758,1.4119,1.2301,1.0967,1.0303,0.9268,0.855,0.8513,0.8501,0.846,0.8379,0.8362,0.8354,0.8338,0.826,0.8223,0.8183,0.8138,0.8093,0.8068,0.806,0.806,0.806,0.806,0.806,0.806,0.806,0.806,0.806,0.806,0.806,0.806,0.806,0.806,0.8064,0.7725,0.7383,0.6867,0.6356,0.5333,0.431,0.3803,0.3297,0.2964,0.263,0.2622,0.2615,0.2601,0.2585,0.2567,0.2551,0.2538,0.2526,0.2514,0.2518,0.2533,0.2541,0.2559,0.2567,0.2579,0.2436,0.2122,0.1141,-0.0,2.2686,2.2686,2.2686,2.2686,2.2686,2.2686,2.2686,2.2686,2.2686,2.2686,2.2686,2.2686,2.2686,2.2686,2.2686,2.2686,2.2686,2.2686,2.2686,2.2686,2.2686,2.2686,2.2686,2.2686,2.2686,2.2503,2.1638,2.1475,2.0945,2.0066,1.8949,1.8539,1.7733,1.7312,1.6698,1.6568,1.6576,1.6576,1.6544,1.6544,1.6592,1.6714,1.6828,1.6844,1.7006,1.7112,1.7096,1.7096,1.6745,1.6019,1.4724,1.3806,1.3637,1.1931,1.055,0.9665,0.9087,0.853,0.8477,0.8428,0.8366,0.8277,0.8268,0.8244,0.8215,0.8158,0.8142,0.8125,0.8093,0.806,0.806,0.806,0.806,0.806,0.8064,0.806,0.806,0.806,0.806,0.806,0.806,0.806,0.806,0.806,0.806,0.8064,0.7223,0.6885,0.6044,0.5368,0.4533,0.3848,0.3506,0.3168,0.2833,0.2658,0.2646,0.2638,0.2627,0.2611,0.2592,0.2575,0.256,0.2552,0.2547,0.2557,0.257,0.2577,0.2586,0.2605,0.2455,0.23,0.1484,0.0331,-0.0995,2.2686,2.2686,2.2686,2.2686,2.2686,2.2686,2.2686,2.2686,2.2686,2.2686,2.2686,2.2686,2.2686,2.2686,2.2686,2.2686,2.2686,2.2686,2.2686,2.2686,2.2686,2.2686,2.2686,2.2686,2.2686,2.2514,2.1995,2.1292,2.0598,1.9892,1.9021,1.7797,1.7805,1.7563,1.708,1.7096,1.7023,1.6998,1.699,1.7006,1.7023,1.7055,1.7063,1.7071,1.7088,1.7112,1.7112,1.6936,1.6577,1.4977,1.3545,1.2832,1.2302,1.1261,1.0021,0.8603,0.853,0.8473,0.8424,0.8362,0.8277,0.8187,0.8179,0.8146,0.8093,0.8081,0.8076,0.8081,0.8076,0.8093,0.8085,0.8121,0.8113,0.8093,0.8085,0.8076,0.8064,0.806,0.806,0.806,0.806,0.806,0.806,0.806,0.806,0.7729,0.7056,0.6218,0.5379,0.4539,0.3868,0.3532,0.3355,0.3017,0.268,0.2677,0.2667,0.2661,0.2652,0.2641,0.2626,0.2623,0.2612,0.2594,0.259,0.2596,0.26,0.2604,0.2617,0.2642,0.2157,0.1662,0.0668,-0.0672,-0.1846,2.2686,2.2686,2.2686,2.2686,2.2686,2.2686,2.2686,2.2686,2.2686,2.2686,2.2686,2.2686,2.2686,2.2686,2.2686,2.2686,2.2686,2.2686,2.2686,2.2686,2.2686,2.2686,2.2686,2.2686,2.2686,2.2686,2.2341,2.1649,2.0945,2.025,1.903,1.8339,1.7639,1.7288,1.7112,1.7112,1.7112,1.7112,1.7112,1.7112,1.7112,1.7112,1.7096,1.7088,1.708,1.7071,1.708,1.7096,1.6401,1.497,1.3624,1.2179,1.0957,0.9791,0.8935,0.874,0.8493,0.8415,0.8358,0.8272,0.8179,0.8109,0.8101,0.8101,0.8076,0.8072,0.8097,0.8105,0.8142,0.8179,0.8179,0.8223,0.8236,0.8203,0.8162,0.8142,0.8089,0.8064,0.8064,0.806,0.806,0.806,0.806,0.806,0.7725,0.7391,0.6385,0.5882,0.5211,0.4204,0.3363,0.3195,0.3195,0.3026,0.269,0.2688,0.2684,0.2682,0.2676,0.2676,0.2669,0.2677,0.2668,0.2638,0.2619,0.2613,0.2619,0.263,0.2639,0.2656,0.1836,0.1006,0.0336,-0.0672,-0.2184,2.2686,2.2686,2.2686,2.2686,2.2686,2.2686,2.2686,2.2686,2.2686,2.2686,2.2686,2.2686,2.2686,2.2686,2.2686,2.2686,2.2686,2.2686,2.2686,2.2686,2.2686,2.2686,2.2686,2.2686,2.2341,2.2168,2.1995,2.1465,2.0598,1.9553,1.8681,1.7814,1.7288,1.7112,1.7112,1.7112,1.7112,1.7112,1.7112,1.7104,1.7104,1.7104,1.7071,1.699,1.6966,1.6933,1.6844,1.6836,1.5782,1.4021,1.2928,1.1519,0.9971,0.8952,0.8464,0.8452,0.8387,0.8321,0.826,0.8183,0.8125,0.8142,0.8134,0.8162,0.8187,0.8211,0.8195,0.8211,0.8223,0.8268,0.8272,0.8317,0.8305,0.8272,0.8236,0.8187,0.8138,0.8093,0.8072,0.8064,0.806,0.806,0.806,0.7893,0.7558,0.6888,0.5882,0.5379,0.4707,0.3868,0.2859,0.3027,0.3029,0.2861,0.2692,0.2692,0.2692,0.2692,0.2692,0.2692,0.2692,0.2691,0.2684,0.2667,0.2652,0.2638,0.2652,0.2667,0.2668,0.2669,0.2177,0.1512,0.0504,-0.0672,-0.2352,2.2686,2.2686,2.2686,2.2686,2.2686,2.2686,2.2686,2.2686,2.2686,2.2686,2.2686,2.2686,2.2686,2.2686,2.2686,2.2686,2.2686,2.2686,2.2686,2.2686,2.2686,2.2686,2.2686,2.2514,2.2341,2.1475,2.1118,2.0598,1.9728,1.9039,1.7989,1.7463,1.7112,1.7112,1.7112,1.7112,1.7112,1.7104,1.7063,1.7047,1.7015,1.6998,1.695,1.6812,1.6795,1.673,1.6641,1.6275,1.4893,1.333,1.2099,1.0875,0.8818,0.8289,0.8281,0.8268,0.8223,0.8207,0.8183,0.8154,0.8138,0.8174,0.8211,0.826,0.8297,0.8305,0.8317,0.8338,0.8358,0.8362,0.8366,0.8387,0.8383,0.8354,0.8301,0.8236,0.8187,0.8138,0.8093,0.8081,0.8068,0.806,0.7893,0.7558,0.7056,0.6218,0.5379,0.4539,0.4036,0.3532,0.2861,0.2692,0.2692,0.2692,0.2692,0.2692,0.2692,0.2692,0.2692,0.2692,0.2692,0.2691,0.2686,0.268,0.2682,0.2673,0.2688,0.2692,0.2686,0.2683,0.252,0.1514,0.0,-0.1344,-0.2858,2.2686,2.2686,2.2686,2.2686,2.2686,2.2686,2.2686,2.2686,2.2686,2.2686,2.2686,2.2686,2.2686,2.2686,2.2686,2.2686,2.2686,2.2686,2.2686,2.2686,2.2686,2.2686,2.2686,2.2686,2.1995,2.1118,2.0424,1.9553,1.8864,1.8514,1.7981,1.7271,1.708,1.7096,1.7031,1.7031,1.7112,1.7071,1.6958,1.6812,1.6698,1.6674,1.6657,1.6625,1.6609,1.6584,1.635,1.5655,1.4295,1.2753,1.1311,0.9913,0.8543,0.8134,0.8105,0.8117,0.815,0.8199,0.8187,0.8174,0.8179,0.8223,0.8272,0.8313,0.8358,0.8366,0.8366,0.8338,0.8403,0.8452,0.8468,0.8522,0.8517,0.8481,0.8424,0.8326,0.8244,0.8179,0.8134,0.7745,0.7725,0.7725,0.7725,0.7223,0.6553,0.5714,0.4707,0.3868,0.3197,0.2861,0.2692,0.2692,0.2692,0.2692,0.2692,0.2692,0.2692,0.2692,0.2692,0.2692,0.2692,0.2692,0.2692,0.269,0.2692,0.2692,0.2692,0.2692,0.2692,0.2524,0.2355,0.1009,-0.084,-0.2016,-0.3026,2.2686,2.2686,2.2686,2.2686,2.2686,2.2686,2.2686,2.2686,2.2686,2.2686,2.2686,2.2686,2.2686,2.2686,2.2686,2.2686,2.2686,2.2686,2.2686,2.2686,2.2686,2.2686,2.2686,2.2686,2.1984,2.0771,1.9902,1.903,1.8156,1.7622,1.743,1.6974,1.6958,1.6893,1.686,1.682,1.6803,1.6779,1.673,1.6665,1.66,1.6568,1.6527,1.643,1.6422,1.6381,1.6149,1.5774,1.4251,1.2726,1.149,1.0304,0.8786,0.8085,0.8064,0.8072,0.815,0.8166,0.8134,0.8174,0.8228,0.8289,0.8358,0.8432,0.8473,0.8485,0.8481,0.8493,0.8522,0.8542,0.8546,0.8583,0.8579,0.8554,0.8505,0.8403,0.8297,0.8228,0.7997,0.7604,0.7223,0.7223,0.7056,0.6553,0.5879,0.5043,0.4372,0.37,0.3197,0.2861,0.2692,0.2692,0.2692,0.2692,0.2692,0.2692,0.2692,0.2692,0.2692,0.2692,0.2692,0.2692,0.2692,0.2692,0.2692,0.2692,0.2692,0.2692,0.2692,0.2524,0.2187,0.1009,-0.0168,-0.1344,-0.252,2.2686,2.2686,2.2686,2.2686,2.2686,2.2686,2.2686,2.2686,2.2686,2.2686,2.2686,2.2686,2.2686,2.2686,2.2686,2.2686,2.2686,2.2686,2.2686,2.2686,2.2686,2.2686,2.2514,2.2503,2.1465,1.9902,1.9553,1.8645,1.7563,1.7031,1.6966,1.6852,1.6803,1.673,1.6633,1.6609,1.6609,1.6527,1.6519,1.6479,1.643,1.6422,1.6349,1.6284,1.6227,1.6178,1.6073,1.5562,1.4066,1.2567,1.1576,1.0242,0.8571,0.8068,0.806,0.8081,0.8146,0.8174,0.8174,0.8215,0.8293,0.837,0.8448,0.8526,0.8579,0.8607,0.8607,0.8587,0.8591,0.8599,0.8607,0.8607,0.8603,0.8579,0.8546,0.8448,0.8354,0.8285,0.7847,0.7256,0.6721,0.6047,0.5879,0.5879,0.5208,0.4372,0.37,0.3363,0.3029,0.2692,0.2692,0.2692,0.2692,0.2692,0.2692,0.2692,0.2692,0.2692,0.2692,0.2692,0.2692,0.2692,0.2692,0.2692,0.2692,0.2692,0.2692,0.2692,0.2692,0.2524,0.2355,0.185,0.0841,-0.0672,-0.2352,2.2686,2.2686,2.2686,2.2686,2.2686,2.2686,2.2686,2.2686,2.2686,2.2686,2.2686,2.2686,2.2686,2.2686,2.2686,2.2686,2.2686,2.2686,2.2686,2.2686,2.2686,2.2686,2.2341,2.1822,2.0955,1.9718,1.9168,1.8035,1.7066,1.6836,1.6844,1.6836,1.6657,1.66,1.6544,1.6479,1.643,1.6357,1.6324,1.6251,1.6178,1.6137,1.6113,1.6097,1.6073,1.6056,1.5875,1.5043,1.3714,1.2222,1.1059,0.9893,0.8395,0.806,0.806,0.8101,0.817,0.8207,0.824,0.833,0.8428,0.8485,0.8534,0.8583,0.8607,0.8607,0.8607,0.8607,0.8607,0.8607,0.8607,0.8607,0.8607,0.8599,0.8562,0.8477,0.8395,0.8338,0.7898,0.7099,0.6218,0.5544,0.4705,0.4537,0.4539,0.37,0.3363,0.3029,0.3029,0.2692,0.2692,0.2692,0.2692,0.2692,0.2692,0.2692,0.2692,0.2692,0.2692,0.2692,0.2692,0.2692,0.2692,0.2692,0.2692,0.2692,0.2692,0.2692,0.2692,0.2692,0.2355,0.1346,-0.0168,-0.1849,-0.3362,2.3525,2.2686,2.2686,2.2686,2.2686,2.2686,2.2686,2.2686,2.2686,2.2686,2.2686,2.2686,2.2686,2.2686,2.2686,2.2686,2.2686,2.2686,2.2686,2.2686,2.2686,2.2341,2.1995,2.1302,2.0607,1.9351,1.8574,1.7801,1.6852,1.6665,1.6535,1.6479,1.6438,1.6341,1.6292,1.6284,1.6227,1.6194,1.6154,1.6097,1.6081,1.6048,1.6048,1.6048,1.6048,1.6048,1.5875,1.4713,1.3383,1.205,1.0893,0.9559,0.8395,0.806,0.8089,0.8138,0.8223,0.8293,0.8346,0.8432,0.8489,0.8554,0.8591,0.8607,0.8607,0.8607,0.8607,0.8607,0.8607,0.8607,0.8607,0.8607,0.8607,0.8607,0.857,0.8501,0.8415,0.8181,0.7391,0.6418,0.5717,0.5041,0.4204,0.3363,0.3195,0.3195,0.2861,0.2692,0.2692,0.2692,0.2692,0.2692,0.2692,0.2692,0.2692,0.2692,0.2692,0.2692,0.2692,0.2692,0.2692,0.2692,0.2692,0.2692,0.2692,0.2692,0.2692,0.2692,0.2692,0.2692,0.1682,0.0336,-0.1345,-0.3026,-0.4204,2.4212,2.3193,2.2848,2.2686,2.2686,2.2686,2.2686,2.2686,2.2686,2.2686,2.2686,2.2686,2.2686,2.2686,2.2686,2.2686,2.2686,2.2686,2.2686,2.2686,2.2686,2.2168,2.1475,2.0781,2.0076,1.8636,1.7975,1.7354,1.6738,1.6446,1.6324,1.6267,1.6219,1.6154,1.6105,1.6048,1.6048,1.6048,1.6048,1.6048,1.6048,1.6048,1.6048,1.6048,1.6048,1.6048,1.5711,1.4713,1.3383,1.2056,1.0893,0.9559,0.8562,0.8072,0.8113,0.8195,0.8285,0.8375,0.8448,0.8509,0.8538,0.8591,0.8603,0.8607,0.8607,0.8607,0.8607,0.8607,0.8607,0.8607,0.8607,0.8607,0.8607,0.8607,0.8607,0.8542,0.8241,0.798,0.6846,0.5738,0.5222,0.4372,0.37,0.2859,0.2859,0.2859,0.2861,0.2692,0.2692,0.2692,0.2692,0.2692,0.2692,0.2692,0.2692,0.2692,0.2692,0.2692,0.2692,0.2692,0.2692,0.2692,0.2692,0.2692,0.2692,0.2692,0.2692,0.2692,0.2692,0.2692,0.1514,0.0,-0.1177,-0.2858,-0.4204,2.4714,2.4555,2.3193,2.2686,2.2686,2.2686,2.2686,2.2686,2.2686,2.2686,2.2686,2.2686,2.2686,2.2686,2.2686,2.2686,2.2686,2.2686,2.2686,2.2686,2.2514,2.1995,2.1128,2.025,1.9379,1.8471,1.7603,1.6894,1.6609,1.6373,1.6211,1.6121,1.6097,1.6073,1.6048,1.6048,1.6048,1.6048,1.6064,1.6048,1.6081,1.6064,1.6048,1.6048,1.6048,1.6048,1.5711,1.4713,1.3383,1.2222,1.0893,0.9559,0.8227,0.8076,0.8125,0.8211,0.8297,0.8387,0.8468,0.8554,0.8595,0.8603,0.8607,0.8607,0.8607,0.8607,0.8607,0.8607,0.8607,0.8607,0.8607,0.8607,0.8607,0.8607,0.8607,0.8369,0.8066,0.7638,0.6686,0.5406,0.4546,0.37,0.3195,0.2692,0.2692,0.2692,0.2692,0.2692,0.2692,0.2692,0.2692,0.2692,0.2692,0.2692,0.2692,0.2692,0.2692,0.2692,0.2692,0.2692,0.2692,0.2692,0.2692,0.2692,0.2692,0.2692,0.2692,0.2692,0.2692,0.2524,0.1178,-0.0,-0.1344,-0.2688,-0.4204,2.5568,2.4555,2.3193,2.2686,2.2686,2.2686,2.2686,2.2686,2.2686,2.2686,2.2686,2.2686,2.2686,2.2686,2.2686,2.2686,2.2686,2.2686,2.2686,2.2686,2.2168,2.1292,2.0424,1.9553,1.8514,1.7729,1.6852,1.6665,1.6584,1.6308,1.6146,1.6056,1.6048,1.6048,1.6048,1.6056,1.6089,1.617,1.6137,1.6089,1.6186,1.6105,1.6048,1.6048,1.6048,1.6048,1.5883,1.4713,1.3217,1.2056,1.0726,0.9397,0.8416,0.8101,0.8191,0.8281,0.8375,0.8464,0.8538,0.8599,0.8607,0.8607,0.8607,0.8607,0.8607,0.8607,0.8607,0.8607,0.8607,0.8607,0.8607,0.8607,0.8607,0.8607,0.8409,0.7972,0.7705,0.7309,0.6547,0.5087,0.4036,0.3532,0.3029,0.2692,0.2692,0.2692,0.2692,0.2692,0.2692,0.2692,0.2692,0.2692,0.2692,0.2692,0.2692,0.2692,0.2692,0.2692,0.2692,0.2692,0.2692,0.2692,0.2692,0.2692,0.2692,0.2692,0.2692,0.2692,0.2692,0.2187,0.0841,-0.1009,-0.2522,-0.3698,-0.4878,2.65,2.5227,2.3869,2.302,2.2686,2.2686,2.2686,2.2686,2.2686,2.2686,2.2686,2.2686,2.2686,2.2686,2.2686,2.2686,2.2686,2.2686,2.2341,2.2168,2.1649,2.0607,1.9553,1.8689,1.8164,1.7189,1.6787,1.6576,1.656,1.6219,1.6073,1.6048,1.6048,1.6048,1.6048,1.6064,1.6089,1.6137,1.6089,1.6081,1.6129,1.6105,1.6048,1.6048,1.6048,1.6048,1.5546,1.4548,1.3045,1.189,1.056,0.9082,0.845,0.8166,0.826,0.8362,0.8468,0.8546,0.8591,0.8603,0.8607,0.8607,0.8607,0.8607,0.8607,0.8607,0.8607,0.8607,0.8607,0.8607,0.8607,0.8607,0.8607,0.8607,0.8405,0.7972,0.7202,0.6809,0.6049,0.4592,0.3533,0.3197,0.2861,0.2861,0.2692,0.2692,0.2692,0.2692,0.2692,0.2692,0.2692,0.2692,0.2692,0.2692,0.2692,0.2692,0.2692,0.2692,0.2692,0.2692,0.2692,0.2692,0.2692,0.2692,0.2692,0.2692,0.2692,0.2692,0.2355,0.1513,-0.0168,-0.1848,-0.37,-0.471,-0.5384,2.7649,2.6719,2.5203,2.3824,2.2815,2.2804,2.2665,2.2686,2.2686,2.2686,2.2686,2.2686,2.2686,2.2686,2.2686,2.2686,2.2686,2.2686,2.2168,2.1649,2.1128,1.9902,1.903,1.8339,1.7814,1.7165,1.6787,1.6576,1.6535,1.6219,1.6056,1.6048,1.6048,1.6048,1.6048,1.6048,1.6081,1.6121,1.6089,1.6097,1.6129,1.6081,1.6048,1.6048,1.6048,1.6048,1.5381,1.4045,1.272,1.1392,0.9893,0.8786,0.8162,0.8199,0.8317,0.844,0.8558,0.8587,0.8603,0.8607,0.8607,0.8607,0.8607,0.8607,0.8607,0.8607,0.8607,0.8607,0.8607,0.8607,0.8607,0.8607,0.8607,0.8607,0.8429,0.7829,0.6882,0.6121,0.5191,0.4103,0.3213,0.2864,0.2692,0.2692,0.2692,0.2692,0.2692,0.2692,0.2692,0.2692,0.2692,0.2692,0.2692,0.2692,0.2692,0.2692,0.2692,0.2692,0.2692,0.2692,0.2692,0.2692,0.2692,0.2692,0.2692,0.2692,0.2692,0.2355,0.1849,0.0672,-0.0168,-0.2184,-0.3868,-0.471,-0.5387,2.773,2.7317,2.5175,2.3851,2.3538,2.2703,2.2525,2.2675,2.2686,2.2686,2.2686,2.2686,2.2686,2.2686,2.2686,2.2686,2.2686,2.2514,2.1995,2.1475,2.0598,1.9553,1.8689,1.7814,1.7463,1.7165,1.6803,1.6592,1.6503,1.6219,1.6048,1.6048,1.6048,1.6048,1.6048,1.6048,1.6113,1.6137,1.6089,1.6105,1.6129,1.6097,1.6073,1.6048,1.6048,1.6048,1.5546,1.4217,1.3052,1.1724,1.0393,0.9277,0.8187,0.826,0.8375,0.8538,0.8595,0.8607,0.8607,0.8607,0.8607,0.8607,0.8607,0.8607,0.8607,0.8607,0.8607,0.8607,0.8607,0.8607,0.8607,0.8607,0.8429,0.825,0.8067,0.7317,0.6369,0.5428,0.4329,0.3587,0.2703,0.2695,0.2692,0.2692,0.2692,0.2692,0.2692,0.2692,0.2692,0.2692,0.2692,0.2692,0.2692,0.2692,0.2692,0.2692,0.2692,0.2692,0.2692,0.2692,0.2692,0.2692,0.2692,0.2692,0.2692,0.2692,0.2692,0.2355,0.2018,0.1345,0.0336,-0.1848,-0.3698,-0.4542,-0.5384,2.827,2.7541,2.559,2.4128,2.3166,2.2463,2.2277,2.2417,2.26,2.2686,2.2686,2.2686,2.2686,2.2686,2.2686,2.2686,2.2686,2.2168,2.1475,2.0598,1.9902,1.8855,1.7981,1.7463,1.7288,1.6998,1.6852,1.6665,1.6511,1.6251,1.6048,1.6048,1.6048,1.6048,1.6048,1.6048,1.6089,1.6113,1.6121,1.6129,1.6121,1.6105,1.6064,1.6048,1.6048,1.6048,1.5711,1.4383,1.2886,1.189,1.056,0.9137,0.8244,0.837,0.8456,0.8599,0.8607,0.8607,0.8607,0.8607,0.8607,0.8607,0.8607,0.8607,0.8607,0.8607,0.8607,0.8607,0.8607,0.8607,0.8607,0.8607,0.825,0.8071,0.7342,0.6618,0.5668,0.4733,0.3805,0.3067,0.2706,0.2697,0.2692,0.2692,0.2692,0.2692,0.2692,0.2692,0.2692,0.2692,0.2692,0.2692,0.2692,0.2692,0.2692,0.2692,0.2692,0.2692,0.2692,0.2692,0.2692,0.2692,0.2692,0.2692,0.2692,0.2692,0.2692,0.2692,0.2355,0.1682,0.1009,-0.0672,-0.269,-0.4372,-0.5048,2.8862,2.7784,2.6346,2.4187,2.2099,2.1933,2.1954,2.1997,2.2406,2.2622,2.26,2.2632,2.2632,2.2611,2.2654,2.2514,2.2341,2.1822,2.0945,1.9902,1.9214,1.8164,1.7455,1.7112,1.7112,1.7055,1.6917,1.6698,1.6495,1.6267,1.6097,1.6056,1.6048,1.6048,1.6048,1.6048,1.6064,1.6073,1.6073,1.6073,1.6064,1.6048,1.6048,1.6048,1.6048,1.5883,1.5381,1.3887,1.2056,1.1225,0.9923,0.8319,0.8313,0.8485,0.857,0.8599,0.8607,0.8607,0.8607,0.8607,0.8607,0.8607,0.8607,0.8607,0.8607,0.8607,0.8607,0.8607,0.8607,0.8607,0.8607,0.8607,0.825,0.771,0.6988,0.6091,0.4994,0.422,0.3452,0.2894,0.2701,0.2692,0.2692,0.2692,0.2692,0.2692,0.2692,0.2692,0.2692,0.2692,0.2692,0.2692,0.2692,0.2692,0.2692,0.2692,0.2692,0.2692,0.2692,0.2692,0.2692,0.2692,0.2692,0.2692,0.2692,0.2692,0.2692,0.2692,0.2355,0.1682,0.1009,0.0168,-0.1345,-0.3194,-0.4204,2.889,2.8475,2.6254,2.386,2.1633,2.1631,2.1696,2.1728,2.2019,2.2148,2.2169,2.232,2.2417,2.2428,2.2568,2.2449,2.1618,2.1251,2.025,1.9388,1.8514,1.7989,1.7288,1.7112,1.7112,1.7055,1.6917,1.6706,1.6479,1.63,1.617,1.6064,1.6048,1.6048,1.6048,1.6048,1.6048,1.6048,1.6048,1.6048,1.6048,1.6048,1.6048,1.6048,1.6048,1.6048,1.5216,1.3714,1.2554,1.1558,0.9392,0.8497,0.8326,0.8505,0.8595,0.8607,0.8603,0.8607,0.8607,0.8607,0.8607,0.8607,0.8607,0.8607,0.8607,0.8607,0.8607,0.8607,0.8607,0.8607,0.8607,0.8429,0.825,0.7352,0.6454,0.5559,0.4483,0.3694,0.3101,0.2895,0.2698,0.2692,0.2692,0.2692,0.2692,0.2692,0.2692,0.2692,0.2692,0.2692,0.2692,0.2692,0.2692,0.2692,0.2692,0.2692,0.2692,0.2692,0.2692,0.2692,0.2692,0.2692,0.2692,0.2692,0.2692,0.2692,0.2692,0.2692,0.2355,0.185,0.1514,0.0841,0.0336,-0.1176,-0.2522,2.8886,2.8573,2.6215,2.3668,2.1621,2.1416,2.147,2.1491,2.162,2.1674,2.1717,2.1997,2.218,2.218,2.2331,2.1957,2.113,2.0633,1.9653,1.8837,1.7972,1.7639,1.7288,1.7112,1.7112,1.7063,1.6925,1.673,1.6527,1.6341,1.6227,1.6154,1.6113,1.6056,1.6056,1.6048,1.6048,1.6048,1.6048,1.6048,1.6048,1.6048,1.6048,1.6048,1.6048,1.6048,1.5381,1.4045,1.2886,1.1581,0.944,0.8488,0.8293,0.844,0.853,0.8558,0.8579,0.8607,0.8607,0.8607,0.8607,0.8607,0.8607,0.8607,0.8607,0.8607,0.8607,0.8607,0.8607,0.8607,0.8607,0.8607,0.7535,0.6637,0.6088,0.5186,0.4081,0.3148,0.292,0.2707,0.2692,0.2692,0.2692,0.2692,0.2692,0.2692,0.2692,0.2692,0.2692,0.2692,0.2692,0.2692,0.2692,0.2692,0.2692,0.2692,0.2692,0.2692,0.2692,0.2692,0.2692,0.2692,0.2692,0.2692,0.2692,0.2692,0.2692,0.2692,0.2692,0.2355,0.2018,0.1682,0.1177,0.0673,-0.0336,2.873,2.8104,2.6043,2.3668,2.1438,2.1276,2.1286,2.1286,2.1286,2.1265,2.1286,2.1642,2.1836,2.1933,2.1997,2.1283,2.0697,2.0055,1.9149,1.8235,1.7405,1.7255,1.7096,1.7112,1.7112,1.7071,1.6974,1.6893,1.6779,1.6584,1.6422,1.6324,1.6202,1.6089,1.6073,1.6048,1.6048,1.6048,1.6048,1.6048,1.6048,1.6048,1.6048,1.6048,1.6048,1.6048,1.5546,1.4713,1.3383,1.1933,1.0151,0.8857,0.8244,0.8366,0.8419,0.8473,0.853,0.8562,0.8583,0.8595,0.8603,0.8607,0.8607,0.8607,0.8607,0.8607,0.8607,0.8607,0.8607,0.8607,0.8607,0.8429,0.7356,0.6097,0.5544,0.4804,0.3694,0.2785,0.2744,0.2701,0.2692,0.2692,0.2692,0.2692,0.2692,0.2692,0.2692,0.2692,0.2692,0.2692,0.2692,0.2692,0.2692,0.2692,0.2692,0.2692,0.2692,0.2692,0.2692,0.2692,0.2692,0.2692,0.2692,0.2692,0.2692,0.2692,0.2692,0.2692,0.2692,0.2692,0.2524,0.2187,0.2187,0.1682,0.1514,2.7633,2.5727,2.5251,2.3668,2.1599,2.1276,2.1276,2.1276,2.1276,2.1168,2.1071,2.1071,2.1286,2.1706,2.19,2.1316,1.9933,1.9475,1.8273,1.7223,1.7099,1.6998,1.7071,1.7096,1.7104,1.7088,1.7047,1.6982,1.6909,1.6787,1.6657,1.6503,1.6324,1.6235,1.6211,1.6154,1.6048,1.6048,1.6048,1.6048,1.6048,1.6048,1.6048,1.6048,1.6048,1.6048,1.5711,1.4713,1.4045,1.2925,1.116,0.9526,0.8565,0.8285,0.8342,0.8383,0.8448,0.8485,0.8509,0.8558,0.8575,0.8591,0.8591,0.8607,0.8607,0.8607,0.8607,0.8607,0.8607,0.8607,0.8607,0.8429,0.771,0.5739,0.4655,0.3896,0.2977,0.2778,0.2751,0.2716,0.2692,0.2692,0.2692,0.2692,0.2692,0.2692,0.2692,0.2692,0.2692,0.2692,0.2692,0.2692,0.2692,0.2692,0.2692,0.2692,0.2692,0.2692,0.2692,0.2692,0.2692,0.2692,0.2692,0.2692,0.2692,0.2692,0.2692,0.2692,0.2692,0.2692,0.2692,0.2692,0.2692,0.2524,0.2187]}]]